<?xml version="1.0" encoding="UTF-8" standalone="no" ?>
<gpx xmlns="http://www.topografix.com/GPX/1/1" xmlns:xsi="http://www.w3.org/2001/XMLSchema-instance" xsi:schemaLocation="http://www.topografix.com/GPX/1/1 http://www.topografix.com/GPX/1/1/gpx.xsd" version="1.1" creator="VisuGPX - https://www.visugpx.com">
  <metadata>
    <name>VTT - Orbey Crêtes 36-1360</name>
  </metadata>
  <trk>
    <name><![CDATA[5573483-Orbey-Crete-Orbey]]></name>
    <trkseg>
      <trkpt lat="48.13157" lon="7.14947">
        <ele>608</ele>
        <time>2019-04-12T10:56:14Z</time>
      </trkpt>
      <trkpt lat="48.13165" lon="7.14943">
        <ele>609</ele>
        <time>2019-04-12T10:57:14Z</time>
      </trkpt>
      <trkpt lat="48.13173" lon="7.14942">
        <ele>611</ele>
        <time>2019-04-12T10:58:14Z</time>
      </trkpt>
      <trkpt lat="48.1319" lon="7.14938">
        <ele>614</ele>
        <time>2019-04-12T10:59:14Z</time>
      </trkpt>
      <trkpt lat="48.13208" lon="7.14909">
        <ele>614</ele>
        <time>2019-04-12T11:00:14Z</time>
      </trkpt>
      <trkpt lat="48.13229" lon="7.14885">
        <ele>614</ele>
        <time>2019-04-12T11:01:14Z</time>
      </trkpt>
      <trkpt lat="48.13239" lon="7.14875">
        <ele>615</ele>
        <time>2019-04-12T11:02:14Z</time>
      </trkpt>
      <trkpt lat="48.13252" lon="7.14866">
        <ele>616</ele>
        <time>2019-04-12T11:03:14Z</time>
      </trkpt>
      <trkpt lat="48.13266" lon="7.14859">
        <ele>618</ele>
        <time>2019-04-12T11:04:14Z</time>
      </trkpt>
      <trkpt lat="48.13271" lon="7.14853">
        <ele>618</ele>
        <time>2019-04-12T11:05:14Z</time>
      </trkpt>
      <trkpt lat="48.13275" lon="7.14848">
        <ele>618</ele>
        <time>2019-04-12T11:06:14Z</time>
      </trkpt>
      <trkpt lat="48.13285" lon="7.14832">
        <ele>618</ele>
        <time>2019-04-12T11:07:14Z</time>
      </trkpt>
      <trkpt lat="48.13298" lon="7.14813">
        <ele>615</ele>
        <time>2019-04-12T11:08:14Z</time>
      </trkpt>
      <trkpt lat="48.13309" lon="7.14801">
        <ele>614</ele>
        <time>2019-04-12T11:09:14Z</time>
      </trkpt>
      <trkpt lat="48.13328" lon="7.14783">
        <ele>613</ele>
        <time>2019-04-12T11:10:14Z</time>
      </trkpt>
      <trkpt lat="48.1334" lon="7.14767">
        <ele>610</ele>
        <time>2019-04-12T11:11:14Z</time>
      </trkpt>
      <trkpt lat="48.13353" lon="7.1475">
        <ele>606</ele>
        <time>2019-04-12T11:12:14Z</time>
      </trkpt>
      <trkpt lat="48.13358" lon="7.14746">
        <ele>606</ele>
        <time>2019-04-12T11:13:14Z</time>
      </trkpt>
      <trkpt lat="48.13369" lon="7.1474">
        <ele>606</ele>
        <time>2019-04-12T11:14:14Z</time>
      </trkpt>
      <trkpt lat="48.1338" lon="7.14735">
        <ele>606</ele>
        <time>2019-04-12T11:15:14Z</time>
      </trkpt>
      <trkpt lat="48.13393" lon="7.1473">
        <ele>606</ele>
        <time>2019-04-12T11:16:14Z</time>
      </trkpt>
      <trkpt lat="48.13404" lon="7.14726">
        <ele>606</ele>
        <time>2019-04-12T11:17:14Z</time>
      </trkpt>
      <trkpt lat="48.13409" lon="7.14722">
        <ele>605</ele>
        <time>2019-04-12T11:18:14Z</time>
      </trkpt>
      <trkpt lat="48.13421" lon="7.1471">
        <ele>603</ele>
        <time>2019-04-12T11:19:14Z</time>
      </trkpt>
      <trkpt lat="48.13441" lon="7.1468">
        <ele>596</ele>
        <time>2019-04-12T11:20:14Z</time>
      </trkpt>
      <trkpt lat="48.13441" lon="7.1468">
        <ele>596</ele>
        <time>2019-04-12T11:21:14Z</time>
      </trkpt>
      <trkpt lat="48.13443" lon="7.1469">
        <ele>598</ele>
        <time>2019-04-12T11:22:14Z</time>
      </trkpt>
      <trkpt lat="48.13448" lon="7.14696">
        <ele>600</ele>
        <time>2019-04-12T11:23:14Z</time>
      </trkpt>
      <trkpt lat="48.13461" lon="7.14699">
        <ele>601</ele>
        <time>2019-04-12T11:24:14Z</time>
      </trkpt>
      <trkpt lat="48.13469" lon="7.14702">
        <ele>601</ele>
        <time>2019-04-12T11:25:14Z</time>
      </trkpt>
      <trkpt lat="48.1348" lon="7.14707">
        <ele>603</ele>
        <time>2019-04-12T11:26:14Z</time>
      </trkpt>
      <trkpt lat="48.13507" lon="7.14725">
        <ele>606</ele>
        <time>2019-04-12T11:27:14Z</time>
      </trkpt>
      <trkpt lat="48.1353" lon="7.14741">
        <ele>610</ele>
        <time>2019-04-12T11:28:14Z</time>
      </trkpt>
      <trkpt lat="48.13559" lon="7.14763">
        <ele>614</ele>
        <time>2019-04-12T11:29:14Z</time>
      </trkpt>
      <trkpt lat="48.13581" lon="7.14779">
        <ele>617</ele>
        <time>2019-04-12T11:30:14Z</time>
      </trkpt>
      <trkpt lat="48.13602" lon="7.14799">
        <ele>623</ele>
        <time>2019-04-12T11:31:14Z</time>
      </trkpt>
      <trkpt lat="48.13608" lon="7.14803">
        <ele>625</ele>
        <time>2019-04-12T11:32:14Z</time>
      </trkpt>
      <trkpt lat="48.13614" lon="7.14806">
        <ele>626</ele>
        <time>2019-04-12T11:33:14Z</time>
      </trkpt>
      <trkpt lat="48.13628" lon="7.14805">
        <ele>628</ele>
        <time>2019-04-12T11:34:14Z</time>
      </trkpt>
      <trkpt lat="48.13642" lon="7.14803">
        <ele>630</ele>
        <time>2019-04-12T11:35:14Z</time>
      </trkpt>
      <trkpt lat="48.13648" lon="7.14802">
        <ele>631</ele>
        <time>2019-04-12T11:36:14Z</time>
      </trkpt>
      <trkpt lat="48.13652" lon="7.14805">
        <ele>632</ele>
        <time>2019-04-12T11:37:14Z</time>
      </trkpt>
      <trkpt lat="48.13655" lon="7.14812">
        <ele>632</ele>
        <time>2019-04-12T11:38:14Z</time>
      </trkpt>
      <trkpt lat="48.13657" lon="7.14828">
        <ele>633</ele>
        <time>2019-04-12T11:39:14Z</time>
      </trkpt>
      <trkpt lat="48.13655" lon="7.14837">
        <ele>633</ele>
        <time>2019-04-12T11:40:14Z</time>
      </trkpt>
      <trkpt lat="48.13652" lon="7.14844">
        <ele>633</ele>
        <time>2019-04-12T11:41:14Z</time>
      </trkpt>
      <trkpt lat="48.13642" lon="7.14856">
        <ele>634</ele>
        <time>2019-04-12T11:42:14Z</time>
      </trkpt>
      <trkpt lat="48.13633" lon="7.14866">
        <ele>634</ele>
        <time>2019-04-12T11:43:14Z</time>
      </trkpt>
      <trkpt lat="48.13631" lon="7.14869">
        <ele>635</ele>
        <time>2019-04-12T11:44:14Z</time>
      </trkpt>
      <trkpt lat="48.1363" lon="7.14875">
        <ele>635</ele>
        <time>2019-04-12T11:45:14Z</time>
      </trkpt>
      <trkpt lat="48.13632" lon="7.14882">
        <ele>636</ele>
        <time>2019-04-12T11:46:14Z</time>
      </trkpt>
      <trkpt lat="48.13642" lon="7.14895">
        <ele>638</ele>
        <time>2019-04-12T11:47:14Z</time>
      </trkpt>
      <trkpt lat="48.13659" lon="7.14904">
        <ele>638</ele>
        <time>2019-04-12T11:48:14Z</time>
      </trkpt>
      <trkpt lat="48.13674" lon="7.14911">
        <ele>639</ele>
        <time>2019-04-12T11:49:14Z</time>
      </trkpt>
      <trkpt lat="48.13679" lon="7.14917">
        <ele>640</ele>
        <time>2019-04-12T11:50:14Z</time>
      </trkpt>
      <trkpt lat="48.13688" lon="7.1493">
        <ele>641</ele>
        <time>2019-04-12T11:51:14Z</time>
      </trkpt>
      <trkpt lat="48.13702" lon="7.14956">
        <ele>643</ele>
        <time>2019-04-12T11:52:14Z</time>
      </trkpt>
      <trkpt lat="48.1371" lon="7.14971">
        <ele>644</ele>
        <time>2019-04-12T11:53:14Z</time>
      </trkpt>
      <trkpt lat="48.13717" lon="7.14981">
        <ele>644</ele>
        <time>2019-04-12T11:54:14Z</time>
      </trkpt>
      <trkpt lat="48.13717" lon="7.14981">
        <ele>644</ele>
        <time>2019-04-12T11:55:14Z</time>
      </trkpt>
      <trkpt lat="48.13731" lon="7.14963">
        <ele>644</ele>
        <time>2019-04-12T11:56:14Z</time>
      </trkpt>
      <trkpt lat="48.13732" lon="7.14949">
        <ele>645</ele>
        <time>2019-04-12T11:57:14Z</time>
      </trkpt>
      <trkpt lat="48.13733" lon="7.1494">
        <ele>645</ele>
        <time>2019-04-12T11:58:14Z</time>
      </trkpt>
      <trkpt lat="48.13733" lon="7.14939">
        <ele>645</ele>
        <time>2019-04-12T11:59:14Z</time>
      </trkpt>
      <trkpt lat="48.13732" lon="7.14922">
        <ele>646</ele>
        <time>2019-04-12T12:00:14Z</time>
      </trkpt>
      <trkpt lat="48.13732" lon="7.14907">
        <ele>646</ele>
        <time>2019-04-12T12:01:14Z</time>
      </trkpt>
      <trkpt lat="48.13734" lon="7.14896">
        <ele>647</ele>
        <time>2019-04-12T12:02:14Z</time>
      </trkpt>
      <trkpt lat="48.13736" lon="7.14888">
        <ele>648</ele>
        <time>2019-04-12T12:03:14Z</time>
      </trkpt>
      <trkpt lat="48.13743" lon="7.14869">
        <ele>650</ele>
        <time>2019-04-12T12:04:14Z</time>
      </trkpt>
      <trkpt lat="48.13749" lon="7.14852">
        <ele>652</ele>
        <time>2019-04-12T12:05:14Z</time>
      </trkpt>
      <trkpt lat="48.13757" lon="7.14844">
        <ele>654</ele>
        <time>2019-04-12T12:06:14Z</time>
      </trkpt>
      <trkpt lat="48.13763" lon="7.14838">
        <ele>654</ele>
        <time>2019-04-12T12:07:14Z</time>
      </trkpt>
      <trkpt lat="48.13775" lon="7.14834">
        <ele>655</ele>
        <time>2019-04-12T12:08:14Z</time>
      </trkpt>
      <trkpt lat="48.13786" lon="7.14829">
        <ele>656</ele>
        <time>2019-04-12T12:09:14Z</time>
      </trkpt>
      <trkpt lat="48.13796" lon="7.14817">
        <ele>658</ele>
        <time>2019-04-12T12:10:14Z</time>
      </trkpt>
      <trkpt lat="48.13802" lon="7.1481">
        <ele>659</ele>
        <time>2019-04-12T12:11:14Z</time>
      </trkpt>
      <trkpt lat="48.13804" lon="7.14803">
        <ele>660</ele>
        <time>2019-04-12T12:12:14Z</time>
      </trkpt>
      <trkpt lat="48.13817" lon="7.14791">
        <ele>662</ele>
        <time>2019-04-12T12:13:14Z</time>
      </trkpt>
      <trkpt lat="48.13832" lon="7.14776">
        <ele>665</ele>
        <time>2019-04-12T12:14:14Z</time>
      </trkpt>
      <trkpt lat="48.13849" lon="7.14756">
        <ele>669</ele>
        <time>2019-04-12T12:15:14Z</time>
      </trkpt>
      <trkpt lat="48.13863" lon="7.14739">
        <ele>672</ele>
        <time>2019-04-12T12:16:14Z</time>
      </trkpt>
      <trkpt lat="48.13866" lon="7.14732">
        <ele>673</ele>
        <time>2019-04-12T12:17:14Z</time>
      </trkpt>
      <trkpt lat="48.13867" lon="7.14722">
        <ele>674</ele>
        <time>2019-04-12T12:18:14Z</time>
      </trkpt>
      <trkpt lat="48.13867" lon="7.14704">
        <ele>677</ele>
        <time>2019-04-12T12:19:14Z</time>
      </trkpt>
      <trkpt lat="48.13863" lon="7.14685">
        <ele>678</ele>
        <time>2019-04-12T12:20:14Z</time>
      </trkpt>
      <trkpt lat="48.1386" lon="7.14668">
        <ele>680</ele>
        <time>2019-04-12T12:21:14Z</time>
      </trkpt>
      <trkpt lat="48.13859" lon="7.14644">
        <ele>682</ele>
        <time>2019-04-12T12:22:14Z</time>
      </trkpt>
      <trkpt lat="48.1386" lon="7.14611">
        <ele>685</ele>
        <time>2019-04-12T12:23:14Z</time>
      </trkpt>
      <trkpt lat="48.1386" lon="7.14604">
        <ele>686</ele>
        <time>2019-04-12T12:24:14Z</time>
      </trkpt>
      <trkpt lat="48.13862" lon="7.146">
        <ele>687</ele>
        <time>2019-04-12T12:25:14Z</time>
      </trkpt>
      <trkpt lat="48.13865" lon="7.14597">
        <ele>688</ele>
        <time>2019-04-12T12:26:14Z</time>
      </trkpt>
      <trkpt lat="48.13869" lon="7.14598">
        <ele>689</ele>
        <time>2019-04-12T12:27:14Z</time>
      </trkpt>
      <trkpt lat="48.13879" lon="7.14606">
        <ele>690</ele>
        <time>2019-04-12T12:28:14Z</time>
      </trkpt>
      <trkpt lat="48.13883" lon="7.14608">
        <ele>690</ele>
        <time>2019-04-12T12:29:14Z</time>
      </trkpt>
      <trkpt lat="48.13887" lon="7.14608">
        <ele>691</ele>
        <time>2019-04-12T12:30:14Z</time>
      </trkpt>
      <trkpt lat="48.13889" lon="7.14605">
        <ele>692</ele>
        <time>2019-04-12T12:31:14Z</time>
      </trkpt>
      <trkpt lat="48.1389" lon="7.14601">
        <ele>693</ele>
        <time>2019-04-12T12:32:14Z</time>
      </trkpt>
      <trkpt lat="48.1389" lon="7.14597">
        <ele>693</ele>
        <time>2019-04-12T12:33:14Z</time>
      </trkpt>
      <trkpt lat="48.1389" lon="7.1459">
        <ele>694</ele>
        <time>2019-04-12T12:34:14Z</time>
      </trkpt>
      <trkpt lat="48.13888" lon="7.14582">
        <ele>695</ele>
        <time>2019-04-12T12:35:14Z</time>
      </trkpt>
      <trkpt lat="48.13887" lon="7.14572">
        <ele>695</ele>
        <time>2019-04-12T12:36:14Z</time>
      </trkpt>
      <trkpt lat="48.13887" lon="7.14567">
        <ele>695</ele>
        <time>2019-04-12T12:37:14Z</time>
      </trkpt>
      <trkpt lat="48.13889" lon="7.14561">
        <ele>696</ele>
        <time>2019-04-12T12:38:14Z</time>
      </trkpt>
      <trkpt lat="48.13891" lon="7.14559">
        <ele>696</ele>
        <time>2019-04-12T12:39:14Z</time>
      </trkpt>
      <trkpt lat="48.13894" lon="7.14558">
        <ele>697</ele>
        <time>2019-04-12T12:40:14Z</time>
      </trkpt>
      <trkpt lat="48.13903" lon="7.14555">
        <ele>699</ele>
        <time>2019-04-12T12:41:14Z</time>
      </trkpt>
      <trkpt lat="48.1392" lon="7.14558">
        <ele>703</ele>
        <time>2019-04-12T12:42:14Z</time>
      </trkpt>
      <trkpt lat="48.13929" lon="7.14556">
        <ele>705</ele>
        <time>2019-04-12T12:43:14Z</time>
      </trkpt>
      <trkpt lat="48.13937" lon="7.14552">
        <ele>707</ele>
        <time>2019-04-12T12:44:14Z</time>
      </trkpt>
      <trkpt lat="48.13946" lon="7.14545">
        <ele>709</ele>
        <time>2019-04-12T12:45:14Z</time>
      </trkpt>
      <trkpt lat="48.13955" lon="7.14535">
        <ele>712</ele>
        <time>2019-04-12T12:46:14Z</time>
      </trkpt>
      <trkpt lat="48.13963" lon="7.14518">
        <ele>715</ele>
        <time>2019-04-12T12:47:14Z</time>
      </trkpt>
      <trkpt lat="48.1397" lon="7.14507">
        <ele>718</ele>
        <time>2019-04-12T12:48:14Z</time>
      </trkpt>
      <trkpt lat="48.13972" lon="7.14505">
        <ele>719</ele>
        <time>2019-04-12T12:49:14Z</time>
      </trkpt>
      <trkpt lat="48.13976" lon="7.14506">
        <ele>720</ele>
        <time>2019-04-12T12:50:14Z</time>
      </trkpt>
      <trkpt lat="48.13985" lon="7.14508">
        <ele>722</ele>
        <time>2019-04-12T12:51:14Z</time>
      </trkpt>
      <trkpt lat="48.13999" lon="7.14515">
        <ele>724</ele>
        <time>2019-04-12T12:52:14Z</time>
      </trkpt>
      <trkpt lat="48.13999" lon="7.14515">
        <ele>724</ele>
        <time>2019-04-12T12:53:14Z</time>
      </trkpt>
      <trkpt lat="48.14" lon="7.14501">
        <ele>726</ele>
        <time>2019-04-12T12:54:14Z</time>
      </trkpt>
      <trkpt lat="48.14" lon="7.14488">
        <ele>728</ele>
        <time>2019-04-12T12:55:14Z</time>
      </trkpt>
      <trkpt lat="48.13999" lon="7.14477">
        <ele>729</ele>
        <time>2019-04-12T12:56:14Z</time>
      </trkpt>
      <trkpt lat="48.13994" lon="7.14456">
        <ele>730</ele>
        <time>2019-04-12T12:57:14Z</time>
      </trkpt>
      <trkpt lat="48.13988" lon="7.14438">
        <ele>731</ele>
        <time>2019-04-12T12:58:14Z</time>
      </trkpt>
      <trkpt lat="48.13978" lon="7.14415">
        <ele>731</ele>
        <time>2019-04-12T12:59:14Z</time>
      </trkpt>
      <trkpt lat="48.13969" lon="7.14395">
        <ele>732</ele>
        <time>2019-04-12T13:00:14Z</time>
      </trkpt>
      <trkpt lat="48.13959" lon="7.1437">
        <ele>734</ele>
        <time>2019-04-12T13:01:14Z</time>
      </trkpt>
      <trkpt lat="48.13952" lon="7.14344">
        <ele>737</ele>
        <time>2019-04-12T13:02:14Z</time>
      </trkpt>
      <trkpt lat="48.13948" lon="7.14321">
        <ele>739</ele>
        <time>2019-04-12T13:03:14Z</time>
      </trkpt>
      <trkpt lat="48.13946" lon="7.14303">
        <ele>741</ele>
        <time>2019-04-12T13:04:14Z</time>
      </trkpt>
      <trkpt lat="48.13946" lon="7.14291">
        <ele>742</ele>
        <time>2019-04-12T13:05:14Z</time>
      </trkpt>
      <trkpt lat="48.13946" lon="7.14277">
        <ele>744</ele>
        <time>2019-04-12T13:06:14Z</time>
      </trkpt>
      <trkpt lat="48.13947" lon="7.14267">
        <ele>745</ele>
        <time>2019-04-12T13:07:14Z</time>
      </trkpt>
      <trkpt lat="48.13949" lon="7.14246">
        <ele>748</ele>
        <time>2019-04-12T13:08:14Z</time>
      </trkpt>
      <trkpt lat="48.13951" lon="7.14219">
        <ele>750</ele>
        <time>2019-04-12T13:09:14Z</time>
      </trkpt>
      <trkpt lat="48.13954" lon="7.14188">
        <ele>752</ele>
        <time>2019-04-12T13:10:14Z</time>
      </trkpt>
      <trkpt lat="48.13957" lon="7.14165">
        <ele>754</ele>
        <time>2019-04-12T13:11:14Z</time>
      </trkpt>
      <trkpt lat="48.13955" lon="7.14144">
        <ele>755</ele>
        <time>2019-04-12T13:12:14Z</time>
      </trkpt>
      <trkpt lat="48.13954" lon="7.14119">
        <ele>756</ele>
        <time>2019-04-12T13:13:14Z</time>
      </trkpt>
      <trkpt lat="48.13954" lon="7.14103">
        <ele>757</ele>
        <time>2019-04-12T13:14:14Z</time>
      </trkpt>
      <trkpt lat="48.13954" lon="7.14092">
        <ele>758</ele>
        <time>2019-04-12T13:15:14Z</time>
      </trkpt>
      <trkpt lat="48.13957" lon="7.14071">
        <ele>760</ele>
        <time>2019-04-12T13:16:14Z</time>
      </trkpt>
      <trkpt lat="48.13959" lon="7.14061">
        <ele>760</ele>
        <time>2019-04-12T13:17:14Z</time>
      </trkpt>
      <trkpt lat="48.13961" lon="7.14053">
        <ele>761</ele>
        <time>2019-04-12T13:18:14Z</time>
      </trkpt>
      <trkpt lat="48.1397" lon="7.14028">
        <ele>763</ele>
        <time>2019-04-12T13:19:14Z</time>
      </trkpt>
      <trkpt lat="48.13976" lon="7.14012">
        <ele>764</ele>
        <time>2019-04-12T13:20:14Z</time>
      </trkpt>
      <trkpt lat="48.13981" lon="7.1399">
        <ele>765</ele>
        <time>2019-04-12T13:21:14Z</time>
      </trkpt>
      <trkpt lat="48.13982" lon="7.13984">
        <ele>765</ele>
        <time>2019-04-12T13:22:14Z</time>
      </trkpt>
      <trkpt lat="48.13984" lon="7.13979">
        <ele>765</ele>
        <time>2019-04-12T13:23:14Z</time>
      </trkpt>
      <trkpt lat="48.1399" lon="7.13964">
        <ele>766</ele>
        <time>2019-04-12T13:24:14Z</time>
      </trkpt>
      <trkpt lat="48.14" lon="7.1394">
        <ele>767</ele>
        <time>2019-04-12T13:25:14Z</time>
      </trkpt>
      <trkpt lat="48.14006" lon="7.1393">
        <ele>768</ele>
        <time>2019-04-12T13:26:14Z</time>
      </trkpt>
      <trkpt lat="48.14013" lon="7.13913">
        <ele>770</ele>
        <time>2019-04-12T13:27:14Z</time>
      </trkpt>
      <trkpt lat="48.14017" lon="7.13902">
        <ele>770</ele>
        <time>2019-04-12T13:28:14Z</time>
      </trkpt>
      <trkpt lat="48.14023" lon="7.13881">
        <ele>771</ele>
        <time>2019-04-12T13:29:14Z</time>
      </trkpt>
      <trkpt lat="48.14033" lon="7.13852">
        <ele>773</ele>
        <time>2019-04-12T13:30:14Z</time>
      </trkpt>
      <trkpt lat="48.14035" lon="7.13843">
        <ele>773</ele>
        <time>2019-04-12T13:31:14Z</time>
      </trkpt>
      <trkpt lat="48.14036" lon="7.13834">
        <ele>773</ele>
        <time>2019-04-12T13:32:14Z</time>
      </trkpt>
      <trkpt lat="48.14034" lon="7.13825">
        <ele>773</ele>
        <time>2019-04-12T13:33:14Z</time>
      </trkpt>
      <trkpt lat="48.14027" lon="7.13789">
        <ele>773</ele>
        <time>2019-04-12T13:34:14Z</time>
      </trkpt>
      <trkpt lat="48.14026" lon="7.13776">
        <ele>774</ele>
        <time>2019-04-12T13:35:14Z</time>
      </trkpt>
      <trkpt lat="48.14026" lon="7.13767">
        <ele>774</ele>
        <time>2019-04-12T13:36:14Z</time>
      </trkpt>
      <trkpt lat="48.14027" lon="7.13741">
        <ele>777</ele>
        <time>2019-04-12T13:37:14Z</time>
      </trkpt>
      <trkpt lat="48.14028" lon="7.13724">
        <ele>778</ele>
        <time>2019-04-12T13:38:14Z</time>
      </trkpt>
      <trkpt lat="48.1403" lon="7.13704">
        <ele>780</ele>
        <time>2019-04-12T13:39:14Z</time>
      </trkpt>
      <trkpt lat="48.14029" lon="7.13695">
        <ele>781</ele>
        <time>2019-04-12T13:40:14Z</time>
      </trkpt>
      <trkpt lat="48.14028" lon="7.13677">
        <ele>782</ele>
        <time>2019-04-12T13:41:14Z</time>
      </trkpt>
      <trkpt lat="48.14029" lon="7.1366">
        <ele>784</ele>
        <time>2019-04-12T13:42:14Z</time>
      </trkpt>
      <trkpt lat="48.14029" lon="7.13647">
        <ele>786</ele>
        <time>2019-04-12T13:43:14Z</time>
      </trkpt>
      <trkpt lat="48.1403" lon="7.13638">
        <ele>787</ele>
        <time>2019-04-12T13:44:14Z</time>
      </trkpt>
      <trkpt lat="48.14031" lon="7.13633">
        <ele>788</ele>
        <time>2019-04-12T13:45:14Z</time>
      </trkpt>
      <trkpt lat="48.14033" lon="7.1363">
        <ele>789</ele>
        <time>2019-04-12T13:46:14Z</time>
      </trkpt>
      <trkpt lat="48.14041" lon="7.13614">
        <ele>793</ele>
        <time>2019-04-12T13:47:14Z</time>
      </trkpt>
      <trkpt lat="48.14042" lon="7.13599">
        <ele>796</ele>
        <time>2019-04-12T13:48:14Z</time>
      </trkpt>
      <trkpt lat="48.1404" lon="7.13571">
        <ele>799</ele>
        <time>2019-04-12T13:49:14Z</time>
      </trkpt>
      <trkpt lat="48.14029" lon="7.13529">
        <ele>803</ele>
        <time>2019-04-12T13:50:14Z</time>
      </trkpt>
      <trkpt lat="48.1402" lon="7.13485">
        <ele>808</ele>
        <time>2019-04-12T13:51:14Z</time>
      </trkpt>
      <trkpt lat="48.14014" lon="7.13417">
        <ele>812</ele>
        <time>2019-04-12T13:52:14Z</time>
      </trkpt>
      <trkpt lat="48.14009" lon="7.13314">
        <ele>820</ele>
        <time>2019-04-12T13:53:14Z</time>
      </trkpt>
      <trkpt lat="48.14004" lon="7.13281">
        <ele>821</ele>
        <time>2019-04-12T13:54:14Z</time>
      </trkpt>
      <trkpt lat="48.14006" lon="7.13231">
        <ele>826</ele>
        <time>2019-04-12T13:55:14Z</time>
      </trkpt>
      <trkpt lat="48.14017" lon="7.13154">
        <ele>838</ele>
        <time>2019-04-12T13:56:14Z</time>
      </trkpt>
      <trkpt lat="48.14029" lon="7.13072">
        <ele>848</ele>
        <time>2019-04-12T13:57:14Z</time>
      </trkpt>
      <trkpt lat="48.14035" lon="7.13053">
        <ele>850</ele>
        <time>2019-04-12T13:58:14Z</time>
      </trkpt>
      <trkpt lat="48.14043" lon="7.1304">
        <ele>852</ele>
        <time>2019-04-12T13:59:14Z</time>
      </trkpt>
      <trkpt lat="48.14092" lon="7.12977">
        <ele>861</ele>
        <time>2019-04-12T14:00:14Z</time>
      </trkpt>
      <trkpt lat="48.14139" lon="7.1295">
        <ele>868</ele>
        <time>2019-04-12T14:01:14Z</time>
      </trkpt>
      <trkpt lat="48.14172" lon="7.12938">
        <ele>874</ele>
        <time>2019-04-12T14:02:14Z</time>
      </trkpt>
      <trkpt lat="48.14215" lon="7.12906">
        <ele>882</ele>
        <time>2019-04-12T14:03:14Z</time>
      </trkpt>
      <trkpt lat="48.14249" lon="7.1285">
        <ele>887</ele>
        <time>2019-04-12T14:04:14Z</time>
      </trkpt>
      <trkpt lat="48.14271" lon="7.12801">
        <ele>894</ele>
        <time>2019-04-12T14:05:14Z</time>
      </trkpt>
      <trkpt lat="48.14284" lon="7.12748">
        <ele>900</ele>
        <time>2019-04-12T14:06:14Z</time>
      </trkpt>
      <trkpt lat="48.14293" lon="7.12685">
        <ele>904</ele>
        <time>2019-04-12T14:07:14Z</time>
      </trkpt>
      <trkpt lat="48.14319" lon="7.1263">
        <ele>913</ele>
        <time>2019-04-12T14:08:14Z</time>
      </trkpt>
      <trkpt lat="48.14343" lon="7.12591">
        <ele>922</ele>
        <time>2019-04-12T14:09:14Z</time>
      </trkpt>
      <trkpt lat="48.14368" lon="7.12557">
        <ele>928</ele>
        <time>2019-04-12T14:10:14Z</time>
      </trkpt>
      <trkpt lat="48.1439" lon="7.12509">
        <ele>933</ele>
        <time>2019-04-12T14:11:14Z</time>
      </trkpt>
      <trkpt lat="48.14405" lon="7.12469">
        <ele>938</ele>
        <time>2019-04-12T14:12:14Z</time>
      </trkpt>
      <trkpt lat="48.14429" lon="7.12417">
        <ele>946</ele>
        <time>2019-04-12T14:13:14Z</time>
      </trkpt>
      <trkpt lat="48.14429" lon="7.12417">
        <ele>946</ele>
        <time>2019-04-12T14:14:14Z</time>
      </trkpt>
      <trkpt lat="48.14425" lon="7.1246">
        <ele>945</ele>
        <time>2019-04-12T14:15:14Z</time>
      </trkpt>
      <trkpt lat="48.14423" lon="7.12495">
        <ele>945</ele>
        <time>2019-04-12T14:16:14Z</time>
      </trkpt>
      <trkpt lat="48.14426" lon="7.12513">
        <ele>946</ele>
        <time>2019-04-12T14:17:14Z</time>
      </trkpt>
      <trkpt lat="48.14428" lon="7.12523">
        <ele>947</ele>
        <time>2019-04-12T14:18:14Z</time>
      </trkpt>
      <trkpt lat="48.14435" lon="7.12551">
        <ele>950</ele>
        <time>2019-04-12T14:19:14Z</time>
      </trkpt>
      <trkpt lat="48.1445" lon="7.12578">
        <ele>954</ele>
        <time>2019-04-12T14:20:14Z</time>
      </trkpt>
      <trkpt lat="48.14458" lon="7.12598">
        <ele>956</ele>
        <time>2019-04-12T14:21:14Z</time>
      </trkpt>
      <trkpt lat="48.14462" lon="7.12613">
        <ele>956</ele>
        <time>2019-04-12T14:22:14Z</time>
      </trkpt>
      <trkpt lat="48.14469" lon="7.12631">
        <ele>957</ele>
        <time>2019-04-12T14:23:14Z</time>
      </trkpt>
      <trkpt lat="48.1447" lon="7.12643">
        <ele>956</ele>
        <time>2019-04-12T14:24:14Z</time>
      </trkpt>
      <trkpt lat="48.14468" lon="7.12663">
        <ele>955</ele>
        <time>2019-04-12T14:25:14Z</time>
      </trkpt>
      <trkpt lat="48.14468" lon="7.12686">
        <ele>954</ele>
        <time>2019-04-12T14:26:14Z</time>
      </trkpt>
      <trkpt lat="48.14471" lon="7.12722">
        <ele>953</ele>
        <time>2019-04-12T14:27:14Z</time>
      </trkpt>
      <trkpt lat="48.14471" lon="7.12722">
        <ele>953</ele>
        <time>2019-04-12T14:28:14Z</time>
      </trkpt>
      <trkpt lat="48.14474" lon="7.12721">
        <ele>954</ele>
        <time>2019-04-12T14:29:14Z</time>
      </trkpt>
      <trkpt lat="48.14477" lon="7.12721">
        <ele>955</ele>
        <time>2019-04-12T14:30:14Z</time>
      </trkpt>
      <trkpt lat="48.14479" lon="7.12722">
        <ele>955</ele>
        <time>2019-04-12T14:31:14Z</time>
      </trkpt>
      <trkpt lat="48.14481" lon="7.12723">
        <ele>956</ele>
        <time>2019-04-12T14:32:14Z</time>
      </trkpt>
      <trkpt lat="48.14486" lon="7.1273">
        <ele>957</ele>
        <time>2019-04-12T14:33:14Z</time>
      </trkpt>
      <trkpt lat="48.14494" lon="7.12759">
        <ele>958</ele>
        <time>2019-04-12T14:34:14Z</time>
      </trkpt>
      <trkpt lat="48.14499" lon="7.1278">
        <ele>959</ele>
        <time>2019-04-12T14:35:14Z</time>
      </trkpt>
      <trkpt lat="48.14511" lon="7.12809">
        <ele>962</ele>
        <time>2019-04-12T14:36:14Z</time>
      </trkpt>
      <trkpt lat="48.14528" lon="7.12853">
        <ele>965</ele>
        <time>2019-04-12T14:37:14Z</time>
      </trkpt>
      <trkpt lat="48.14536" lon="7.12871">
        <ele>966</ele>
        <time>2019-04-12T14:38:14Z</time>
      </trkpt>
      <trkpt lat="48.14546" lon="7.12878">
        <ele>969</ele>
        <time>2019-04-12T14:39:14Z</time>
      </trkpt>
      <trkpt lat="48.14546" lon="7.12878">
        <ele>969</ele>
        <time>2019-04-12T14:40:14Z</time>
      </trkpt>
      <trkpt lat="48.14549" lon="7.12854">
        <ele>970</ele>
        <time>2019-04-12T14:41:14Z</time>
      </trkpt>
      <trkpt lat="48.14553" lon="7.12801">
        <ele>973</ele>
        <time>2019-04-12T14:42:14Z</time>
      </trkpt>
      <trkpt lat="48.14552" lon="7.12777">
        <ele>974</ele>
        <time>2019-04-12T14:43:14Z</time>
      </trkpt>
      <trkpt lat="48.14555" lon="7.12771">
        <ele>975</ele>
        <time>2019-04-12T14:44:14Z</time>
      </trkpt>
      <trkpt lat="48.14555" lon="7.12771">
        <ele>975</ele>
        <time>2019-04-12T14:45:14Z</time>
      </trkpt>
      <trkpt lat="48.14558" lon="7.1277">
        <ele>976</ele>
        <time>2019-04-12T14:46:14Z</time>
      </trkpt>
      <trkpt lat="48.14561" lon="7.12771">
        <ele>977</ele>
        <time>2019-04-12T14:47:14Z</time>
      </trkpt>
      <trkpt lat="48.14564" lon="7.12774">
        <ele>977</ele>
        <time>2019-04-12T14:48:14Z</time>
      </trkpt>
      <trkpt lat="48.14572" lon="7.12798">
        <ele>979</ele>
        <time>2019-04-12T14:49:14Z</time>
      </trkpt>
      <trkpt lat="48.14594" lon="7.12874">
        <ele>982</ele>
        <time>2019-04-12T14:50:14Z</time>
      </trkpt>
      <trkpt lat="48.14624" lon="7.12962">
        <ele>989</ele>
        <time>2019-04-12T14:51:14Z</time>
      </trkpt>
      <trkpt lat="48.14652" lon="7.13046">
        <ele>995</ele>
        <time>2019-04-12T14:52:14Z</time>
      </trkpt>
      <trkpt lat="48.14672" lon="7.13104">
        <ele>999</ele>
        <time>2019-04-12T14:53:14Z</time>
      </trkpt>
      <trkpt lat="48.1468" lon="7.13125">
        <ele>1001</ele>
        <time>2019-04-12T14:54:14Z</time>
      </trkpt>
      <trkpt lat="48.147" lon="7.13165">
        <ele>1004</ele>
        <time>2019-04-12T14:55:14Z</time>
      </trkpt>
      <trkpt lat="48.14729" lon="7.13215">
        <ele>1008</ele>
        <time>2019-04-12T14:56:14Z</time>
      </trkpt>
      <trkpt lat="48.14762" lon="7.1325">
        <ele>1013</ele>
        <time>2019-04-12T14:57:14Z</time>
      </trkpt>
      <trkpt lat="48.14786" lon="7.13265">
        <ele>1015</ele>
        <time>2019-04-12T14:58:14Z</time>
      </trkpt>
      <trkpt lat="48.14811" lon="7.13277">
        <ele>1018</ele>
        <time>2019-04-12T14:59:14Z</time>
      </trkpt>
      <trkpt lat="48.14847" lon="7.1328">
        <ele>1023</ele>
        <time>2019-04-12T15:00:14Z</time>
      </trkpt>
      <trkpt lat="48.14898" lon="7.13278">
        <ele>1029</ele>
        <time>2019-04-12T15:01:14Z</time>
      </trkpt>
      <trkpt lat="48.1494" lon="7.13281">
        <ele>1034</ele>
        <time>2019-04-12T15:02:14Z</time>
      </trkpt>
      <trkpt lat="48.14965" lon="7.13281">
        <ele>1038</ele>
        <time>2019-04-12T15:03:14Z</time>
      </trkpt>
      <trkpt lat="48.14981" lon="7.13281">
        <ele>1040</ele>
        <time>2019-04-12T15:04:14Z</time>
      </trkpt>
      <trkpt lat="48.15" lon="7.13282">
        <ele>1043</ele>
        <time>2019-04-12T15:05:14Z</time>
      </trkpt>
      <trkpt lat="48.15016" lon="7.13286">
        <ele>1045</ele>
        <time>2019-04-12T15:06:14Z</time>
      </trkpt>
      <trkpt lat="48.15045" lon="7.13307">
        <ele>1045</ele>
        <time>2019-04-12T15:07:14Z</time>
      </trkpt>
      <trkpt lat="48.15091" lon="7.13341">
        <ele>1045</ele>
        <time>2019-04-12T15:08:14Z</time>
      </trkpt>
      <trkpt lat="48.15142" lon="7.13382">
        <ele>1042</ele>
        <time>2019-04-12T15:09:14Z</time>
      </trkpt>
      <trkpt lat="48.15174" lon="7.13405">
        <ele>1043</ele>
        <time>2019-04-12T15:10:14Z</time>
      </trkpt>
      <trkpt lat="48.15174" lon="7.13405">
        <ele>1043</ele>
        <time>2019-04-12T15:11:14Z</time>
      </trkpt>
      <trkpt lat="48.15174" lon="7.13417">
        <ele>1041</ele>
        <time>2019-04-12T15:12:14Z</time>
      </trkpt>
      <trkpt lat="48.15176" lon="7.13421">
        <ele>1041</ele>
        <time>2019-04-12T15:13:14Z</time>
      </trkpt>
      <trkpt lat="48.15181" lon="7.13434">
        <ele>1039</ele>
        <time>2019-04-12T15:14:14Z</time>
      </trkpt>
      <trkpt lat="48.1521" lon="7.13467">
        <ele>1038</ele>
        <time>2019-04-12T15:15:14Z</time>
      </trkpt>
      <trkpt lat="48.15274" lon="7.13546">
        <ele>1032</ele>
        <time>2019-04-12T15:16:14Z</time>
      </trkpt>
      <trkpt lat="48.15326" lon="7.13611">
        <ele>1026</ele>
        <time>2019-04-12T15:17:14Z</time>
      </trkpt>
      <trkpt lat="48.15361" lon="7.13662">
        <ele>1019</ele>
        <time>2019-04-12T15:18:14Z</time>
      </trkpt>
      <trkpt lat="48.15371" lon="7.13683">
        <ele>1015</ele>
        <time>2019-04-12T15:19:14Z</time>
      </trkpt>
      <trkpt lat="48.1538" lon="7.13706">
        <ele>1010</ele>
        <time>2019-04-12T15:20:14Z</time>
      </trkpt>
      <trkpt lat="48.1538" lon="7.13706">
        <ele>1010</ele>
        <time>2019-04-12T15:21:14Z</time>
      </trkpt>
      <trkpt lat="48.15369" lon="7.13711">
        <ele>1007</ele>
        <time>2019-04-12T15:22:14Z</time>
      </trkpt>
      <trkpt lat="48.15358" lon="7.13711">
        <ele>1006</ele>
        <time>2019-04-12T15:23:14Z</time>
      </trkpt>
      <trkpt lat="48.15344" lon="7.13706">
        <ele>1005</ele>
        <time>2019-04-12T15:24:14Z</time>
      </trkpt>
      <trkpt lat="48.15304" lon="7.13655">
        <ele>1010</ele>
        <time>2019-04-12T15:25:14Z</time>
      </trkpt>
      <trkpt lat="48.15254" lon="7.13608">
        <ele>1011</ele>
        <time>2019-04-12T15:26:14Z</time>
      </trkpt>
      <trkpt lat="48.15223" lon="7.13584">
        <ele>1012</ele>
        <time>2019-04-12T15:27:14Z</time>
      </trkpt>
      <trkpt lat="48.1518" lon="7.13564">
        <ele>1010</ele>
        <time>2019-04-12T15:28:14Z</time>
      </trkpt>
      <trkpt lat="48.15138" lon="7.1355">
        <ele>1007</ele>
        <time>2019-04-12T15:29:14Z</time>
      </trkpt>
      <trkpt lat="48.15124" lon="7.13551">
        <ele>1005</ele>
        <time>2019-04-12T15:30:14Z</time>
      </trkpt>
      <trkpt lat="48.15117" lon="7.13557">
        <ele>1002</ele>
        <time>2019-04-12T15:31:14Z</time>
      </trkpt>
      <trkpt lat="48.15114" lon="7.13566">
        <ele>1000</ele>
        <time>2019-04-12T15:32:14Z</time>
      </trkpt>
      <trkpt lat="48.15117" lon="7.1358">
        <ele>996</ele>
        <time>2019-04-12T15:33:14Z</time>
      </trkpt>
      <trkpt lat="48.15123" lon="7.13587">
        <ele>995</ele>
        <time>2019-04-12T15:34:14Z</time>
      </trkpt>
      <trkpt lat="48.15132" lon="7.13593">
        <ele>993</ele>
        <time>2019-04-12T15:35:14Z</time>
      </trkpt>
      <trkpt lat="48.15172" lon="7.13614">
        <ele>992</ele>
        <time>2019-04-12T15:36:14Z</time>
      </trkpt>
      <trkpt lat="48.15216" lon="7.13652">
        <ele>990</ele>
        <time>2019-04-12T15:37:14Z</time>
      </trkpt>
      <trkpt lat="48.15234" lon="7.13674">
        <ele>989</ele>
        <time>2019-04-12T15:38:14Z</time>
      </trkpt>
      <trkpt lat="48.15256" lon="7.1371">
        <ele>986</ele>
        <time>2019-04-12T15:39:14Z</time>
      </trkpt>
      <trkpt lat="48.15283" lon="7.13764">
        <ele>978</ele>
        <time>2019-04-12T15:40:14Z</time>
      </trkpt>
      <trkpt lat="48.15297" lon="7.13784">
        <ele>975</ele>
        <time>2019-04-12T15:41:14Z</time>
      </trkpt>
      <trkpt lat="48.15348" lon="7.13845">
        <ele>967</ele>
        <time>2019-04-12T15:42:14Z</time>
      </trkpt>
      <trkpt lat="48.15374" lon="7.13875">
        <ele>962</ele>
        <time>2019-04-12T15:43:14Z</time>
      </trkpt>
      <trkpt lat="48.15387" lon="7.13887">
        <ele>960</ele>
        <time>2019-04-12T15:44:14Z</time>
      </trkpt>
      <trkpt lat="48.15416" lon="7.13916">
        <ele>956</ele>
        <time>2019-04-12T15:45:14Z</time>
      </trkpt>
      <trkpt lat="48.1544" lon="7.13939">
        <ele>953</ele>
        <time>2019-04-12T15:46:14Z</time>
      </trkpt>
      <trkpt lat="48.1547" lon="7.13967">
        <ele>949</ele>
        <time>2019-04-12T15:47:14Z</time>
      </trkpt>
      <trkpt lat="48.15484" lon="7.13981">
        <ele>947</ele>
        <time>2019-04-12T15:48:14Z</time>
      </trkpt>
      <trkpt lat="48.15498" lon="7.13997">
        <ele>944</ele>
        <time>2019-04-12T15:49:14Z</time>
      </trkpt>
      <trkpt lat="48.15523" lon="7.14026">
        <ele>938</ele>
        <time>2019-04-12T15:50:14Z</time>
      </trkpt>
      <trkpt lat="48.15541" lon="7.14042">
        <ele>936</ele>
        <time>2019-04-12T15:51:14Z</time>
      </trkpt>
      <trkpt lat="48.15576" lon="7.14073">
        <ele>932</ele>
        <time>2019-04-12T15:52:14Z</time>
      </trkpt>
      <trkpt lat="48.15605" lon="7.14089">
        <ele>928</ele>
        <time>2019-04-12T15:53:14Z</time>
      </trkpt>
      <trkpt lat="48.15637" lon="7.14101">
        <ele>923</ele>
        <time>2019-04-12T15:54:14Z</time>
      </trkpt>
      <trkpt lat="48.15675" lon="7.14113">
        <ele>918</ele>
        <time>2019-04-12T15:55:14Z</time>
      </trkpt>
      <trkpt lat="48.15687" lon="7.14115">
        <ele>916</ele>
        <time>2019-04-12T15:56:14Z</time>
      </trkpt>
      <trkpt lat="48.15693" lon="7.14113">
        <ele>916</ele>
        <time>2019-04-12T15:57:14Z</time>
      </trkpt>
      <trkpt lat="48.1572" lon="7.14098">
        <ele>916</ele>
        <time>2019-04-12T15:58:14Z</time>
      </trkpt>
      <trkpt lat="48.1572" lon="7.14098">
        <ele>916</ele>
        <time>2019-04-12T15:59:14Z</time>
      </trkpt>
      <trkpt lat="48.15728" lon="7.14085">
        <ele>918</ele>
        <time>2019-04-12T16:00:14Z</time>
      </trkpt>
      <trkpt lat="48.15746" lon="7.14069">
        <ele>920</ele>
        <time>2019-04-12T16:01:14Z</time>
      </trkpt>
      <trkpt lat="48.15763" lon="7.14052">
        <ele>922</ele>
        <time>2019-04-12T16:02:14Z</time>
      </trkpt>
      <trkpt lat="48.15777" lon="7.14034">
        <ele>923</ele>
        <time>2019-04-12T16:03:14Z</time>
      </trkpt>
      <trkpt lat="48.15788" lon="7.14019">
        <ele>924</ele>
        <time>2019-04-12T16:04:14Z</time>
      </trkpt>
      <trkpt lat="48.15817" lon="7.13952">
        <ele>929</ele>
        <time>2019-04-12T16:05:14Z</time>
      </trkpt>
      <trkpt lat="48.15836" lon="7.13893">
        <ele>932</ele>
        <time>2019-04-12T16:06:14Z</time>
      </trkpt>
      <trkpt lat="48.15844" lon="7.13864">
        <ele>932</ele>
        <time>2019-04-12T16:07:14Z</time>
      </trkpt>
      <trkpt lat="48.1585" lon="7.13832">
        <ele>933</ele>
        <time>2019-04-12T16:08:14Z</time>
      </trkpt>
      <trkpt lat="48.15853" lon="7.13815">
        <ele>932</ele>
        <time>2019-04-12T16:09:14Z</time>
      </trkpt>
      <trkpt lat="48.1585" lon="7.13786">
        <ele>933</ele>
        <time>2019-04-12T16:10:14Z</time>
      </trkpt>
      <trkpt lat="48.15843" lon="7.13749">
        <ele>936</ele>
        <time>2019-04-12T16:11:14Z</time>
      </trkpt>
      <trkpt lat="48.15834" lon="7.13704">
        <ele>938</ele>
        <time>2019-04-12T16:12:14Z</time>
      </trkpt>
      <trkpt lat="48.15828" lon="7.13649">
        <ele>941</ele>
        <time>2019-04-12T16:13:14Z</time>
      </trkpt>
      <trkpt lat="48.15827" lon="7.136">
        <ele>942</ele>
        <time>2019-04-12T16:14:14Z</time>
      </trkpt>
      <trkpt lat="48.15819" lon="7.13534">
        <ele>946</ele>
        <time>2019-04-12T16:15:14Z</time>
      </trkpt>
      <trkpt lat="48.15811" lon="7.13464">
        <ele>951</ele>
        <time>2019-04-12T16:16:14Z</time>
      </trkpt>
      <trkpt lat="48.15799" lon="7.13381">
        <ele>956</ele>
        <time>2019-04-12T16:17:14Z</time>
      </trkpt>
      <trkpt lat="48.15787" lon="7.13339">
        <ele>959</ele>
        <time>2019-04-12T16:18:14Z</time>
      </trkpt>
      <trkpt lat="48.15775" lon="7.13291">
        <ele>960</ele>
        <time>2019-04-12T16:19:14Z</time>
      </trkpt>
      <trkpt lat="48.15762" lon="7.13257">
        <ele>962</ele>
        <time>2019-04-12T16:20:14Z</time>
      </trkpt>
      <trkpt lat="48.1576" lon="7.13234">
        <ele>962</ele>
        <time>2019-04-12T16:21:14Z</time>
      </trkpt>
      <trkpt lat="48.15753" lon="7.13202">
        <ele>963</ele>
        <time>2019-04-12T16:22:14Z</time>
      </trkpt>
      <trkpt lat="48.15751" lon="7.13183">
        <ele>963</ele>
        <time>2019-04-12T16:23:14Z</time>
      </trkpt>
      <trkpt lat="48.15753" lon="7.13126">
        <ele>960</ele>
        <time>2019-04-12T16:24:14Z</time>
      </trkpt>
      <trkpt lat="48.15755" lon="7.13039">
        <ele>955</ele>
        <time>2019-04-12T16:25:14Z</time>
      </trkpt>
      <trkpt lat="48.15754" lon="7.12989">
        <ele>953</ele>
        <time>2019-04-12T16:26:14Z</time>
      </trkpt>
      <trkpt lat="48.15752" lon="7.12972">
        <ele>952</ele>
        <time>2019-04-12T16:27:14Z</time>
      </trkpt>
      <trkpt lat="48.15743" lon="7.12922">
        <ele>952</ele>
        <time>2019-04-12T16:28:14Z</time>
      </trkpt>
      <trkpt lat="48.15735" lon="7.12887">
        <ele>950</ele>
        <time>2019-04-12T16:29:14Z</time>
      </trkpt>
      <trkpt lat="48.15734" lon="7.12875">
        <ele>949</ele>
        <time>2019-04-12T16:30:14Z</time>
      </trkpt>
      <trkpt lat="48.15737" lon="7.12846">
        <ele>945</ele>
        <time>2019-04-12T16:31:14Z</time>
      </trkpt>
      <trkpt lat="48.15737" lon="7.12846">
        <ele>945</ele>
        <time>2019-04-12T16:32:14Z</time>
      </trkpt>
      <trkpt lat="48.15724" lon="7.1283">
        <ele>946</ele>
        <time>2019-04-12T16:33:14Z</time>
      </trkpt>
      <trkpt lat="48.15719" lon="7.12819">
        <ele>947</ele>
        <time>2019-04-12T16:34:14Z</time>
      </trkpt>
      <trkpt lat="48.15717" lon="7.12808">
        <ele>946</ele>
        <time>2019-04-12T16:35:14Z</time>
      </trkpt>
      <trkpt lat="48.15718" lon="7.12799">
        <ele>946</ele>
        <time>2019-04-12T16:36:14Z</time>
      </trkpt>
      <trkpt lat="48.1572" lon="7.1279">
        <ele>945</ele>
        <time>2019-04-12T16:37:14Z</time>
      </trkpt>
      <trkpt lat="48.15722" lon="7.12785">
        <ele>945</ele>
        <time>2019-04-12T16:38:14Z</time>
      </trkpt>
      <trkpt lat="48.15724" lon="7.12782">
        <ele>945</ele>
        <time>2019-04-12T16:39:14Z</time>
      </trkpt>
      <trkpt lat="48.15728" lon="7.12779">
        <ele>945</ele>
        <time>2019-04-12T16:40:14Z</time>
      </trkpt>
      <trkpt lat="48.15731" lon="7.12778">
        <ele>945</ele>
        <time>2019-04-12T16:41:14Z</time>
      </trkpt>
      <trkpt lat="48.15735" lon="7.12779">
        <ele>945</ele>
        <time>2019-04-12T16:42:14Z</time>
      </trkpt>
      <trkpt lat="48.15739" lon="7.12782">
        <ele>944</ele>
        <time>2019-04-12T16:43:14Z</time>
      </trkpt>
      <trkpt lat="48.15742" lon="7.12784">
        <ele>944</ele>
        <time>2019-04-12T16:44:14Z</time>
      </trkpt>
      <trkpt lat="48.15749" lon="7.12791">
        <ele>943</ele>
        <time>2019-04-12T16:45:14Z</time>
      </trkpt>
      <trkpt lat="48.15765" lon="7.12807">
        <ele>941</ele>
        <time>2019-04-12T16:46:14Z</time>
      </trkpt>
      <trkpt lat="48.15771" lon="7.12809">
        <ele>940</ele>
        <time>2019-04-12T16:47:14Z</time>
      </trkpt>
      <trkpt lat="48.15779" lon="7.12809">
        <ele>939</ele>
        <time>2019-04-12T16:48:14Z</time>
      </trkpt>
      <trkpt lat="48.15788" lon="7.12806">
        <ele>939</ele>
        <time>2019-04-12T16:49:14Z</time>
      </trkpt>
      <trkpt lat="48.15797" lon="7.12799">
        <ele>941</ele>
        <time>2019-04-12T16:50:14Z</time>
      </trkpt>
      <trkpt lat="48.1581" lon="7.12782">
        <ele>946</ele>
        <time>2019-04-12T16:51:14Z</time>
      </trkpt>
      <trkpt lat="48.15822" lon="7.12766">
        <ele>952</ele>
        <time>2019-04-12T16:52:14Z</time>
      </trkpt>
      <trkpt lat="48.15831" lon="7.12763">
        <ele>954</ele>
        <time>2019-04-12T16:53:14Z</time>
      </trkpt>
      <trkpt lat="48.1584" lon="7.12763">
        <ele>954</ele>
        <time>2019-04-12T16:54:14Z</time>
      </trkpt>
      <trkpt lat="48.15866" lon="7.1277">
        <ele>948</ele>
        <time>2019-04-12T16:55:14Z</time>
      </trkpt>
      <trkpt lat="48.15872" lon="7.12767">
        <ele>948</ele>
        <time>2019-04-12T16:56:14Z</time>
      </trkpt>
      <trkpt lat="48.15878" lon="7.12761">
        <ele>950</ele>
        <time>2019-04-12T16:57:14Z</time>
      </trkpt>
      <trkpt lat="48.1589" lon="7.12737">
        <ele>956</ele>
        <time>2019-04-12T16:58:14Z</time>
      </trkpt>
      <trkpt lat="48.15907" lon="7.12703">
        <ele>964</ele>
        <time>2019-04-12T16:59:14Z</time>
      </trkpt>
      <trkpt lat="48.15922" lon="7.12687">
        <ele>967</ele>
        <time>2019-04-12T17:00:14Z</time>
      </trkpt>
      <trkpt lat="48.1593" lon="7.12679">
        <ele>969</ele>
        <time>2019-04-12T17:01:14Z</time>
      </trkpt>
      <trkpt lat="48.1594" lon="7.12678">
        <ele>968</ele>
        <time>2019-04-12T17:02:14Z</time>
      </trkpt>
      <trkpt lat="48.15952" lon="7.12678">
        <ele>967</ele>
        <time>2019-04-12T17:03:14Z</time>
      </trkpt>
      <trkpt lat="48.15963" lon="7.12682">
        <ele>965</ele>
        <time>2019-04-12T17:04:14Z</time>
      </trkpt>
      <trkpt lat="48.15991" lon="7.12695">
        <ele>959</ele>
        <time>2019-04-12T17:05:14Z</time>
      </trkpt>
      <trkpt lat="48.1602" lon="7.12699">
        <ele>956</ele>
        <time>2019-04-12T17:06:14Z</time>
      </trkpt>
      <trkpt lat="48.16054" lon="7.12703">
        <ele>954</ele>
        <time>2019-04-12T17:07:14Z</time>
      </trkpt>
      <trkpt lat="48.16076" lon="7.12705">
        <ele>953</ele>
        <time>2019-04-12T17:08:14Z</time>
      </trkpt>
      <trkpt lat="48.16076" lon="7.12705">
        <ele>953</ele>
        <time>2019-04-12T17:09:14Z</time>
      </trkpt>
      <trkpt lat="48.16099" lon="7.12702">
        <ele>953</ele>
        <time>2019-04-12T17:10:14Z</time>
      </trkpt>
      <trkpt lat="48.16115" lon="7.12703">
        <ele>952</ele>
        <time>2019-04-12T17:11:14Z</time>
      </trkpt>
      <trkpt lat="48.16128" lon="7.12706">
        <ele>951</ele>
        <time>2019-04-12T17:12:14Z</time>
      </trkpt>
      <trkpt lat="48.16131" lon="7.12705">
        <ele>951</ele>
        <time>2019-04-12T17:13:14Z</time>
      </trkpt>
      <trkpt lat="48.16149" lon="7.12696">
        <ele>952</ele>
        <time>2019-04-12T17:14:14Z</time>
      </trkpt>
      <trkpt lat="48.1616" lon="7.12696">
        <ele>952</ele>
        <time>2019-04-12T17:15:14Z</time>
      </trkpt>
      <trkpt lat="48.16168" lon="7.12696">
        <ele>952</ele>
        <time>2019-04-12T17:16:14Z</time>
      </trkpt>
      <trkpt lat="48.16171" lon="7.12697">
        <ele>952</ele>
        <time>2019-04-12T17:17:14Z</time>
      </trkpt>
      <trkpt lat="48.16174" lon="7.12699">
        <ele>952</ele>
        <time>2019-04-12T17:18:14Z</time>
      </trkpt>
      <trkpt lat="48.1618" lon="7.12709">
        <ele>951</ele>
        <time>2019-04-12T17:19:14Z</time>
      </trkpt>
      <trkpt lat="48.16183" lon="7.12717">
        <ele>950</ele>
        <time>2019-04-12T17:20:14Z</time>
      </trkpt>
      <trkpt lat="48.16188" lon="7.12723">
        <ele>949</ele>
        <time>2019-04-12T17:21:14Z</time>
      </trkpt>
      <trkpt lat="48.16193" lon="7.12727">
        <ele>949</ele>
        <time>2019-04-12T17:22:14Z</time>
      </trkpt>
      <trkpt lat="48.16201" lon="7.12733">
        <ele>949</ele>
        <time>2019-04-12T17:23:14Z</time>
      </trkpt>
      <trkpt lat="48.16214" lon="7.12741">
        <ele>949</ele>
        <time>2019-04-12T17:24:14Z</time>
      </trkpt>
      <trkpt lat="48.16216" lon="7.12741">
        <ele>949</ele>
        <time>2019-04-12T17:25:14Z</time>
      </trkpt>
      <trkpt lat="48.1622" lon="7.12741">
        <ele>949</ele>
        <time>2019-04-12T17:26:14Z</time>
      </trkpt>
      <trkpt lat="48.1623" lon="7.12741">
        <ele>950</ele>
        <time>2019-04-12T17:27:14Z</time>
      </trkpt>
      <trkpt lat="48.16238" lon="7.12735">
        <ele>952</ele>
        <time>2019-04-12T17:28:14Z</time>
      </trkpt>
      <trkpt lat="48.16257" lon="7.12715">
        <ele>957</ele>
        <time>2019-04-12T17:29:14Z</time>
      </trkpt>
      <trkpt lat="48.16267" lon="7.12697">
        <ele>960</ele>
        <time>2019-04-12T17:30:14Z</time>
      </trkpt>
      <trkpt lat="48.16274" lon="7.12675">
        <ele>964</ele>
        <time>2019-04-12T17:31:14Z</time>
      </trkpt>
      <trkpt lat="48.16277" lon="7.1266">
        <ele>965</ele>
        <time>2019-04-12T17:32:14Z</time>
      </trkpt>
      <trkpt lat="48.16274" lon="7.12647">
        <ele>965</ele>
        <time>2019-04-12T17:33:14Z</time>
      </trkpt>
      <trkpt lat="48.16266" lon="7.12627">
        <ele>966</ele>
        <time>2019-04-12T17:34:14Z</time>
      </trkpt>
      <trkpt lat="48.16257" lon="7.12617">
        <ele>966</ele>
        <time>2019-04-12T17:35:14Z</time>
      </trkpt>
      <trkpt lat="48.16242" lon="7.1261">
        <ele>966</ele>
        <time>2019-04-12T17:36:14Z</time>
      </trkpt>
      <trkpt lat="48.16213" lon="7.12594">
        <ele>967</ele>
        <time>2019-04-12T17:37:14Z</time>
      </trkpt>
      <trkpt lat="48.16175" lon="7.12576">
        <ele>969</ele>
        <time>2019-04-12T17:38:14Z</time>
      </trkpt>
      <trkpt lat="48.16127" lon="7.12534">
        <ele>979</ele>
        <time>2019-04-12T17:39:14Z</time>
      </trkpt>
      <trkpt lat="48.16054" lon="7.12475">
        <ele>996</ele>
        <time>2019-04-12T17:40:14Z</time>
      </trkpt>
      <trkpt lat="48.16054" lon="7.12475">
        <ele>996</ele>
        <time>2019-04-12T17:41:14Z</time>
      </trkpt>
      <trkpt lat="48.16075" lon="7.1238">
        <ele>994</ele>
        <time>2019-04-12T17:42:14Z</time>
      </trkpt>
      <trkpt lat="48.16084" lon="7.12266">
        <ele>993</ele>
        <time>2019-04-12T17:43:14Z</time>
      </trkpt>
      <trkpt lat="48.16091" lon="7.12202">
        <ele>992</ele>
        <time>2019-04-12T17:44:14Z</time>
      </trkpt>
      <trkpt lat="48.1609" lon="7.12159">
        <ele>992</ele>
        <time>2019-04-12T17:45:14Z</time>
      </trkpt>
      <trkpt lat="48.16086" lon="7.12093">
        <ele>991</ele>
        <time>2019-04-12T17:46:14Z</time>
      </trkpt>
      <trkpt lat="48.16081" lon="7.12043">
        <ele>995</ele>
        <time>2019-04-12T17:47:14Z</time>
      </trkpt>
      <trkpt lat="48.16084" lon="7.12013">
        <ele>996</ele>
        <time>2019-04-12T17:48:14Z</time>
      </trkpt>
      <trkpt lat="48.16088" lon="7.11987">
        <ele>997</ele>
        <time>2019-04-12T17:49:14Z</time>
      </trkpt>
      <trkpt lat="48.16096" lon="7.11962">
        <ele>998</ele>
        <time>2019-04-12T17:50:14Z</time>
      </trkpt>
      <trkpt lat="48.16109" lon="7.11936">
        <ele>997</ele>
        <time>2019-04-12T17:51:14Z</time>
      </trkpt>
      <trkpt lat="48.16122" lon="7.11912">
        <ele>997</ele>
        <time>2019-04-12T17:52:14Z</time>
      </trkpt>
      <trkpt lat="48.16136" lon="7.1189">
        <ele>998</ele>
        <time>2019-04-12T17:53:14Z</time>
      </trkpt>
      <trkpt lat="48.16146" lon="7.11876">
        <ele>999</ele>
        <time>2019-04-12T17:54:14Z</time>
      </trkpt>
      <trkpt lat="48.16162" lon="7.11863">
        <ele>998</ele>
        <time>2019-04-12T17:55:14Z</time>
      </trkpt>
      <trkpt lat="48.16183" lon="7.11849">
        <ele>997</ele>
        <time>2019-04-12T17:56:14Z</time>
      </trkpt>
      <trkpt lat="48.16205" lon="7.11834">
        <ele>996</ele>
        <time>2019-04-12T17:57:14Z</time>
      </trkpt>
      <trkpt lat="48.16221" lon="7.11818">
        <ele>997</ele>
        <time>2019-04-12T17:58:14Z</time>
      </trkpt>
      <trkpt lat="48.16237" lon="7.11801">
        <ele>998</ele>
        <time>2019-04-12T17:59:14Z</time>
      </trkpt>
      <trkpt lat="48.16245" lon="7.11789">
        <ele>1000</ele>
        <time>2019-04-12T18:00:14Z</time>
      </trkpt>
      <trkpt lat="48.16257" lon="7.11767">
        <ele>1001</ele>
        <time>2019-04-12T18:01:14Z</time>
      </trkpt>
      <trkpt lat="48.16263" lon="7.11742">
        <ele>1004</ele>
        <time>2019-04-12T18:02:14Z</time>
      </trkpt>
      <trkpt lat="48.1627" lon="7.11723">
        <ele>1004</ele>
        <time>2019-04-12T18:03:14Z</time>
      </trkpt>
      <trkpt lat="48.16274" lon="7.11704">
        <ele>1005</ele>
        <time>2019-04-12T18:04:14Z</time>
      </trkpt>
      <trkpt lat="48.16279" lon="7.1168">
        <ele>1007</ele>
        <time>2019-04-12T18:05:14Z</time>
      </trkpt>
      <trkpt lat="48.16281" lon="7.11665">
        <ele>1008</ele>
        <time>2019-04-12T18:06:14Z</time>
      </trkpt>
      <trkpt lat="48.16286" lon="7.1165">
        <ele>1007</ele>
        <time>2019-04-12T18:07:14Z</time>
      </trkpt>
      <trkpt lat="48.16293" lon="7.1163">
        <ele>1005</ele>
        <time>2019-04-12T18:08:14Z</time>
      </trkpt>
      <trkpt lat="48.16299" lon="7.11614">
        <ele>1004</ele>
        <time>2019-04-12T18:09:14Z</time>
      </trkpt>
      <trkpt lat="48.16302" lon="7.11595">
        <ele>1004</ele>
        <time>2019-04-12T18:10:14Z</time>
      </trkpt>
      <trkpt lat="48.16302" lon="7.11581">
        <ele>1005</ele>
        <time>2019-04-12T18:11:14Z</time>
      </trkpt>
      <trkpt lat="48.16301" lon="7.11574">
        <ele>1005</ele>
        <time>2019-04-12T18:12:14Z</time>
      </trkpt>
      <trkpt lat="48.16295" lon="7.11563">
        <ele>1007</ele>
        <time>2019-04-12T18:13:14Z</time>
      </trkpt>
      <trkpt lat="48.16286" lon="7.11555">
        <ele>1010</ele>
        <time>2019-04-12T18:14:14Z</time>
      </trkpt>
      <trkpt lat="48.16272" lon="7.11544">
        <ele>1014</ele>
        <time>2019-04-12T18:15:14Z</time>
      </trkpt>
      <trkpt lat="48.16259" lon="7.11538">
        <ele>1018</ele>
        <time>2019-04-12T18:16:14Z</time>
      </trkpt>
      <trkpt lat="48.16249" lon="7.11537">
        <ele>1021</ele>
        <time>2019-04-12T18:17:14Z</time>
      </trkpt>
      <trkpt lat="48.16231" lon="7.11539">
        <ele>1023</ele>
        <time>2019-04-12T18:18:14Z</time>
      </trkpt>
      <trkpt lat="48.1621" lon="7.11539">
        <ele>1024</ele>
        <time>2019-04-12T18:19:14Z</time>
      </trkpt>
      <trkpt lat="48.16198" lon="7.1154">
        <ele>1026</ele>
        <time>2019-04-12T18:20:14Z</time>
      </trkpt>
      <trkpt lat="48.1619" lon="7.11542">
        <ele>1026</ele>
        <time>2019-04-12T18:21:14Z</time>
      </trkpt>
      <trkpt lat="48.16183" lon="7.11542">
        <ele>1027</ele>
        <time>2019-04-12T18:22:14Z</time>
      </trkpt>
      <trkpt lat="48.16173" lon="7.11539">
        <ele>1028</ele>
        <time>2019-04-12T18:23:14Z</time>
      </trkpt>
      <trkpt lat="48.16158" lon="7.11532">
        <ele>1029</ele>
        <time>2019-04-12T18:24:14Z</time>
      </trkpt>
      <trkpt lat="48.16147" lon="7.11524">
        <ele>1030</ele>
        <time>2019-04-12T18:25:14Z</time>
      </trkpt>
      <trkpt lat="48.16146" lon="7.1152">
        <ele>1030</ele>
        <time>2019-04-12T18:26:14Z</time>
      </trkpt>
      <trkpt lat="48.16131" lon="7.11489">
        <ele>1030</ele>
        <time>2019-04-12T18:27:14Z</time>
      </trkpt>
      <trkpt lat="48.16112" lon="7.11459">
        <ele>1030</ele>
        <time>2019-04-12T18:28:14Z</time>
      </trkpt>
      <trkpt lat="48.16093" lon="7.11432">
        <ele>1030</ele>
        <time>2019-04-12T18:29:14Z</time>
      </trkpt>
      <trkpt lat="48.16071" lon="7.114">
        <ele>1032</ele>
        <time>2019-04-12T18:30:14Z</time>
      </trkpt>
      <trkpt lat="48.16052" lon="7.11371">
        <ele>1033</ele>
        <time>2019-04-12T18:31:14Z</time>
      </trkpt>
      <trkpt lat="48.16039" lon="7.1135">
        <ele>1033</ele>
        <time>2019-04-12T18:32:14Z</time>
      </trkpt>
      <trkpt lat="48.16032" lon="7.1133">
        <ele>1032</ele>
        <time>2019-04-12T18:33:14Z</time>
      </trkpt>
      <trkpt lat="48.16022" lon="7.11302">
        <ele>1031</ele>
        <time>2019-04-12T18:34:14Z</time>
      </trkpt>
      <trkpt lat="48.16011" lon="7.1127">
        <ele>1030</ele>
        <time>2019-04-12T18:35:14Z</time>
      </trkpt>
      <trkpt lat="48.15996" lon="7.11234">
        <ele>1029</ele>
        <time>2019-04-12T18:36:14Z</time>
      </trkpt>
      <trkpt lat="48.15983" lon="7.11192">
        <ele>1028</ele>
        <time>2019-04-12T18:37:14Z</time>
      </trkpt>
      <trkpt lat="48.15973" lon="7.11163">
        <ele>1027</ele>
        <time>2019-04-12T18:38:14Z</time>
      </trkpt>
      <trkpt lat="48.1596" lon="7.11133">
        <ele>1027</ele>
        <time>2019-04-12T18:39:14Z</time>
      </trkpt>
      <trkpt lat="48.15949" lon="7.11106">
        <ele>1027</ele>
        <time>2019-04-12T18:40:14Z</time>
      </trkpt>
      <trkpt lat="48.15948" lon="7.11102">
        <ele>1026</ele>
        <time>2019-04-12T18:41:14Z</time>
      </trkpt>
      <trkpt lat="48.15936" lon="7.11076">
        <ele>1026</ele>
        <time>2019-04-12T18:42:14Z</time>
      </trkpt>
      <trkpt lat="48.15926" lon="7.11049">
        <ele>1025</ele>
        <time>2019-04-12T18:43:14Z</time>
      </trkpt>
      <trkpt lat="48.15917" lon="7.11023">
        <ele>1024</ele>
        <time>2019-04-12T18:44:14Z</time>
      </trkpt>
      <trkpt lat="48.15909" lon="7.10999">
        <ele>1024</ele>
        <time>2019-04-12T18:45:14Z</time>
      </trkpt>
      <trkpt lat="48.15901" lon="7.10968">
        <ele>1022</ele>
        <time>2019-04-12T18:46:14Z</time>
      </trkpt>
      <trkpt lat="48.15892" lon="7.10937">
        <ele>1020</ele>
        <time>2019-04-12T18:47:14Z</time>
      </trkpt>
      <trkpt lat="48.15888" lon="7.10908">
        <ele>1018</ele>
        <time>2019-04-12T18:48:14Z</time>
      </trkpt>
      <trkpt lat="48.15879" lon="7.10872">
        <ele>1016</ele>
        <time>2019-04-12T18:49:14Z</time>
      </trkpt>
      <trkpt lat="48.15869" lon="7.10834">
        <ele>1015</ele>
        <time>2019-04-12T18:50:14Z</time>
      </trkpt>
      <trkpt lat="48.15861" lon="7.10803">
        <ele>1013</ele>
        <time>2019-04-12T18:51:14Z</time>
      </trkpt>
      <trkpt lat="48.15855" lon="7.10774">
        <ele>1010</ele>
        <time>2019-04-12T18:52:14Z</time>
      </trkpt>
      <trkpt lat="48.15846" lon="7.10743">
        <ele>1008</ele>
        <time>2019-04-12T18:53:14Z</time>
      </trkpt>
      <trkpt lat="48.15836" lon="7.10708">
        <ele>1004</ele>
        <time>2019-04-12T18:54:14Z</time>
      </trkpt>
      <trkpt lat="48.15828" lon="7.10678">
        <ele>1000</ele>
        <time>2019-04-12T18:55:14Z</time>
      </trkpt>
      <trkpt lat="48.15817" lon="7.10641">
        <ele>995</ele>
        <time>2019-04-12T18:56:14Z</time>
      </trkpt>
      <trkpt lat="48.15803" lon="7.10612">
        <ele>993</ele>
        <time>2019-04-12T18:57:14Z</time>
      </trkpt>
      <trkpt lat="48.15787" lon="7.10584">
        <ele>992</ele>
        <time>2019-04-12T18:58:14Z</time>
      </trkpt>
      <trkpt lat="48.15774" lon="7.10558">
        <ele>991</ele>
        <time>2019-04-12T18:59:14Z</time>
      </trkpt>
      <trkpt lat="48.15759" lon="7.10536">
        <ele>992</ele>
        <time>2019-04-12T19:00:14Z</time>
      </trkpt>
      <trkpt lat="48.15743" lon="7.10517">
        <ele>994</ele>
        <time>2019-04-12T19:01:14Z</time>
      </trkpt>
      <trkpt lat="48.15731" lon="7.10507">
        <ele>997</ele>
        <time>2019-04-12T19:02:14Z</time>
      </trkpt>
      <trkpt lat="48.15722" lon="7.10503">
        <ele>998</ele>
        <time>2019-04-12T19:03:14Z</time>
      </trkpt>
      <trkpt lat="48.15717" lon="7.10498">
        <ele>999</ele>
        <time>2019-04-12T19:04:14Z</time>
      </trkpt>
      <trkpt lat="48.15714" lon="7.10491">
        <ele>999</ele>
        <time>2019-04-12T19:05:14Z</time>
      </trkpt>
      <trkpt lat="48.15708" lon="7.10476">
        <ele>998</ele>
        <time>2019-04-12T19:06:14Z</time>
      </trkpt>
      <trkpt lat="48.157" lon="7.10472">
        <ele>1000</ele>
        <time>2019-04-12T19:07:14Z</time>
      </trkpt>
      <trkpt lat="48.15691" lon="7.10467">
        <ele>1002</ele>
        <time>2019-04-12T19:08:14Z</time>
      </trkpt>
      <trkpt lat="48.15675" lon="7.10454">
        <ele>1004</ele>
        <time>2019-04-12T19:09:14Z</time>
      </trkpt>
      <trkpt lat="48.15657" lon="7.10441">
        <ele>1007</ele>
        <time>2019-04-12T19:10:14Z</time>
      </trkpt>
      <trkpt lat="48.15636" lon="7.10426">
        <ele>1010</ele>
        <time>2019-04-12T19:11:14Z</time>
      </trkpt>
      <trkpt lat="48.1561" lon="7.10416">
        <ele>1015</ele>
        <time>2019-04-12T19:12:14Z</time>
      </trkpt>
      <trkpt lat="48.15598" lon="7.10404">
        <ele>1016</ele>
        <time>2019-04-12T19:13:14Z</time>
      </trkpt>
      <trkpt lat="48.1556" lon="7.1037">
        <ele>1017</ele>
        <time>2019-04-12T19:14:14Z</time>
      </trkpt>
      <trkpt lat="48.15534" lon="7.10347">
        <ele>1018</ele>
        <time>2019-04-12T19:15:14Z</time>
      </trkpt>
      <trkpt lat="48.15516" lon="7.10327">
        <ele>1018</ele>
        <time>2019-04-12T19:16:14Z</time>
      </trkpt>
      <trkpt lat="48.15502" lon="7.10316">
        <ele>1019</ele>
        <time>2019-04-12T19:17:14Z</time>
      </trkpt>
      <trkpt lat="48.1549" lon="7.10307">
        <ele>1019</ele>
        <time>2019-04-12T19:18:14Z</time>
      </trkpt>
      <trkpt lat="48.15466" lon="7.10296">
        <ele>1021</ele>
        <time>2019-04-12T19:19:14Z</time>
      </trkpt>
      <trkpt lat="48.15444" lon="7.10282">
        <ele>1022</ele>
        <time>2019-04-12T19:20:14Z</time>
      </trkpt>
      <trkpt lat="48.15399" lon="7.10246">
        <ele>1024</ele>
        <time>2019-04-12T19:21:14Z</time>
      </trkpt>
      <trkpt lat="48.15353" lon="7.10209">
        <ele>1025</ele>
        <time>2019-04-12T19:22:14Z</time>
      </trkpt>
      <trkpt lat="48.15318" lon="7.10179">
        <ele>1026</ele>
        <time>2019-04-12T19:23:14Z</time>
      </trkpt>
      <trkpt lat="48.15287" lon="7.10147">
        <ele>1026</ele>
        <time>2019-04-12T19:24:14Z</time>
      </trkpt>
      <trkpt lat="48.15249" lon="7.10114">
        <ele>1027</ele>
        <time>2019-04-12T19:25:14Z</time>
      </trkpt>
      <trkpt lat="48.15235" lon="7.10102">
        <ele>1028</ele>
        <time>2019-04-12T19:26:14Z</time>
      </trkpt>
      <trkpt lat="48.15225" lon="7.10093">
        <ele>1029</ele>
        <time>2019-04-12T19:27:14Z</time>
      </trkpt>
      <trkpt lat="48.15216" lon="7.10085">
        <ele>1029</ele>
        <time>2019-04-12T19:28:14Z</time>
      </trkpt>
      <trkpt lat="48.15202" lon="7.10064">
        <ele>1030</ele>
        <time>2019-04-12T19:29:14Z</time>
      </trkpt>
      <trkpt lat="48.15178" lon="7.10034">
        <ele>1034</ele>
        <time>2019-04-12T19:30:14Z</time>
      </trkpt>
      <trkpt lat="48.15169" lon="7.10019">
        <ele>1035</ele>
        <time>2019-04-12T19:31:14Z</time>
      </trkpt>
      <trkpt lat="48.1516" lon="7.09996">
        <ele>1037</ele>
        <time>2019-04-12T19:32:14Z</time>
      </trkpt>
      <trkpt lat="48.15156" lon="7.09984">
        <ele>1037</ele>
        <time>2019-04-12T19:33:14Z</time>
      </trkpt>
      <trkpt lat="48.15153" lon="7.09973">
        <ele>1038</ele>
        <time>2019-04-12T19:34:14Z</time>
      </trkpt>
      <trkpt lat="48.15149" lon="7.09947">
        <ele>1037</ele>
        <time>2019-04-12T19:35:14Z</time>
      </trkpt>
      <trkpt lat="48.15142" lon="7.09902">
        <ele>1036</ele>
        <time>2019-04-12T19:36:14Z</time>
      </trkpt>
      <trkpt lat="48.15137" lon="7.09876">
        <ele>1036</ele>
        <time>2019-04-12T19:37:14Z</time>
      </trkpt>
      <trkpt lat="48.15129" lon="7.09846">
        <ele>1037</ele>
        <time>2019-04-12T19:38:14Z</time>
      </trkpt>
      <trkpt lat="48.15108" lon="7.09782">
        <ele>1037</ele>
        <time>2019-04-12T19:39:14Z</time>
      </trkpt>
      <trkpt lat="48.15095" lon="7.09754">
        <ele>1038</ele>
        <time>2019-04-12T19:40:14Z</time>
      </trkpt>
      <trkpt lat="48.15085" lon="7.09737">
        <ele>1038</ele>
        <time>2019-04-12T19:41:14Z</time>
      </trkpt>
      <trkpt lat="48.15063" lon="7.097">
        <ele>1038</ele>
        <time>2019-04-12T19:42:14Z</time>
      </trkpt>
      <trkpt lat="48.15052" lon="7.09678">
        <ele>1038</ele>
        <time>2019-04-12T19:43:14Z</time>
      </trkpt>
      <trkpt lat="48.15026" lon="7.09638">
        <ele>1037</ele>
        <time>2019-04-12T19:44:14Z</time>
      </trkpt>
      <trkpt lat="48.15015" lon="7.09627">
        <ele>1038</ele>
        <time>2019-04-12T19:45:14Z</time>
      </trkpt>
      <trkpt lat="48.14993" lon="7.0961">
        <ele>1038</ele>
        <time>2019-04-12T19:46:14Z</time>
      </trkpt>
      <trkpt lat="48.14964" lon="7.096">
        <ele>1040</ele>
        <time>2019-04-12T19:47:14Z</time>
      </trkpt>
      <trkpt lat="48.14933" lon="7.09584">
        <ele>1042</ele>
        <time>2019-04-12T19:48:14Z</time>
      </trkpt>
      <trkpt lat="48.14897" lon="7.09552">
        <ele>1041</ele>
        <time>2019-04-12T19:49:14Z</time>
      </trkpt>
      <trkpt lat="48.1487" lon="7.09528">
        <ele>1041</ele>
        <time>2019-04-12T19:50:14Z</time>
      </trkpt>
      <trkpt lat="48.14858" lon="7.0952">
        <ele>1041</ele>
        <time>2019-04-12T19:51:14Z</time>
      </trkpt>
      <trkpt lat="48.14845" lon="7.09508">
        <ele>1041</ele>
        <time>2019-04-12T19:52:14Z</time>
      </trkpt>
      <trkpt lat="48.14818" lon="7.09476">
        <ele>1041</ele>
        <time>2019-04-12T19:53:14Z</time>
      </trkpt>
      <trkpt lat="48.14785" lon="7.09445">
        <ele>1044</ele>
        <time>2019-04-12T19:54:14Z</time>
      </trkpt>
      <trkpt lat="48.14769" lon="7.09426">
        <ele>1046</ele>
        <time>2019-04-12T19:55:14Z</time>
      </trkpt>
      <trkpt lat="48.14767" lon="7.09421">
        <ele>1046</ele>
        <time>2019-04-12T19:56:14Z</time>
      </trkpt>
      <trkpt lat="48.14766" lon="7.09416">
        <ele>1046</ele>
        <time>2019-04-12T19:57:14Z</time>
      </trkpt>
      <trkpt lat="48.14766" lon="7.09409">
        <ele>1045</ele>
        <time>2019-04-12T19:58:14Z</time>
      </trkpt>
      <trkpt lat="48.14767" lon="7.09394">
        <ele>1044</ele>
        <time>2019-04-12T19:59:14Z</time>
      </trkpt>
      <trkpt lat="48.14766" lon="7.09382">
        <ele>1044</ele>
        <time>2019-04-12T20:00:14Z</time>
      </trkpt>
      <trkpt lat="48.14764" lon="7.09365">
        <ele>1043</ele>
        <time>2019-04-12T20:01:14Z</time>
      </trkpt>
      <trkpt lat="48.14758" lon="7.0934">
        <ele>1044</ele>
        <time>2019-04-12T20:02:14Z</time>
      </trkpt>
      <trkpt lat="48.14745" lon="7.09304">
        <ele>1045</ele>
        <time>2019-04-12T20:03:14Z</time>
      </trkpt>
      <trkpt lat="48.14728" lon="7.09263">
        <ele>1046</ele>
        <time>2019-04-12T20:04:14Z</time>
      </trkpt>
      <trkpt lat="48.14716" lon="7.09237">
        <ele>1046</ele>
        <time>2019-04-12T20:05:14Z</time>
      </trkpt>
      <trkpt lat="48.14705" lon="7.09213">
        <ele>1046</ele>
        <time>2019-04-12T20:06:14Z</time>
      </trkpt>
      <trkpt lat="48.1469" lon="7.0919">
        <ele>1046</ele>
        <time>2019-04-12T20:07:14Z</time>
      </trkpt>
      <trkpt lat="48.14675" lon="7.0917">
        <ele>1047</ele>
        <time>2019-04-12T20:08:14Z</time>
      </trkpt>
      <trkpt lat="48.1466" lon="7.09145">
        <ele>1047</ele>
        <time>2019-04-12T20:09:14Z</time>
      </trkpt>
      <trkpt lat="48.14644" lon="7.09113">
        <ele>1048</ele>
        <time>2019-04-12T20:10:14Z</time>
      </trkpt>
      <trkpt lat="48.14617" lon="7.09063">
        <ele>1049</ele>
        <time>2019-04-12T20:11:14Z</time>
      </trkpt>
      <trkpt lat="48.14599" lon="7.09022">
        <ele>1048</ele>
        <time>2019-04-12T20:12:14Z</time>
      </trkpt>
      <trkpt lat="48.14563" lon="7.08966">
        <ele>1050</ele>
        <time>2019-04-12T20:13:14Z</time>
      </trkpt>
      <trkpt lat="48.14481" lon="7.08873">
        <ele>1054</ele>
        <time>2019-04-12T20:14:14Z</time>
      </trkpt>
      <trkpt lat="48.14446" lon="7.08821">
        <ele>1055</ele>
        <time>2019-04-12T20:15:14Z</time>
      </trkpt>
      <trkpt lat="48.14429" lon="7.08807">
        <ele>1057</ele>
        <time>2019-04-12T20:16:14Z</time>
      </trkpt>
      <trkpt lat="48.14413" lon="7.08795">
        <ele>1059</ele>
        <time>2019-04-12T20:17:14Z</time>
      </trkpt>
      <trkpt lat="48.14395" lon="7.08783">
        <ele>1059</ele>
        <time>2019-04-12T20:18:14Z</time>
      </trkpt>
      <trkpt lat="48.14379" lon="7.08772">
        <ele>1060</ele>
        <time>2019-04-12T20:19:14Z</time>
      </trkpt>
      <trkpt lat="48.14361" lon="7.08766">
        <ele>1061</ele>
        <time>2019-04-12T20:20:14Z</time>
      </trkpt>
      <trkpt lat="48.14345" lon="7.08762">
        <ele>1063</ele>
        <time>2019-04-12T20:21:14Z</time>
      </trkpt>
      <trkpt lat="48.14318" lon="7.08759">
        <ele>1066</ele>
        <time>2019-04-12T20:22:14Z</time>
      </trkpt>
      <trkpt lat="48.14298" lon="7.08758">
        <ele>1068</ele>
        <time>2019-04-12T20:23:14Z</time>
      </trkpt>
      <trkpt lat="48.14275" lon="7.08758">
        <ele>1071</ele>
        <time>2019-04-12T20:24:14Z</time>
      </trkpt>
      <trkpt lat="48.14233" lon="7.08772">
        <ele>1078</ele>
        <time>2019-04-12T20:25:14Z</time>
      </trkpt>
      <trkpt lat="48.14186" lon="7.08799">
        <ele>1089</ele>
        <time>2019-04-12T20:26:14Z</time>
      </trkpt>
      <trkpt lat="48.14145" lon="7.0884">
        <ele>1100</ele>
        <time>2019-04-12T20:27:14Z</time>
      </trkpt>
      <trkpt lat="48.14103" lon="7.08878">
        <ele>1112</ele>
        <time>2019-04-12T20:28:14Z</time>
      </trkpt>
      <trkpt lat="48.14082" lon="7.08887">
        <ele>1116</ele>
        <time>2019-04-12T20:29:14Z</time>
      </trkpt>
      <trkpt lat="48.14047" lon="7.08884">
        <ele>1117</ele>
        <time>2019-04-12T20:30:14Z</time>
      </trkpt>
      <trkpt lat="48.14018" lon="7.0889">
        <ele>1119</ele>
        <time>2019-04-12T20:31:14Z</time>
      </trkpt>
      <trkpt lat="48.13998" lon="7.08892">
        <ele>1120</ele>
        <time>2019-04-12T20:32:14Z</time>
      </trkpt>
      <trkpt lat="48.1397" lon="7.08894">
        <ele>1123</ele>
        <time>2019-04-12T20:33:14Z</time>
      </trkpt>
      <trkpt lat="48.1397" lon="7.08894">
        <ele>1123</ele>
        <time>2019-04-12T20:34:14Z</time>
      </trkpt>
      <trkpt lat="48.13968" lon="7.08898">
        <ele>1124</ele>
        <time>2019-04-12T20:35:14Z</time>
      </trkpt>
      <trkpt lat="48.13964" lon="7.08906">
        <ele>1126</ele>
        <time>2019-04-12T20:36:14Z</time>
      </trkpt>
      <trkpt lat="48.13964" lon="7.08906">
        <ele>1126</ele>
        <time>2019-04-12T20:37:14Z</time>
      </trkpt>
      <trkpt lat="48.13957" lon="7.08903">
        <ele>1126</ele>
        <time>2019-04-12T20:38:14Z</time>
      </trkpt>
      <trkpt lat="48.13931" lon="7.08889">
        <ele>1125</ele>
        <time>2019-04-12T20:39:14Z</time>
      </trkpt>
      <trkpt lat="48.139" lon="7.0887">
        <ele>1126</ele>
        <time>2019-04-12T20:40:14Z</time>
      </trkpt>
      <trkpt lat="48.13874" lon="7.08857">
        <ele>1129</ele>
        <time>2019-04-12T20:41:14Z</time>
      </trkpt>
      <trkpt lat="48.13848" lon="7.08844">
        <ele>1132</ele>
        <time>2019-04-12T20:42:14Z</time>
      </trkpt>
      <trkpt lat="48.13822" lon="7.08834">
        <ele>1134</ele>
        <time>2019-04-12T20:43:14Z</time>
      </trkpt>
      <trkpt lat="48.13799" lon="7.08821">
        <ele>1134</ele>
        <time>2019-04-12T20:44:14Z</time>
      </trkpt>
      <trkpt lat="48.1378" lon="7.08812">
        <ele>1134</ele>
        <time>2019-04-12T20:45:14Z</time>
      </trkpt>
      <trkpt lat="48.13765" lon="7.0881">
        <ele>1136</ele>
        <time>2019-04-12T20:46:14Z</time>
      </trkpt>
      <trkpt lat="48.13752" lon="7.08811">
        <ele>1137</ele>
        <time>2019-04-12T20:47:14Z</time>
      </trkpt>
      <trkpt lat="48.13743" lon="7.08816">
        <ele>1139</ele>
        <time>2019-04-12T20:48:14Z</time>
      </trkpt>
      <trkpt lat="48.13731" lon="7.08825">
        <ele>1141</ele>
        <time>2019-04-12T20:49:14Z</time>
      </trkpt>
      <trkpt lat="48.13717" lon="7.08837">
        <ele>1143</ele>
        <time>2019-04-12T20:50:14Z</time>
      </trkpt>
      <trkpt lat="48.13701" lon="7.08853">
        <ele>1145</ele>
        <time>2019-04-12T20:51:14Z</time>
      </trkpt>
      <trkpt lat="48.13688" lon="7.08865">
        <ele>1146</ele>
        <time>2019-04-12T20:52:14Z</time>
      </trkpt>
      <trkpt lat="48.13688" lon="7.08865">
        <ele>1146</ele>
        <time>2019-04-12T20:53:14Z</time>
      </trkpt>
      <trkpt lat="48.13687" lon="7.08873">
        <ele>1147</ele>
        <time>2019-04-12T20:54:14Z</time>
      </trkpt>
      <trkpt lat="48.13685" lon="7.08879">
        <ele>1147</ele>
        <time>2019-04-12T20:55:14Z</time>
      </trkpt>
      <trkpt lat="48.13683" lon="7.08881">
        <ele>1147</ele>
        <time>2019-04-12T20:56:14Z</time>
      </trkpt>
      <trkpt lat="48.13681" lon="7.08883">
        <ele>1147</ele>
        <time>2019-04-12T20:57:14Z</time>
      </trkpt>
      <trkpt lat="48.13677" lon="7.08884">
        <ele>1147</ele>
        <time>2019-04-12T20:58:14Z</time>
      </trkpt>
      <trkpt lat="48.13669" lon="7.08886">
        <ele>1148</ele>
        <time>2019-04-12T20:59:14Z</time>
      </trkpt>
      <trkpt lat="48.13655" lon="7.08886">
        <ele>1147</ele>
        <time>2019-04-12T21:00:14Z</time>
      </trkpt>
      <trkpt lat="48.13636" lon="7.08883">
        <ele>1147</ele>
        <time>2019-04-12T21:01:14Z</time>
      </trkpt>
      <trkpt lat="48.13636" lon="7.08883">
        <ele>1147</ele>
        <time>2019-04-12T21:02:14Z</time>
      </trkpt>
      <trkpt lat="48.13636" lon="7.08887">
        <ele>1147</ele>
        <time>2019-04-12T21:03:14Z</time>
      </trkpt>
      <trkpt lat="48.13636" lon="7.08901">
        <ele>1146</ele>
        <time>2019-04-12T21:04:14Z</time>
      </trkpt>
      <trkpt lat="48.13637" lon="7.08921">
        <ele>1146</ele>
        <time>2019-04-12T21:05:14Z</time>
      </trkpt>
      <trkpt lat="48.13638" lon="7.08928">
        <ele>1146</ele>
        <time>2019-04-12T21:06:14Z</time>
      </trkpt>
      <trkpt lat="48.13639" lon="7.08955">
        <ele>1146</ele>
        <time>2019-04-12T21:07:14Z</time>
      </trkpt>
      <trkpt lat="48.1364" lon="7.09">
        <ele>1147</ele>
        <time>2019-04-12T21:08:14Z</time>
      </trkpt>
      <trkpt lat="48.1364" lon="7.09037">
        <ele>1149</ele>
        <time>2019-04-12T21:09:14Z</time>
      </trkpt>
      <trkpt lat="48.13641" lon="7.09076">
        <ele>1151</ele>
        <time>2019-04-12T21:10:14Z</time>
      </trkpt>
      <trkpt lat="48.13642" lon="7.09115">
        <ele>1151</ele>
        <time>2019-04-12T21:11:14Z</time>
      </trkpt>
      <trkpt lat="48.13642" lon="7.09137">
        <ele>1151</ele>
        <time>2019-04-12T21:12:14Z</time>
      </trkpt>
      <trkpt lat="48.13641" lon="7.09168">
        <ele>1150</ele>
        <time>2019-04-12T21:13:14Z</time>
      </trkpt>
      <trkpt lat="48.13642" lon="7.09216">
        <ele>1148</ele>
        <time>2019-04-12T21:14:14Z</time>
      </trkpt>
      <trkpt lat="48.13643" lon="7.0924">
        <ele>1148</ele>
        <time>2019-04-12T21:15:14Z</time>
      </trkpt>
      <trkpt lat="48.13643" lon="7.09268">
        <ele>1148</ele>
        <time>2019-04-12T21:16:14Z</time>
      </trkpt>
      <trkpt lat="48.13642" lon="7.0929">
        <ele>1148</ele>
        <time>2019-04-12T21:17:14Z</time>
      </trkpt>
      <trkpt lat="48.13639" lon="7.09317">
        <ele>1148</ele>
        <time>2019-04-12T21:18:14Z</time>
      </trkpt>
      <trkpt lat="48.13636" lon="7.09341">
        <ele>1148</ele>
        <time>2019-04-12T21:19:14Z</time>
      </trkpt>
      <trkpt lat="48.1363" lon="7.09377">
        <ele>1148</ele>
        <time>2019-04-12T21:20:14Z</time>
      </trkpt>
      <trkpt lat="48.13623" lon="7.09404">
        <ele>1147</ele>
        <time>2019-04-12T21:21:14Z</time>
      </trkpt>
      <trkpt lat="48.13614" lon="7.09438">
        <ele>1147</ele>
        <time>2019-04-12T21:22:14Z</time>
      </trkpt>
      <trkpt lat="48.13611" lon="7.09458">
        <ele>1147</ele>
        <time>2019-04-12T21:23:14Z</time>
      </trkpt>
      <trkpt lat="48.13611" lon="7.09478">
        <ele>1147</ele>
        <time>2019-04-12T21:24:14Z</time>
      </trkpt>
      <trkpt lat="48.13613" lon="7.09518">
        <ele>1148</ele>
        <time>2019-04-12T21:25:14Z</time>
      </trkpt>
      <trkpt lat="48.13615" lon="7.09552">
        <ele>1148</ele>
        <time>2019-04-12T21:26:14Z</time>
      </trkpt>
      <trkpt lat="48.13615" lon="7.09552">
        <ele>1148</ele>
        <time>2019-04-12T21:27:14Z</time>
      </trkpt>
      <trkpt lat="48.13624" lon="7.09561">
        <ele>1149</ele>
        <time>2019-04-12T21:28:14Z</time>
      </trkpt>
      <trkpt lat="48.13641" lon="7.09586">
        <ele>1151</ele>
        <time>2019-04-12T21:29:14Z</time>
      </trkpt>
      <trkpt lat="48.13656" lon="7.09604">
        <ele>1153</ele>
        <time>2019-04-12T21:30:14Z</time>
      </trkpt>
      <trkpt lat="48.1367" lon="7.09618">
        <ele>1154</ele>
        <time>2019-04-12T21:31:14Z</time>
      </trkpt>
      <trkpt lat="48.13677" lon="7.09628">
        <ele>1155</ele>
        <time>2019-04-12T21:32:14Z</time>
      </trkpt>
      <trkpt lat="48.13694" lon="7.0966">
        <ele>1156</ele>
        <time>2019-04-12T21:33:14Z</time>
      </trkpt>
      <trkpt lat="48.13711" lon="7.09698">
        <ele>1159</ele>
        <time>2019-04-12T21:34:14Z</time>
      </trkpt>
      <trkpt lat="48.1373" lon="7.09738">
        <ele>1161</ele>
        <time>2019-04-12T21:35:14Z</time>
      </trkpt>
      <trkpt lat="48.13741" lon="7.09768">
        <ele>1162</ele>
        <time>2019-04-12T21:36:14Z</time>
      </trkpt>
      <trkpt lat="48.13775" lon="7.09838">
        <ele>1162</ele>
        <time>2019-04-12T21:37:14Z</time>
      </trkpt>
      <trkpt lat="48.13787" lon="7.09861">
        <ele>1162</ele>
        <time>2019-04-12T21:38:14Z</time>
      </trkpt>
      <trkpt lat="48.138" lon="7.09878">
        <ele>1162</ele>
        <time>2019-04-12T21:39:14Z</time>
      </trkpt>
      <trkpt lat="48.13823" lon="7.09894">
        <ele>1165</ele>
        <time>2019-04-12T21:40:14Z</time>
      </trkpt>
      <trkpt lat="48.13861" lon="7.09921">
        <ele>1167</ele>
        <time>2019-04-12T21:41:14Z</time>
      </trkpt>
      <trkpt lat="48.13892" lon="7.09949">
        <ele>1169</ele>
        <time>2019-04-12T21:42:14Z</time>
      </trkpt>
      <trkpt lat="48.13895" lon="7.09952">
        <ele>1169</ele>
        <time>2019-04-12T21:43:14Z</time>
      </trkpt>
      <trkpt lat="48.13922" lon="7.09981">
        <ele>1169</ele>
        <time>2019-04-12T21:44:14Z</time>
      </trkpt>
      <trkpt lat="48.13976" lon="7.10036">
        <ele>1171</ele>
        <time>2019-04-12T21:45:14Z</time>
      </trkpt>
      <trkpt lat="48.13996" lon="7.10045">
        <ele>1172</ele>
        <time>2019-04-12T21:46:14Z</time>
      </trkpt>
      <trkpt lat="48.14003" lon="7.10042">
        <ele>1172</ele>
        <time>2019-04-12T21:47:14Z</time>
      </trkpt>
      <trkpt lat="48.14014" lon="7.10048">
        <ele>1172</ele>
        <time>2019-04-12T21:48:14Z</time>
      </trkpt>
      <trkpt lat="48.14044" lon="7.10049">
        <ele>1171</ele>
        <time>2019-04-12T21:49:14Z</time>
      </trkpt>
      <trkpt lat="48.14063" lon="7.10047">
        <ele>1170</ele>
        <time>2019-04-12T21:50:14Z</time>
      </trkpt>
      <trkpt lat="48.14092" lon="7.10042">
        <ele>1169</ele>
        <time>2019-04-12T21:51:14Z</time>
      </trkpt>
      <trkpt lat="48.14137" lon="7.1003">
        <ele>1164</ele>
        <time>2019-04-12T21:52:14Z</time>
      </trkpt>
      <trkpt lat="48.14168" lon="7.10028">
        <ele>1162</ele>
        <time>2019-04-12T21:53:14Z</time>
      </trkpt>
      <trkpt lat="48.14192" lon="7.10029">
        <ele>1160</ele>
        <time>2019-04-12T21:54:14Z</time>
      </trkpt>
      <trkpt lat="48.142" lon="7.10029">
        <ele>1160</ele>
        <time>2019-04-12T21:55:14Z</time>
      </trkpt>
      <trkpt lat="48.14212" lon="7.10029">
        <ele>1159</ele>
        <time>2019-04-12T21:56:14Z</time>
      </trkpt>
      <trkpt lat="48.14242" lon="7.10034">
        <ele>1158</ele>
        <time>2019-04-12T21:57:14Z</time>
      </trkpt>
      <trkpt lat="48.14284" lon="7.10041">
        <ele>1154</ele>
        <time>2019-04-12T21:58:14Z</time>
      </trkpt>
      <trkpt lat="48.14341" lon="7.10049">
        <ele>1147</ele>
        <time>2019-04-12T21:59:14Z</time>
      </trkpt>
      <trkpt lat="48.14397" lon="7.10056">
        <ele>1141</ele>
        <time>2019-04-12T22:00:14Z</time>
      </trkpt>
      <trkpt lat="48.14458" lon="7.10068">
        <ele>1134</ele>
        <time>2019-04-12T22:01:14Z</time>
      </trkpt>
      <trkpt lat="48.14494" lon="7.1007">
        <ele>1129</ele>
        <time>2019-04-12T22:02:14Z</time>
      </trkpt>
      <trkpt lat="48.14537" lon="7.101">
        <ele>1126</ele>
        <time>2019-04-12T22:03:14Z</time>
      </trkpt>
      <trkpt lat="48.14576" lon="7.10122">
        <ele>1123</ele>
        <time>2019-04-12T22:04:14Z</time>
      </trkpt>
      <trkpt lat="48.14609" lon="7.10138">
        <ele>1122</ele>
        <time>2019-04-12T22:05:14Z</time>
      </trkpt>
      <trkpt lat="48.14646" lon="7.10156">
        <ele>1120</ele>
        <time>2019-04-12T22:06:14Z</time>
      </trkpt>
      <trkpt lat="48.14674" lon="7.10171">
        <ele>1118</ele>
        <time>2019-04-12T22:07:14Z</time>
      </trkpt>
      <trkpt lat="48.14709" lon="7.10186">
        <ele>1120</ele>
        <time>2019-04-12T22:08:14Z</time>
      </trkpt>
      <trkpt lat="48.14709" lon="7.10186">
        <ele>1120</ele>
        <time>2019-04-12T22:09:14Z</time>
      </trkpt>
      <trkpt lat="48.14733" lon="7.10237">
        <ele>1121</ele>
        <time>2019-04-12T22:10:14Z</time>
      </trkpt>
      <trkpt lat="48.14769" lon="7.10312">
        <ele>1122</ele>
        <time>2019-04-12T22:11:14Z</time>
      </trkpt>
      <trkpt lat="48.14809" lon="7.10423">
        <ele>1124</ele>
        <time>2019-04-12T22:12:14Z</time>
      </trkpt>
      <trkpt lat="48.14841" lon="7.10496">
        <ele>1125</ele>
        <time>2019-04-12T22:13:14Z</time>
      </trkpt>
      <trkpt lat="48.14844" lon="7.10502">
        <ele>1125</ele>
        <time>2019-04-12T22:14:14Z</time>
      </trkpt>
      <trkpt lat="48.14844" lon="7.10502">
        <ele>1125</ele>
        <time>2019-04-12T22:15:14Z</time>
      </trkpt>
      <trkpt lat="48.14864" lon="7.10545">
        <ele>1126</ele>
        <time>2019-04-12T22:16:14Z</time>
      </trkpt>
      <trkpt lat="48.14877" lon="7.10577">
        <ele>1126</ele>
        <time>2019-04-12T22:17:14Z</time>
      </trkpt>
      <trkpt lat="48.14882" lon="7.10595">
        <ele>1127</ele>
        <time>2019-04-12T22:18:14Z</time>
      </trkpt>
      <trkpt lat="48.14886" lon="7.10625">
        <ele>1128</ele>
        <time>2019-04-12T22:19:14Z</time>
      </trkpt>
      <trkpt lat="48.14889" lon="7.1065">
        <ele>1129</ele>
        <time>2019-04-12T22:20:14Z</time>
      </trkpt>
      <trkpt lat="48.14891" lon="7.10682">
        <ele>1130</ele>
        <time>2019-04-12T22:21:14Z</time>
      </trkpt>
      <trkpt lat="48.14892" lon="7.10697">
        <ele>1131</ele>
        <time>2019-04-12T22:22:14Z</time>
      </trkpt>
      <trkpt lat="48.14893" lon="7.10712">
        <ele>1132</ele>
        <time>2019-04-12T22:23:14Z</time>
      </trkpt>
      <trkpt lat="48.14893" lon="7.10721">
        <ele>1132</ele>
        <time>2019-04-12T22:24:14Z</time>
      </trkpt>
      <trkpt lat="48.14891" lon="7.10733">
        <ele>1132</ele>
        <time>2019-04-12T22:25:14Z</time>
      </trkpt>
      <trkpt lat="48.14887" lon="7.10742">
        <ele>1133</ele>
        <time>2019-04-12T22:26:14Z</time>
      </trkpt>
      <trkpt lat="48.14885" lon="7.10746">
        <ele>1133</ele>
        <time>2019-04-12T22:27:14Z</time>
      </trkpt>
      <trkpt lat="48.14872" lon="7.10762">
        <ele>1132</ele>
        <time>2019-04-12T22:28:14Z</time>
      </trkpt>
      <trkpt lat="48.14859" lon="7.1077">
        <ele>1132</ele>
        <time>2019-04-12T22:29:14Z</time>
      </trkpt>
      <trkpt lat="48.14842" lon="7.10775">
        <ele>1131</ele>
        <time>2019-04-12T22:30:14Z</time>
      </trkpt>
      <trkpt lat="48.14825" lon="7.10776">
        <ele>1131</ele>
        <time>2019-04-12T22:31:14Z</time>
      </trkpt>
      <trkpt lat="48.1481" lon="7.10775">
        <ele>1130</ele>
        <time>2019-04-12T22:32:14Z</time>
      </trkpt>
      <trkpt lat="48.14797" lon="7.10771">
        <ele>1129</ele>
        <time>2019-04-12T22:33:14Z</time>
      </trkpt>
      <trkpt lat="48.14782" lon="7.10769">
        <ele>1129</ele>
        <time>2019-04-12T22:34:14Z</time>
      </trkpt>
      <trkpt lat="48.14774" lon="7.10772">
        <ele>1128</ele>
        <time>2019-04-12T22:35:14Z</time>
      </trkpt>
      <trkpt lat="48.14757" lon="7.1078">
        <ele>1127</ele>
        <time>2019-04-12T22:36:14Z</time>
      </trkpt>
      <trkpt lat="48.1474" lon="7.10795">
        <ele>1125</ele>
        <time>2019-04-12T22:37:14Z</time>
      </trkpt>
      <trkpt lat="48.14729" lon="7.10807">
        <ele>1123</ele>
        <time>2019-04-12T22:38:14Z</time>
      </trkpt>
      <trkpt lat="48.14729" lon="7.10807">
        <ele>1123</ele>
        <time>2019-04-12T22:39:14Z</time>
      </trkpt>
      <trkpt lat="48.14713" lon="7.10809">
        <ele>1123</ele>
        <time>2019-04-12T22:40:14Z</time>
      </trkpt>
      <trkpt lat="48.14666" lon="7.10824">
        <ele>1121</ele>
        <time>2019-04-12T22:41:14Z</time>
      </trkpt>
      <trkpt lat="48.14644" lon="7.10829">
        <ele>1124</ele>
        <time>2019-04-12T22:42:14Z</time>
      </trkpt>
      <trkpt lat="48.14629" lon="7.10833">
        <ele>1125</ele>
        <time>2019-04-12T22:43:14Z</time>
      </trkpt>
      <trkpt lat="48.14597" lon="7.10849">
        <ele>1128</ele>
        <time>2019-04-12T22:44:14Z</time>
      </trkpt>
      <trkpt lat="48.14555" lon="7.10878">
        <ele>1129</ele>
        <time>2019-04-12T22:45:14Z</time>
      </trkpt>
      <trkpt lat="48.14516" lon="7.10906">
        <ele>1131</ele>
        <time>2019-04-12T22:46:14Z</time>
      </trkpt>
      <trkpt lat="48.14452" lon="7.10957">
        <ele>1135</ele>
        <time>2019-04-12T22:47:14Z</time>
      </trkpt>
      <trkpt lat="48.14401" lon="7.10996">
        <ele>1138</ele>
        <time>2019-04-12T22:48:14Z</time>
      </trkpt>
      <trkpt lat="48.14361" lon="7.11022">
        <ele>1139</ele>
        <time>2019-04-12T22:49:14Z</time>
      </trkpt>
      <trkpt lat="48.14325" lon="7.11037">
        <ele>1140</ele>
        <time>2019-04-12T22:50:14Z</time>
      </trkpt>
      <trkpt lat="48.14292" lon="7.11043">
        <ele>1141</ele>
        <time>2019-04-12T22:51:14Z</time>
      </trkpt>
      <trkpt lat="48.14259" lon="7.11041">
        <ele>1144</ele>
        <time>2019-04-12T22:52:14Z</time>
      </trkpt>
      <trkpt lat="48.14231" lon="7.11033">
        <ele>1144</ele>
        <time>2019-04-12T22:53:14Z</time>
      </trkpt>
      <trkpt lat="48.14198" lon="7.11019">
        <ele>1145</ele>
        <time>2019-04-12T22:54:14Z</time>
      </trkpt>
      <trkpt lat="48.14161" lon="7.10998">
        <ele>1145</ele>
        <time>2019-04-12T22:55:14Z</time>
      </trkpt>
      <trkpt lat="48.1414" lon="7.10974">
        <ele>1146</ele>
        <time>2019-04-12T22:56:14Z</time>
      </trkpt>
      <trkpt lat="48.141" lon="7.10929">
        <ele>1146</ele>
        <time>2019-04-12T22:57:14Z</time>
      </trkpt>
      <trkpt lat="48.14079" lon="7.10896">
        <ele>1147</ele>
        <time>2019-04-12T22:58:14Z</time>
      </trkpt>
      <trkpt lat="48.14045" lon="7.10856">
        <ele>1147</ele>
        <time>2019-04-12T22:59:14Z</time>
      </trkpt>
      <trkpt lat="48.14001" lon="7.10805">
        <ele>1147</ele>
        <time>2019-04-12T23:00:14Z</time>
      </trkpt>
      <trkpt lat="48.13957" lon="7.10745">
        <ele>1145</ele>
        <time>2019-04-12T23:01:14Z</time>
      </trkpt>
      <trkpt lat="48.1393" lon="7.10705">
        <ele>1143</ele>
        <time>2019-04-12T23:02:14Z</time>
      </trkpt>
      <trkpt lat="48.13906" lon="7.1067">
        <ele>1141</ele>
        <time>2019-04-12T23:03:14Z</time>
      </trkpt>
      <trkpt lat="48.13888" lon="7.10631">
        <ele>1139</ele>
        <time>2019-04-12T23:04:14Z</time>
      </trkpt>
      <trkpt lat="48.13876" lon="7.10593">
        <ele>1139</ele>
        <time>2019-04-12T23:05:14Z</time>
      </trkpt>
      <trkpt lat="48.13864" lon="7.10539">
        <ele>1139</ele>
        <time>2019-04-12T23:06:14Z</time>
      </trkpt>
      <trkpt lat="48.13855" lon="7.1048">
        <ele>1140</ele>
        <time>2019-04-12T23:07:14Z</time>
      </trkpt>
      <trkpt lat="48.13844" lon="7.10423">
        <ele>1141</ele>
        <time>2019-04-12T23:08:14Z</time>
      </trkpt>
      <trkpt lat="48.13832" lon="7.10372">
        <ele>1140</ele>
        <time>2019-04-12T23:09:14Z</time>
      </trkpt>
      <trkpt lat="48.13823" lon="7.10331">
        <ele>1140</ele>
        <time>2019-04-12T23:10:14Z</time>
      </trkpt>
      <trkpt lat="48.13815" lon="7.10303">
        <ele>1139</ele>
        <time>2019-04-12T23:11:14Z</time>
      </trkpt>
      <trkpt lat="48.13812" lon="7.10291">
        <ele>1139</ele>
        <time>2019-04-12T23:12:14Z</time>
      </trkpt>
      <trkpt lat="48.1381" lon="7.10276">
        <ele>1140</ele>
        <time>2019-04-12T23:13:14Z</time>
      </trkpt>
      <trkpt lat="48.1381" lon="7.10276">
        <ele>1140</ele>
        <time>2019-04-12T23:14:14Z</time>
      </trkpt>
      <trkpt lat="48.13806" lon="7.10294">
        <ele>1138</ele>
        <time>2019-04-12T23:15:14Z</time>
      </trkpt>
      <trkpt lat="48.13806" lon="7.10303">
        <ele>1137</ele>
        <time>2019-04-12T23:16:14Z</time>
      </trkpt>
      <trkpt lat="48.13802" lon="7.1043">
        <ele>1130</ele>
        <time>2019-04-12T23:17:14Z</time>
      </trkpt>
      <trkpt lat="48.13802" lon="7.10488">
        <ele>1128</ele>
        <time>2019-04-12T23:18:14Z</time>
      </trkpt>
      <trkpt lat="48.13802" lon="7.10492">
        <ele>1127</ele>
        <time>2019-04-12T23:19:14Z</time>
      </trkpt>
      <trkpt lat="48.13798" lon="7.10529">
        <ele>1125</ele>
        <time>2019-04-12T23:20:14Z</time>
      </trkpt>
      <trkpt lat="48.13797" lon="7.10531">
        <ele>1124</ele>
        <time>2019-04-12T23:21:14Z</time>
      </trkpt>
      <trkpt lat="48.13764" lon="7.10539">
        <ele>1116</ele>
        <time>2019-04-12T23:22:14Z</time>
      </trkpt>
      <trkpt lat="48.13764" lon="7.10539">
        <ele>1116</ele>
        <time>2019-04-12T23:23:14Z</time>
      </trkpt>
      <trkpt lat="48.13797" lon="7.10531">
        <ele>1124</ele>
        <time>2019-04-12T23:24:14Z</time>
      </trkpt>
      <trkpt lat="48.13798" lon="7.10529">
        <ele>1125</ele>
        <time>2019-04-12T23:25:14Z</time>
      </trkpt>
      <trkpt lat="48.13802" lon="7.10492">
        <ele>1127</ele>
        <time>2019-04-12T23:26:14Z</time>
      </trkpt>
      <trkpt lat="48.13802" lon="7.10488">
        <ele>1128</ele>
        <time>2019-04-12T23:27:14Z</time>
      </trkpt>
      <trkpt lat="48.13802" lon="7.1043">
        <ele>1130</ele>
        <time>2019-04-12T23:28:14Z</time>
      </trkpt>
      <trkpt lat="48.13806" lon="7.10303">
        <ele>1137</ele>
        <time>2019-04-12T23:29:14Z</time>
      </trkpt>
      <trkpt lat="48.13806" lon="7.10294">
        <ele>1138</ele>
        <time>2019-04-12T23:30:14Z</time>
      </trkpt>
      <trkpt lat="48.1381" lon="7.10276">
        <ele>1140</ele>
        <time>2019-04-12T23:31:14Z</time>
      </trkpt>
      <trkpt lat="48.1381" lon="7.10276">
        <ele>1140</ele>
        <time>2019-04-12T23:32:14Z</time>
      </trkpt>
      <trkpt lat="48.13812" lon="7.10291">
        <ele>1139</ele>
        <time>2019-04-12T23:33:14Z</time>
      </trkpt>
      <trkpt lat="48.13815" lon="7.10303">
        <ele>1139</ele>
        <time>2019-04-12T23:34:14Z</time>
      </trkpt>
      <trkpt lat="48.13814" lon="7.10316">
        <ele>1138</ele>
        <time>2019-04-12T23:35:14Z</time>
      </trkpt>
      <trkpt lat="48.13816" lon="7.10342">
        <ele>1137</ele>
        <time>2019-04-12T23:36:14Z</time>
      </trkpt>
      <trkpt lat="48.13817" lon="7.10362">
        <ele>1137</ele>
        <time>2019-04-12T23:37:14Z</time>
      </trkpt>
      <trkpt lat="48.13818" lon="7.10382">
        <ele>1136</ele>
        <time>2019-04-12T23:38:14Z</time>
      </trkpt>
      <trkpt lat="48.13815" lon="7.10408">
        <ele>1134</ele>
        <time>2019-04-12T23:39:14Z</time>
      </trkpt>
      <trkpt lat="48.13811" lon="7.10428">
        <ele>1132</ele>
        <time>2019-04-12T23:40:14Z</time>
      </trkpt>
      <trkpt lat="48.13807" lon="7.10459">
        <ele>1130</ele>
        <time>2019-04-12T23:41:14Z</time>
      </trkpt>
      <trkpt lat="48.13806" lon="7.10462">
        <ele>1130</ele>
        <time>2019-04-12T23:42:14Z</time>
      </trkpt>
      <trkpt lat="48.13807" lon="7.10489">
        <ele>1129</ele>
        <time>2019-04-12T23:43:14Z</time>
      </trkpt>
      <trkpt lat="48.13807" lon="7.10505">
        <ele>1128</ele>
        <time>2019-04-12T23:44:14Z</time>
      </trkpt>
      <trkpt lat="48.13804" lon="7.10525">
        <ele>1126</ele>
        <time>2019-04-12T23:45:14Z</time>
      </trkpt>
      <trkpt lat="48.13798" lon="7.10546">
        <ele>1124</ele>
        <time>2019-04-12T23:46:14Z</time>
      </trkpt>
      <trkpt lat="48.13794" lon="7.10596">
        <ele>1120</ele>
        <time>2019-04-12T23:47:14Z</time>
      </trkpt>
      <trkpt lat="48.13791" lon="7.10646">
        <ele>1117</ele>
        <time>2019-04-12T23:48:14Z</time>
      </trkpt>
      <trkpt lat="48.13792" lon="7.10712">
        <ele>1112</ele>
        <time>2019-04-12T23:49:14Z</time>
      </trkpt>
      <trkpt lat="48.13794" lon="7.10763">
        <ele>1108</ele>
        <time>2019-04-12T23:50:14Z</time>
      </trkpt>
      <trkpt lat="48.13796" lon="7.10796">
        <ele>1106</ele>
        <time>2019-04-12T23:51:14Z</time>
      </trkpt>
      <trkpt lat="48.13796" lon="7.10825">
        <ele>1103</ele>
        <time>2019-04-12T23:52:14Z</time>
      </trkpt>
      <trkpt lat="48.13803" lon="7.10894">
        <ele>1099</ele>
        <time>2019-04-12T23:53:14Z</time>
      </trkpt>
      <trkpt lat="48.13813" lon="7.10976">
        <ele>1093</ele>
        <time>2019-04-12T23:54:14Z</time>
      </trkpt>
      <trkpt lat="48.13817" lon="7.1101">
        <ele>1090</ele>
        <time>2019-04-12T23:55:14Z</time>
      </trkpt>
      <trkpt lat="48.13823" lon="7.11055">
        <ele>1086</ele>
        <time>2019-04-12T23:56:14Z</time>
      </trkpt>
      <trkpt lat="48.13833" lon="7.11123">
        <ele>1079</ele>
        <time>2019-04-12T23:57:14Z</time>
      </trkpt>
      <trkpt lat="48.13834" lon="7.11142">
        <ele>1077</ele>
        <time>2019-04-12T23:58:14Z</time>
      </trkpt>
      <trkpt lat="48.1384" lon="7.11163">
        <ele>1075</ele>
        <time>2019-04-12T23:59:14Z</time>
      </trkpt>
      <trkpt lat="48.13852" lon="7.11198">
        <ele>1072</ele>
        <time>2019-04-13T00:00:14Z</time>
      </trkpt>
      <trkpt lat="48.13861" lon="7.11217">
        <ele>1072</ele>
        <time>2019-04-13T00:01:14Z</time>
      </trkpt>
      <trkpt lat="48.13883" lon="7.1127">
        <ele>1068</ele>
        <time>2019-04-13T00:02:14Z</time>
      </trkpt>
      <trkpt lat="48.13922" lon="7.11353">
        <ele>1060</ele>
        <time>2019-04-13T00:03:14Z</time>
      </trkpt>
      <trkpt lat="48.13952" lon="7.11409">
        <ele>1055</ele>
        <time>2019-04-13T00:04:14Z</time>
      </trkpt>
      <trkpt lat="48.13976" lon="7.11467">
        <ele>1048</ele>
        <time>2019-04-13T00:05:14Z</time>
      </trkpt>
      <trkpt lat="48.13979" lon="7.11487">
        <ele>1045</ele>
        <time>2019-04-13T00:06:14Z</time>
      </trkpt>
      <trkpt lat="48.13984" lon="7.11517">
        <ele>1042</ele>
        <time>2019-04-13T00:07:14Z</time>
      </trkpt>
      <trkpt lat="48.13987" lon="7.1154">
        <ele>1040</ele>
        <time>2019-04-13T00:08:14Z</time>
      </trkpt>
      <trkpt lat="48.1399" lon="7.11564">
        <ele>1038</ele>
        <time>2019-04-13T00:09:14Z</time>
      </trkpt>
      <trkpt lat="48.13991" lon="7.11573">
        <ele>1038</ele>
        <time>2019-04-13T00:10:14Z</time>
      </trkpt>
      <trkpt lat="48.1399" lon="7.11585">
        <ele>1037</ele>
        <time>2019-04-13T00:11:14Z</time>
      </trkpt>
      <trkpt lat="48.1399" lon="7.11605">
        <ele>1035</ele>
        <time>2019-04-13T00:12:14Z</time>
      </trkpt>
      <trkpt lat="48.13986" lon="7.11631">
        <ele>1033</ele>
        <time>2019-04-13T00:13:14Z</time>
      </trkpt>
      <trkpt lat="48.1398" lon="7.11655">
        <ele>1031</ele>
        <time>2019-04-13T00:14:14Z</time>
      </trkpt>
      <trkpt lat="48.13984" lon="7.11699">
        <ele>1029</ele>
        <time>2019-04-13T00:15:14Z</time>
      </trkpt>
      <trkpt lat="48.13985" lon="7.11707">
        <ele>1029</ele>
        <time>2019-04-13T00:16:14Z</time>
      </trkpt>
      <trkpt lat="48.13987" lon="7.11715">
        <ele>1028</ele>
        <time>2019-04-13T00:17:14Z</time>
      </trkpt>
      <trkpt lat="48.13995" lon="7.11734">
        <ele>1028</ele>
        <time>2019-04-13T00:18:14Z</time>
      </trkpt>
      <trkpt lat="48.14019" lon="7.11783">
        <ele>1026</ele>
        <time>2019-04-13T00:19:14Z</time>
      </trkpt>
      <trkpt lat="48.14021" lon="7.11792">
        <ele>1025</ele>
        <time>2019-04-13T00:20:14Z</time>
      </trkpt>
      <trkpt lat="48.14028" lon="7.11813">
        <ele>1023</ele>
        <time>2019-04-13T00:21:14Z</time>
      </trkpt>
      <trkpt lat="48.14046" lon="7.11862">
        <ele>1018</ele>
        <time>2019-04-13T00:22:14Z</time>
      </trkpt>
      <trkpt lat="48.14053" lon="7.11892">
        <ele>1015</ele>
        <time>2019-04-13T00:23:14Z</time>
      </trkpt>
      <trkpt lat="48.14059" lon="7.11908">
        <ele>1013</ele>
        <time>2019-04-13T00:24:14Z</time>
      </trkpt>
      <trkpt lat="48.14065" lon="7.11918">
        <ele>1011</ele>
        <time>2019-04-13T00:25:14Z</time>
      </trkpt>
      <trkpt lat="48.14073" lon="7.11926">
        <ele>1010</ele>
        <time>2019-04-13T00:26:14Z</time>
      </trkpt>
      <trkpt lat="48.14077" lon="7.11927">
        <ele>1009</ele>
        <time>2019-04-13T00:27:14Z</time>
      </trkpt>
      <trkpt lat="48.14085" lon="7.11927">
        <ele>1009</ele>
        <time>2019-04-13T00:28:14Z</time>
      </trkpt>
      <trkpt lat="48.14094" lon="7.11925">
        <ele>1009</ele>
        <time>2019-04-13T00:29:14Z</time>
      </trkpt>
      <trkpt lat="48.14106" lon="7.11921">
        <ele>1009</ele>
        <time>2019-04-13T00:30:14Z</time>
      </trkpt>
      <trkpt lat="48.14118" lon="7.11922">
        <ele>1008</ele>
        <time>2019-04-13T00:31:14Z</time>
      </trkpt>
      <trkpt lat="48.1414" lon="7.11925">
        <ele>1005</ele>
        <time>2019-04-13T00:32:14Z</time>
      </trkpt>
      <trkpt lat="48.14155" lon="7.11928">
        <ele>1004</ele>
        <time>2019-04-13T00:33:14Z</time>
      </trkpt>
      <trkpt lat="48.14155" lon="7.11928">
        <ele>1004</ele>
        <time>2019-04-13T00:34:14Z</time>
      </trkpt>
      <trkpt lat="48.14154" lon="7.11935">
        <ele>1003</ele>
        <time>2019-04-13T00:35:14Z</time>
      </trkpt>
      <trkpt lat="48.14152" lon="7.1194">
        <ele>1002</ele>
        <time>2019-04-13T00:36:14Z</time>
      </trkpt>
      <trkpt lat="48.14133" lon="7.11966">
        <ele>999</ele>
        <time>2019-04-13T00:37:14Z</time>
      </trkpt>
      <trkpt lat="48.14104" lon="7.12007">
        <ele>993</ele>
        <time>2019-04-13T00:38:14Z</time>
      </trkpt>
      <trkpt lat="48.1409" lon="7.12035">
        <ele>987</ele>
        <time>2019-04-13T00:39:14Z</time>
      </trkpt>
      <trkpt lat="48.1407" lon="7.12072">
        <ele>980</ele>
        <time>2019-04-13T00:40:14Z</time>
      </trkpt>
      <trkpt lat="48.14052" lon="7.12101">
        <ele>975</ele>
        <time>2019-04-13T00:41:14Z</time>
      </trkpt>
      <trkpt lat="48.1404" lon="7.12124">
        <ele>971</ele>
        <time>2019-04-13T00:42:14Z</time>
      </trkpt>
      <trkpt lat="48.14012" lon="7.12159">
        <ele>967</ele>
        <time>2019-04-13T00:43:14Z</time>
      </trkpt>
      <trkpt lat="48.13999" lon="7.12173">
        <ele>966</ele>
        <time>2019-04-13T00:44:14Z</time>
      </trkpt>
      <trkpt lat="48.13981" lon="7.12197">
        <ele>961</ele>
        <time>2019-04-13T00:45:14Z</time>
      </trkpt>
      <trkpt lat="48.13953" lon="7.12233">
        <ele>954</ele>
        <time>2019-04-13T00:46:14Z</time>
      </trkpt>
      <trkpt lat="48.13929" lon="7.12261">
        <ele>950</ele>
        <time>2019-04-13T00:47:14Z</time>
      </trkpt>
      <trkpt lat="48.1391" lon="7.12285">
        <ele>945</ele>
        <time>2019-04-13T00:48:14Z</time>
      </trkpt>
      <trkpt lat="48.13898" lon="7.12302">
        <ele>941</ele>
        <time>2019-04-13T00:49:14Z</time>
      </trkpt>
      <trkpt lat="48.13886" lon="7.12312">
        <ele>939</ele>
        <time>2019-04-13T00:50:14Z</time>
      </trkpt>
      <trkpt lat="48.13864" lon="7.12325">
        <ele>935</ele>
        <time>2019-04-13T00:51:14Z</time>
      </trkpt>
      <trkpt lat="48.13844" lon="7.12337">
        <ele>932</ele>
        <time>2019-04-13T00:52:14Z</time>
      </trkpt>
      <trkpt lat="48.13805" lon="7.12364">
        <ele>925</ele>
        <time>2019-04-13T00:53:14Z</time>
      </trkpt>
      <trkpt lat="48.13763" lon="7.12391">
        <ele>918</ele>
        <time>2019-04-13T00:54:14Z</time>
      </trkpt>
      <trkpt lat="48.13738" lon="7.12412">
        <ele>913</ele>
        <time>2019-04-13T00:55:14Z</time>
      </trkpt>
      <trkpt lat="48.13711" lon="7.12442">
        <ele>908</ele>
        <time>2019-04-13T00:56:14Z</time>
      </trkpt>
      <trkpt lat="48.137" lon="7.12457">
        <ele>907</ele>
        <time>2019-04-13T00:57:14Z</time>
      </trkpt>
      <trkpt lat="48.13693" lon="7.12475">
        <ele>905</ele>
        <time>2019-04-13T00:58:14Z</time>
      </trkpt>
      <trkpt lat="48.1368" lon="7.12516">
        <ele>903</ele>
        <time>2019-04-13T00:59:14Z</time>
      </trkpt>
      <trkpt lat="48.13666" lon="7.12544">
        <ele>903</ele>
        <time>2019-04-13T01:00:14Z</time>
      </trkpt>
      <trkpt lat="48.13657" lon="7.12574">
        <ele>902</ele>
        <time>2019-04-13T01:01:14Z</time>
      </trkpt>
      <trkpt lat="48.13635" lon="7.12623">
        <ele>894</ele>
        <time>2019-04-13T01:02:14Z</time>
      </trkpt>
      <trkpt lat="48.13612" lon="7.12675">
        <ele>883</ele>
        <time>2019-04-13T01:03:14Z</time>
      </trkpt>
      <trkpt lat="48.13598" lon="7.12702">
        <ele>877</ele>
        <time>2019-04-13T01:04:14Z</time>
      </trkpt>
      <trkpt lat="48.13589" lon="7.12717">
        <ele>874</ele>
        <time>2019-04-13T01:05:14Z</time>
      </trkpt>
      <trkpt lat="48.13589" lon="7.12717">
        <ele>874</ele>
        <time>2019-04-13T01:06:14Z</time>
      </trkpt>
      <trkpt lat="48.13611" lon="7.12722">
        <ele>873</ele>
        <time>2019-04-13T01:07:14Z</time>
      </trkpt>
      <trkpt lat="48.1362" lon="7.12724">
        <ele>873</ele>
        <time>2019-04-13T01:08:14Z</time>
      </trkpt>
      <trkpt lat="48.13634" lon="7.12727">
        <ele>873</ele>
        <time>2019-04-13T01:09:14Z</time>
      </trkpt>
      <trkpt lat="48.13649" lon="7.12728">
        <ele>874</ele>
        <time>2019-04-13T01:10:14Z</time>
      </trkpt>
      <trkpt lat="48.13657" lon="7.12728">
        <ele>874</ele>
        <time>2019-04-13T01:11:14Z</time>
      </trkpt>
      <trkpt lat="48.13668" lon="7.12726">
        <ele>875</ele>
        <time>2019-04-13T01:12:14Z</time>
      </trkpt>
      <trkpt lat="48.13684" lon="7.12717">
        <ele>876</ele>
        <time>2019-04-13T01:13:14Z</time>
      </trkpt>
      <trkpt lat="48.13701" lon="7.12705">
        <ele>877</ele>
        <time>2019-04-13T01:14:14Z</time>
      </trkpt>
      <trkpt lat="48.13725" lon="7.12693">
        <ele>878</ele>
        <time>2019-04-13T01:15:14Z</time>
      </trkpt>
      <trkpt lat="48.13738" lon="7.12685">
        <ele>879</ele>
        <time>2019-04-13T01:16:14Z</time>
      </trkpt>
      <trkpt lat="48.13744" lon="7.12678">
        <ele>880</ele>
        <time>2019-04-13T01:17:14Z</time>
      </trkpt>
      <trkpt lat="48.1375" lon="7.12672">
        <ele>881</ele>
        <time>2019-04-13T01:18:14Z</time>
      </trkpt>
      <trkpt lat="48.13755" lon="7.1266">
        <ele>883</ele>
        <time>2019-04-13T01:19:14Z</time>
      </trkpt>
      <trkpt lat="48.13761" lon="7.12654">
        <ele>883</ele>
        <time>2019-04-13T01:20:14Z</time>
      </trkpt>
      <trkpt lat="48.13769" lon="7.12653">
        <ele>882</ele>
        <time>2019-04-13T01:21:14Z</time>
      </trkpt>
      <trkpt lat="48.13774" lon="7.12652">
        <ele>882</ele>
        <time>2019-04-13T01:22:14Z</time>
      </trkpt>
      <trkpt lat="48.13778" lon="7.12655">
        <ele>881</ele>
        <time>2019-04-13T01:23:14Z</time>
      </trkpt>
      <trkpt lat="48.13784" lon="7.12666">
        <ele>878</ele>
        <time>2019-04-13T01:24:14Z</time>
      </trkpt>
      <trkpt lat="48.13789" lon="7.12677">
        <ele>876</ele>
        <time>2019-04-13T01:25:14Z</time>
      </trkpt>
      <trkpt lat="48.13792" lon="7.12689">
        <ele>873</ele>
        <time>2019-04-13T01:26:14Z</time>
      </trkpt>
      <trkpt lat="48.13792" lon="7.127">
        <ele>871</ele>
        <time>2019-04-13T01:27:14Z</time>
      </trkpt>
      <trkpt lat="48.1379" lon="7.12717">
        <ele>867</ele>
        <time>2019-04-13T01:28:14Z</time>
      </trkpt>
      <trkpt lat="48.13785" lon="7.12738">
        <ele>863</ele>
        <time>2019-04-13T01:29:14Z</time>
      </trkpt>
      <trkpt lat="48.13784" lon="7.12756">
        <ele>860</ele>
        <time>2019-04-13T01:30:14Z</time>
      </trkpt>
      <trkpt lat="48.13784" lon="7.12771">
        <ele>856</ele>
        <time>2019-04-13T01:31:14Z</time>
      </trkpt>
      <trkpt lat="48.1378" lon="7.12789">
        <ele>853</ele>
        <time>2019-04-13T01:32:14Z</time>
      </trkpt>
      <trkpt lat="48.13773" lon="7.12802">
        <ele>851</ele>
        <time>2019-04-13T01:33:14Z</time>
      </trkpt>
      <trkpt lat="48.13764" lon="7.12818">
        <ele>848</ele>
        <time>2019-04-13T01:34:14Z</time>
      </trkpt>
      <trkpt lat="48.13754" lon="7.12837">
        <ele>846</ele>
        <time>2019-04-13T01:35:14Z</time>
      </trkpt>
      <trkpt lat="48.13746" lon="7.12844">
        <ele>845</ele>
        <time>2019-04-13T01:36:14Z</time>
      </trkpt>
      <trkpt lat="48.13739" lon="7.1285">
        <ele>845</ele>
        <time>2019-04-13T01:37:14Z</time>
      </trkpt>
      <trkpt lat="48.13722" lon="7.12861">
        <ele>844</ele>
        <time>2019-04-13T01:38:14Z</time>
      </trkpt>
      <trkpt lat="48.13704" lon="7.12872">
        <ele>844</ele>
        <time>2019-04-13T01:39:14Z</time>
      </trkpt>
      <trkpt lat="48.13684" lon="7.1288">
        <ele>845</ele>
        <time>2019-04-13T01:40:14Z</time>
      </trkpt>
      <trkpt lat="48.13663" lon="7.12883">
        <ele>847</ele>
        <time>2019-04-13T01:41:14Z</time>
      </trkpt>
      <trkpt lat="48.13649" lon="7.12883">
        <ele>848</ele>
        <time>2019-04-13T01:42:14Z</time>
      </trkpt>
      <trkpt lat="48.13617" lon="7.12887">
        <ele>850</ele>
        <time>2019-04-13T01:43:14Z</time>
      </trkpt>
      <trkpt lat="48.13596" lon="7.12888">
        <ele>851</ele>
        <time>2019-04-13T01:44:14Z</time>
      </trkpt>
      <trkpt lat="48.13586" lon="7.12885">
        <ele>852</ele>
        <time>2019-04-13T01:45:14Z</time>
      </trkpt>
      <trkpt lat="48.1356" lon="7.12872">
        <ele>850</ele>
        <time>2019-04-13T01:46:14Z</time>
      </trkpt>
      <trkpt lat="48.13548" lon="7.12869">
        <ele>849</ele>
        <time>2019-04-13T01:47:14Z</time>
      </trkpt>
      <trkpt lat="48.13537" lon="7.12877">
        <ele>848</ele>
        <time>2019-04-13T01:48:14Z</time>
      </trkpt>
      <trkpt lat="48.13535" lon="7.12883">
        <ele>847</ele>
        <time>2019-04-13T01:49:14Z</time>
      </trkpt>
      <trkpt lat="48.13531" lon="7.12895">
        <ele>846</ele>
        <time>2019-04-13T01:50:14Z</time>
      </trkpt>
      <trkpt lat="48.13523" lon="7.1291">
        <ele>844</ele>
        <time>2019-04-13T01:51:14Z</time>
      </trkpt>
      <trkpt lat="48.13512" lon="7.12931">
        <ele>840</ele>
        <time>2019-04-13T01:52:14Z</time>
      </trkpt>
      <trkpt lat="48.13495" lon="7.12947">
        <ele>836</ele>
        <time>2019-04-13T01:53:14Z</time>
      </trkpt>
      <trkpt lat="48.13478" lon="7.12952">
        <ele>832</ele>
        <time>2019-04-13T01:54:14Z</time>
      </trkpt>
      <trkpt lat="48.13463" lon="7.12956">
        <ele>828</ele>
        <time>2019-04-13T01:55:14Z</time>
      </trkpt>
      <trkpt lat="48.13455" lon="7.12955">
        <ele>826</ele>
        <time>2019-04-13T01:56:14Z</time>
      </trkpt>
      <trkpt lat="48.13433" lon="7.12951">
        <ele>821</ele>
        <time>2019-04-13T01:57:14Z</time>
      </trkpt>
      <trkpt lat="48.13433" lon="7.12951">
        <ele>821</ele>
        <time>2019-04-13T01:58:14Z</time>
      </trkpt>
      <trkpt lat="48.13434" lon="7.12959">
        <ele>820</ele>
        <time>2019-04-13T01:59:14Z</time>
      </trkpt>
      <trkpt lat="48.13437" lon="7.12976">
        <ele>819</ele>
        <time>2019-04-13T02:00:14Z</time>
      </trkpt>
      <trkpt lat="48.13439" lon="7.12992">
        <ele>818</ele>
        <time>2019-04-13T02:01:14Z</time>
      </trkpt>
      <trkpt lat="48.1344" lon="7.12999">
        <ele>817</ele>
        <time>2019-04-13T02:02:14Z</time>
      </trkpt>
      <trkpt lat="48.13437" lon="7.13004">
        <ele>816</ele>
        <time>2019-04-13T02:03:14Z</time>
      </trkpt>
      <trkpt lat="48.13433" lon="7.13005">
        <ele>815</ele>
        <time>2019-04-13T02:04:14Z</time>
      </trkpt>
      <trkpt lat="48.13428" lon="7.13005">
        <ele>813</ele>
        <time>2019-04-13T02:05:14Z</time>
      </trkpt>
      <trkpt lat="48.13413" lon="7.12996">
        <ele>811</ele>
        <time>2019-04-13T02:06:14Z</time>
      </trkpt>
      <trkpt lat="48.13397" lon="7.12987">
        <ele>808</ele>
        <time>2019-04-13T02:07:14Z</time>
      </trkpt>
      <trkpt lat="48.1338" lon="7.1298">
        <ele>804</ele>
        <time>2019-04-13T02:08:14Z</time>
      </trkpt>
      <trkpt lat="48.13366" lon="7.12969">
        <ele>802</ele>
        <time>2019-04-13T02:09:14Z</time>
      </trkpt>
      <trkpt lat="48.13355" lon="7.12957">
        <ele>800</ele>
        <time>2019-04-13T02:10:14Z</time>
      </trkpt>
      <trkpt lat="48.13346" lon="7.12938">
        <ele>799</ele>
        <time>2019-04-13T02:11:14Z</time>
      </trkpt>
      <trkpt lat="48.13331" lon="7.12906">
        <ele>798</ele>
        <time>2019-04-13T02:12:14Z</time>
      </trkpt>
      <trkpt lat="48.1332" lon="7.12879">
        <ele>797</ele>
        <time>2019-04-13T02:13:14Z</time>
      </trkpt>
      <trkpt lat="48.13313" lon="7.12865">
        <ele>796</ele>
        <time>2019-04-13T02:14:14Z</time>
      </trkpt>
      <trkpt lat="48.13305" lon="7.12847">
        <ele>795</ele>
        <time>2019-04-13T02:15:14Z</time>
      </trkpt>
      <trkpt lat="48.13297" lon="7.12835">
        <ele>793</ele>
        <time>2019-04-13T02:16:14Z</time>
      </trkpt>
      <trkpt lat="48.13297" lon="7.12835">
        <ele>793</ele>
        <time>2019-04-13T02:17:14Z</time>
      </trkpt>
      <trkpt lat="48.13278" lon="7.12597">
        <ele>809</ele>
        <time>2019-04-13T02:18:14Z</time>
      </trkpt>
      <trkpt lat="48.13247" lon="7.12422">
        <ele>818</ele>
        <time>2019-04-13T02:19:14Z</time>
      </trkpt>
      <trkpt lat="48.13238" lon="7.12352">
        <ele>816</ele>
        <time>2019-04-13T02:20:14Z</time>
      </trkpt>
      <trkpt lat="48.1324" lon="7.12296">
        <ele>814</ele>
        <time>2019-04-13T02:21:14Z</time>
      </trkpt>
      <trkpt lat="48.13245" lon="7.12222">
        <ele>812</ele>
        <time>2019-04-13T02:22:14Z</time>
      </trkpt>
      <trkpt lat="48.13251" lon="7.1217">
        <ele>813</ele>
        <time>2019-04-13T02:23:14Z</time>
      </trkpt>
      <trkpt lat="48.13259" lon="7.12146">
        <ele>815</ele>
        <time>2019-04-13T02:24:14Z</time>
      </trkpt>
      <trkpt lat="48.13268" lon="7.121">
        <ele>818</ele>
        <time>2019-04-13T02:25:14Z</time>
      </trkpt>
      <trkpt lat="48.13279" lon="7.12051">
        <ele>820</ele>
        <time>2019-04-13T02:26:14Z</time>
      </trkpt>
      <trkpt lat="48.13302" lon="7.11997">
        <ele>826</ele>
        <time>2019-04-13T02:27:14Z</time>
      </trkpt>
      <trkpt lat="48.13317" lon="7.11959">
        <ele>832</ele>
        <time>2019-04-13T02:28:14Z</time>
      </trkpt>
      <trkpt lat="48.13322" lon="7.11924">
        <ele>833</ele>
        <time>2019-04-13T02:29:14Z</time>
      </trkpt>
      <trkpt lat="48.13316" lon="7.11892">
        <ele>836</ele>
        <time>2019-04-13T02:30:14Z</time>
      </trkpt>
      <trkpt lat="48.13303" lon="7.1185">
        <ele>840</ele>
        <time>2019-04-13T02:31:14Z</time>
      </trkpt>
      <trkpt lat="48.13299" lon="7.11833">
        <ele>843</ele>
        <time>2019-04-13T02:32:14Z</time>
      </trkpt>
      <trkpt lat="48.13296" lon="7.11815">
        <ele>847</ele>
        <time>2019-04-13T02:33:14Z</time>
      </trkpt>
      <trkpt lat="48.13294" lon="7.11784">
        <ele>853</ele>
        <time>2019-04-13T02:34:14Z</time>
      </trkpt>
      <trkpt lat="48.13293" lon="7.11766">
        <ele>857</ele>
        <time>2019-04-13T02:35:14Z</time>
      </trkpt>
      <trkpt lat="48.13291" lon="7.11742">
        <ele>861</ele>
        <time>2019-04-13T02:36:14Z</time>
      </trkpt>
      <trkpt lat="48.13286" lon="7.11721">
        <ele>864</ele>
        <time>2019-04-13T02:37:14Z</time>
      </trkpt>
      <trkpt lat="48.1328" lon="7.11702">
        <ele>866</ele>
        <time>2019-04-13T02:38:14Z</time>
      </trkpt>
      <trkpt lat="48.13276" lon="7.11679">
        <ele>869</ele>
        <time>2019-04-13T02:39:14Z</time>
      </trkpt>
      <trkpt lat="48.13273" lon="7.11654">
        <ele>872</ele>
        <time>2019-04-13T02:40:14Z</time>
      </trkpt>
      <trkpt lat="48.13273" lon="7.11635">
        <ele>874</ele>
        <time>2019-04-13T02:41:14Z</time>
      </trkpt>
      <trkpt lat="48.1327" lon="7.11605">
        <ele>877</ele>
        <time>2019-04-13T02:42:14Z</time>
      </trkpt>
      <trkpt lat="48.13268" lon="7.11584">
        <ele>879</ele>
        <time>2019-04-13T02:43:14Z</time>
      </trkpt>
      <trkpt lat="48.13265" lon="7.1156">
        <ele>881</ele>
        <time>2019-04-13T02:44:14Z</time>
      </trkpt>
      <trkpt lat="48.13259" lon="7.11532">
        <ele>881</ele>
        <time>2019-04-13T02:45:14Z</time>
      </trkpt>
      <trkpt lat="48.13257" lon="7.11514">
        <ele>883</ele>
        <time>2019-04-13T02:46:14Z</time>
      </trkpt>
      <trkpt lat="48.13257" lon="7.11514">
        <ele>883</ele>
        <time>2019-04-13T02:47:14Z</time>
      </trkpt>
      <trkpt lat="48.13257" lon="7.11454">
        <ele>887</ele>
        <time>2019-04-13T02:48:14Z</time>
      </trkpt>
      <trkpt lat="48.13256" lon="7.11435">
        <ele>888</ele>
        <time>2019-04-13T02:49:14Z</time>
      </trkpt>
      <trkpt lat="48.13257" lon="7.11416">
        <ele>890</ele>
        <time>2019-04-13T02:50:14Z</time>
      </trkpt>
      <trkpt lat="48.13261" lon="7.11398">
        <ele>894</ele>
        <time>2019-04-13T02:51:14Z</time>
      </trkpt>
      <trkpt lat="48.13264" lon="7.11379">
        <ele>897</ele>
        <time>2019-04-13T02:52:14Z</time>
      </trkpt>
      <trkpt lat="48.13267" lon="7.11342">
        <ele>902</ele>
        <time>2019-04-13T02:53:14Z</time>
      </trkpt>
      <trkpt lat="48.13268" lon="7.1131">
        <ele>906</ele>
        <time>2019-04-13T02:54:14Z</time>
      </trkpt>
      <trkpt lat="48.1327" lon="7.11278">
        <ele>909</ele>
        <time>2019-04-13T02:55:14Z</time>
      </trkpt>
      <trkpt lat="48.13271" lon="7.11251">
        <ele>912</ele>
        <time>2019-04-13T02:56:14Z</time>
      </trkpt>
      <trkpt lat="48.13274" lon="7.11228">
        <ele>913</ele>
        <time>2019-04-13T02:57:14Z</time>
      </trkpt>
      <trkpt lat="48.13278" lon="7.112">
        <ele>914</ele>
        <time>2019-04-13T02:58:14Z</time>
      </trkpt>
      <trkpt lat="48.13282" lon="7.11184">
        <ele>916</ele>
        <time>2019-04-13T02:59:14Z</time>
      </trkpt>
      <trkpt lat="48.13293" lon="7.11153">
        <ele>920</ele>
        <time>2019-04-13T03:00:14Z</time>
      </trkpt>
      <trkpt lat="48.13302" lon="7.1112">
        <ele>923</ele>
        <time>2019-04-13T03:01:14Z</time>
      </trkpt>
      <trkpt lat="48.13303" lon="7.11106">
        <ele>923</ele>
        <time>2019-04-13T03:02:14Z</time>
      </trkpt>
      <trkpt lat="48.13304" lon="7.11101">
        <ele>923</ele>
        <time>2019-04-13T03:03:14Z</time>
      </trkpt>
      <trkpt lat="48.13304" lon="7.11096">
        <ele>923</ele>
        <time>2019-04-13T03:04:14Z</time>
      </trkpt>
      <trkpt lat="48.13304" lon="7.11089">
        <ele>923</ele>
        <time>2019-04-13T03:05:14Z</time>
      </trkpt>
      <trkpt lat="48.13304" lon="7.11069">
        <ele>925</ele>
        <time>2019-04-13T03:06:14Z</time>
      </trkpt>
      <trkpt lat="48.13303" lon="7.11043">
        <ele>928</ele>
        <time>2019-04-13T03:07:14Z</time>
      </trkpt>
      <trkpt lat="48.13302" lon="7.11024">
        <ele>931</ele>
        <time>2019-04-13T03:08:14Z</time>
      </trkpt>
      <trkpt lat="48.13298" lon="7.10999">
        <ele>933</ele>
        <time>2019-04-13T03:09:14Z</time>
      </trkpt>
      <trkpt lat="48.13293" lon="7.10972">
        <ele>934</ele>
        <time>2019-04-13T03:10:14Z</time>
      </trkpt>
      <trkpt lat="48.1329" lon="7.10956">
        <ele>934</ele>
        <time>2019-04-13T03:11:14Z</time>
      </trkpt>
      <trkpt lat="48.13288" lon="7.10937">
        <ele>935</ele>
        <time>2019-04-13T03:12:14Z</time>
      </trkpt>
      <trkpt lat="48.13289" lon="7.10921">
        <ele>937</ele>
        <time>2019-04-13T03:13:14Z</time>
      </trkpt>
      <trkpt lat="48.13289" lon="7.10907">
        <ele>938</ele>
        <time>2019-04-13T03:14:14Z</time>
      </trkpt>
      <trkpt lat="48.1329" lon="7.10893">
        <ele>940</ele>
        <time>2019-04-13T03:15:14Z</time>
      </trkpt>
      <trkpt lat="48.1329" lon="7.10878">
        <ele>941</ele>
        <time>2019-04-13T03:16:14Z</time>
      </trkpt>
      <trkpt lat="48.13289" lon="7.10851">
        <ele>943</ele>
        <time>2019-04-13T03:17:14Z</time>
      </trkpt>
      <trkpt lat="48.13287" lon="7.10829">
        <ele>944</ele>
        <time>2019-04-13T03:18:14Z</time>
      </trkpt>
      <trkpt lat="48.13289" lon="7.10817">
        <ele>946</ele>
        <time>2019-04-13T03:19:14Z</time>
      </trkpt>
      <trkpt lat="48.13272" lon="7.10752">
        <ele>950</ele>
        <time>2019-04-13T03:20:14Z</time>
      </trkpt>
      <trkpt lat="48.13263" lon="7.10724">
        <ele>953</ele>
        <time>2019-04-13T03:21:14Z</time>
      </trkpt>
      <trkpt lat="48.1321" lon="7.10637">
        <ele>961</ele>
        <time>2019-04-13T03:22:14Z</time>
      </trkpt>
      <trkpt lat="48.13184" lon="7.10593">
        <ele>965</ele>
        <time>2019-04-13T03:23:14Z</time>
      </trkpt>
      <trkpt lat="48.13175" lon="7.10576">
        <ele>966</ele>
        <time>2019-04-13T03:24:14Z</time>
      </trkpt>
      <trkpt lat="48.13169" lon="7.1056">
        <ele>968</ele>
        <time>2019-04-13T03:25:14Z</time>
      </trkpt>
      <trkpt lat="48.13165" lon="7.10548">
        <ele>969</ele>
        <time>2019-04-13T03:26:14Z</time>
      </trkpt>
      <trkpt lat="48.13159" lon="7.10536">
        <ele>971</ele>
        <time>2019-04-13T03:27:14Z</time>
      </trkpt>
      <trkpt lat="48.13152" lon="7.1052">
        <ele>972</ele>
        <time>2019-04-13T03:28:14Z</time>
      </trkpt>
      <trkpt lat="48.13147" lon="7.10508">
        <ele>974</ele>
        <time>2019-04-13T03:29:14Z</time>
      </trkpt>
      <trkpt lat="48.1314" lon="7.10487">
        <ele>976</ele>
        <time>2019-04-13T03:30:14Z</time>
      </trkpt>
      <trkpt lat="48.13135" lon="7.1047">
        <ele>979</ele>
        <time>2019-04-13T03:31:14Z</time>
      </trkpt>
      <trkpt lat="48.13129" lon="7.10451">
        <ele>981</ele>
        <time>2019-04-13T03:32:14Z</time>
      </trkpt>
      <trkpt lat="48.13123" lon="7.10431">
        <ele>984</ele>
        <time>2019-04-13T03:33:14Z</time>
      </trkpt>
      <trkpt lat="48.13116" lon="7.10407">
        <ele>987</ele>
        <time>2019-04-13T03:34:14Z</time>
      </trkpt>
      <trkpt lat="48.13113" lon="7.10388">
        <ele>990</ele>
        <time>2019-04-13T03:35:14Z</time>
      </trkpt>
      <trkpt lat="48.13112" lon="7.10372">
        <ele>992</ele>
        <time>2019-04-13T03:36:14Z</time>
      </trkpt>
      <trkpt lat="48.13113" lon="7.10355">
        <ele>995</ele>
        <time>2019-04-13T03:37:14Z</time>
      </trkpt>
      <trkpt lat="48.13113" lon="7.10337">
        <ele>998</ele>
        <time>2019-04-13T03:38:14Z</time>
      </trkpt>
      <trkpt lat="48.1311" lon="7.10324">
        <ele>1000</ele>
        <time>2019-04-13T03:39:14Z</time>
      </trkpt>
      <trkpt lat="48.13108" lon="7.10319">
        <ele>1000</ele>
        <time>2019-04-13T03:40:14Z</time>
      </trkpt>
      <trkpt lat="48.13105" lon="7.10316">
        <ele>1001</ele>
        <time>2019-04-13T03:41:14Z</time>
      </trkpt>
      <trkpt lat="48.131" lon="7.10314">
        <ele>1000</ele>
        <time>2019-04-13T03:42:14Z</time>
      </trkpt>
      <trkpt lat="48.13093" lon="7.10311">
        <ele>1000</ele>
        <time>2019-04-13T03:43:14Z</time>
      </trkpt>
      <trkpt lat="48.13089" lon="7.10306">
        <ele>1001</ele>
        <time>2019-04-13T03:44:14Z</time>
      </trkpt>
      <trkpt lat="48.13086" lon="7.10293">
        <ele>1003</ele>
        <time>2019-04-13T03:45:14Z</time>
      </trkpt>
      <trkpt lat="48.13086" lon="7.10293">
        <ele>1003</ele>
        <time>2019-04-13T03:46:14Z</time>
      </trkpt>
      <trkpt lat="48.13075" lon="7.10305">
        <ele>1001</ele>
        <time>2019-04-13T03:47:14Z</time>
      </trkpt>
      <trkpt lat="48.13062" lon="7.10322">
        <ele>998</ele>
        <time>2019-04-13T03:48:14Z</time>
      </trkpt>
      <trkpt lat="48.13052" lon="7.10338">
        <ele>995</ele>
        <time>2019-04-13T03:49:14Z</time>
      </trkpt>
      <trkpt lat="48.13043" lon="7.10352">
        <ele>992</ele>
        <time>2019-04-13T03:50:14Z</time>
      </trkpt>
      <trkpt lat="48.13031" lon="7.10362">
        <ele>990</ele>
        <time>2019-04-13T03:51:14Z</time>
      </trkpt>
      <trkpt lat="48.13019" lon="7.10371">
        <ele>988</ele>
        <time>2019-04-13T03:52:14Z</time>
      </trkpt>
      <trkpt lat="48.13006" lon="7.10376">
        <ele>987</ele>
        <time>2019-04-13T03:53:14Z</time>
      </trkpt>
      <trkpt lat="48.12996" lon="7.10377">
        <ele>987</ele>
        <time>2019-04-13T03:54:14Z</time>
      </trkpt>
      <trkpt lat="48.12984" lon="7.10375">
        <ele>987</ele>
        <time>2019-04-13T03:55:14Z</time>
      </trkpt>
      <trkpt lat="48.12973" lon="7.10371">
        <ele>987</ele>
        <time>2019-04-13T03:56:14Z</time>
      </trkpt>
      <trkpt lat="48.12964" lon="7.10371">
        <ele>987</ele>
        <time>2019-04-13T03:57:14Z</time>
      </trkpt>
      <trkpt lat="48.12951" lon="7.10369">
        <ele>986</ele>
        <time>2019-04-13T03:58:14Z</time>
      </trkpt>
      <trkpt lat="48.12937" lon="7.10368">
        <ele>986</ele>
        <time>2019-04-13T03:59:14Z</time>
      </trkpt>
      <trkpt lat="48.12926" lon="7.10371">
        <ele>985</ele>
        <time>2019-04-13T04:00:14Z</time>
      </trkpt>
      <trkpt lat="48.1292" lon="7.10375">
        <ele>984</ele>
        <time>2019-04-13T04:01:14Z</time>
      </trkpt>
      <trkpt lat="48.12917" lon="7.10383">
        <ele>982</ele>
        <time>2019-04-13T04:02:14Z</time>
      </trkpt>
      <trkpt lat="48.12917" lon="7.10392">
        <ele>981</ele>
        <time>2019-04-13T04:03:14Z</time>
      </trkpt>
      <trkpt lat="48.12921" lon="7.10408">
        <ele>978</ele>
        <time>2019-04-13T04:04:14Z</time>
      </trkpt>
      <trkpt lat="48.1293" lon="7.10425">
        <ele>976</ele>
        <time>2019-04-13T04:05:14Z</time>
      </trkpt>
      <trkpt lat="48.12936" lon="7.10438">
        <ele>974</ele>
        <time>2019-04-13T04:06:14Z</time>
      </trkpt>
      <trkpt lat="48.12939" lon="7.10451">
        <ele>972</ele>
        <time>2019-04-13T04:07:14Z</time>
      </trkpt>
      <trkpt lat="48.12939" lon="7.10469">
        <ele>969</ele>
        <time>2019-04-13T04:08:14Z</time>
      </trkpt>
      <trkpt lat="48.12934" lon="7.10483">
        <ele>967</ele>
        <time>2019-04-13T04:09:14Z</time>
      </trkpt>
      <trkpt lat="48.12922" lon="7.10491">
        <ele>966</ele>
        <time>2019-04-13T04:10:14Z</time>
      </trkpt>
      <trkpt lat="48.12909" lon="7.10497">
        <ele>965</ele>
        <time>2019-04-13T04:11:14Z</time>
      </trkpt>
      <trkpt lat="48.12897" lon="7.10502">
        <ele>963</ele>
        <time>2019-04-13T04:12:14Z</time>
      </trkpt>
      <trkpt lat="48.12883" lon="7.10506">
        <ele>961</ele>
        <time>2019-04-13T04:13:14Z</time>
      </trkpt>
      <trkpt lat="48.12869" lon="7.10507">
        <ele>959</ele>
        <time>2019-04-13T04:14:14Z</time>
      </trkpt>
      <trkpt lat="48.12851" lon="7.10506">
        <ele>957</ele>
        <time>2019-04-13T04:15:14Z</time>
      </trkpt>
      <trkpt lat="48.1283" lon="7.10502">
        <ele>954</ele>
        <time>2019-04-13T04:16:14Z</time>
      </trkpt>
      <trkpt lat="48.12813" lon="7.10504">
        <ele>952</ele>
        <time>2019-04-13T04:17:14Z</time>
      </trkpt>
      <trkpt lat="48.1281" lon="7.10505">
        <ele>952</ele>
        <time>2019-04-13T04:18:14Z</time>
      </trkpt>
      <trkpt lat="48.12805" lon="7.10505">
        <ele>951</ele>
        <time>2019-04-13T04:19:14Z</time>
      </trkpt>
      <trkpt lat="48.12768" lon="7.10502">
        <ele>948</ele>
        <time>2019-04-13T04:20:14Z</time>
      </trkpt>
      <trkpt lat="48.12749" lon="7.105">
        <ele>946</ele>
        <time>2019-04-13T04:21:14Z</time>
      </trkpt>
      <trkpt lat="48.12741" lon="7.10497">
        <ele>945</ele>
        <time>2019-04-13T04:22:14Z</time>
      </trkpt>
      <trkpt lat="48.1273" lon="7.10488">
        <ele>945</ele>
        <time>2019-04-13T04:23:14Z</time>
      </trkpt>
      <trkpt lat="48.12716" lon="7.10474">
        <ele>945</ele>
        <time>2019-04-13T04:24:14Z</time>
      </trkpt>
      <trkpt lat="48.12706" lon="7.10465">
        <ele>945</ele>
        <time>2019-04-13T04:25:14Z</time>
      </trkpt>
      <trkpt lat="48.12691" lon="7.10456">
        <ele>944</ele>
        <time>2019-04-13T04:26:14Z</time>
      </trkpt>
      <trkpt lat="48.12683" lon="7.10447">
        <ele>944</ele>
        <time>2019-04-13T04:27:14Z</time>
      </trkpt>
      <trkpt lat="48.12674" lon="7.10432">
        <ele>944</ele>
        <time>2019-04-13T04:28:14Z</time>
      </trkpt>
      <trkpt lat="48.12665" lon="7.10414">
        <ele>945</ele>
        <time>2019-04-13T04:29:14Z</time>
      </trkpt>
      <trkpt lat="48.12654" lon="7.104">
        <ele>945</ele>
        <time>2019-04-13T04:30:14Z</time>
      </trkpt>
      <trkpt lat="48.12643" lon="7.10392">
        <ele>945</ele>
        <time>2019-04-13T04:31:14Z</time>
      </trkpt>
      <trkpt lat="48.12626" lon="7.10386">
        <ele>943</ele>
        <time>2019-04-13T04:32:14Z</time>
      </trkpt>
      <trkpt lat="48.12606" lon="7.10385">
        <ele>940</ele>
        <time>2019-04-13T04:33:14Z</time>
      </trkpt>
      <trkpt lat="48.126" lon="7.10384">
        <ele>940</ele>
        <time>2019-04-13T04:34:14Z</time>
      </trkpt>
      <trkpt lat="48.12592" lon="7.1038">
        <ele>939</ele>
        <time>2019-04-13T04:35:14Z</time>
      </trkpt>
      <trkpt lat="48.12581" lon="7.10378">
        <ele>938</ele>
        <time>2019-04-13T04:36:14Z</time>
      </trkpt>
      <trkpt lat="48.12565" lon="7.10376">
        <ele>939</ele>
        <time>2019-04-13T04:37:14Z</time>
      </trkpt>
      <trkpt lat="48.12556" lon="7.10373">
        <ele>940</ele>
        <time>2019-04-13T04:38:14Z</time>
      </trkpt>
      <trkpt lat="48.12543" lon="7.10366">
        <ele>942</ele>
        <time>2019-04-13T04:39:14Z</time>
      </trkpt>
      <trkpt lat="48.12534" lon="7.10365">
        <ele>942</ele>
        <time>2019-04-13T04:40:14Z</time>
      </trkpt>
      <trkpt lat="48.12527" lon="7.10368">
        <ele>942</ele>
        <time>2019-04-13T04:41:14Z</time>
      </trkpt>
      <trkpt lat="48.1252" lon="7.10378">
        <ele>942</ele>
        <time>2019-04-13T04:42:14Z</time>
      </trkpt>
      <trkpt lat="48.12517" lon="7.10392">
        <ele>941</ele>
        <time>2019-04-13T04:43:14Z</time>
      </trkpt>
      <trkpt lat="48.12512" lon="7.10415">
        <ele>940</ele>
        <time>2019-04-13T04:44:14Z</time>
      </trkpt>
      <trkpt lat="48.12511" lon="7.10445">
        <ele>939</ele>
        <time>2019-04-13T04:45:14Z</time>
      </trkpt>
      <trkpt lat="48.12508" lon="7.10485">
        <ele>938</ele>
        <time>2019-04-13T04:46:14Z</time>
      </trkpt>
      <trkpt lat="48.12508" lon="7.10521">
        <ele>936</ele>
        <time>2019-04-13T04:47:14Z</time>
      </trkpt>
      <trkpt lat="48.12509" lon="7.10555">
        <ele>933</ele>
        <time>2019-04-13T04:48:14Z</time>
      </trkpt>
      <trkpt lat="48.12512" lon="7.10593">
        <ele>930</ele>
        <time>2019-04-13T04:49:14Z</time>
      </trkpt>
      <trkpt lat="48.12513" lon="7.10632">
        <ele>928</ele>
        <time>2019-04-13T04:50:14Z</time>
      </trkpt>
      <trkpt lat="48.12513" lon="7.10653">
        <ele>927</ele>
        <time>2019-04-13T04:51:14Z</time>
      </trkpt>
      <trkpt lat="48.12511" lon="7.1068">
        <ele>927</ele>
        <time>2019-04-13T04:52:14Z</time>
      </trkpt>
      <trkpt lat="48.12511" lon="7.10705">
        <ele>928</ele>
        <time>2019-04-13T04:53:14Z</time>
      </trkpt>
      <trkpt lat="48.12514" lon="7.10741">
        <ele>928</ele>
        <time>2019-04-13T04:54:14Z</time>
      </trkpt>
      <trkpt lat="48.12519" lon="7.1077">
        <ele>927</ele>
        <time>2019-04-13T04:55:14Z</time>
      </trkpt>
      <trkpt lat="48.12526" lon="7.10804">
        <ele>925</ele>
        <time>2019-04-13T04:56:14Z</time>
      </trkpt>
      <trkpt lat="48.1253" lon="7.1083">
        <ele>925</ele>
        <time>2019-04-13T04:57:14Z</time>
      </trkpt>
      <trkpt lat="48.12532" lon="7.10848">
        <ele>924</ele>
        <time>2019-04-13T04:58:14Z</time>
      </trkpt>
      <trkpt lat="48.1253" lon="7.10877">
        <ele>925</ele>
        <time>2019-04-13T04:59:14Z</time>
      </trkpt>
      <trkpt lat="48.12528" lon="7.10895">
        <ele>925</ele>
        <time>2019-04-13T05:00:14Z</time>
      </trkpt>
      <trkpt lat="48.12524" lon="7.10918">
        <ele>927</ele>
        <time>2019-04-13T05:01:14Z</time>
      </trkpt>
      <trkpt lat="48.12517" lon="7.10972">
        <ele>930</ele>
        <time>2019-04-13T05:02:14Z</time>
      </trkpt>
      <trkpt lat="48.12509" lon="7.11028">
        <ele>934</ele>
        <time>2019-04-13T05:03:14Z</time>
      </trkpt>
      <trkpt lat="48.12506" lon="7.11067">
        <ele>935</ele>
        <time>2019-04-13T05:04:14Z</time>
      </trkpt>
      <trkpt lat="48.12507" lon="7.11098">
        <ele>936</ele>
        <time>2019-04-13T05:05:14Z</time>
      </trkpt>
      <trkpt lat="48.12507" lon="7.11117">
        <ele>936</ele>
        <time>2019-04-13T05:06:14Z</time>
      </trkpt>
      <trkpt lat="48.12508" lon="7.1113">
        <ele>936</ele>
        <time>2019-04-13T05:07:14Z</time>
      </trkpt>
      <trkpt lat="48.12511" lon="7.11142">
        <ele>936</ele>
        <time>2019-04-13T05:08:14Z</time>
      </trkpt>
      <trkpt lat="48.12515" lon="7.11156">
        <ele>935</ele>
        <time>2019-04-13T05:09:14Z</time>
      </trkpt>
      <trkpt lat="48.12522" lon="7.11182">
        <ele>934</ele>
        <time>2019-04-13T05:10:14Z</time>
      </trkpt>
      <trkpt lat="48.12535" lon="7.11217">
        <ele>931</ele>
        <time>2019-04-13T05:11:14Z</time>
      </trkpt>
      <trkpt lat="48.12544" lon="7.11249">
        <ele>928</ele>
        <time>2019-04-13T05:12:14Z</time>
      </trkpt>
      <trkpt lat="48.12548" lon="7.1127">
        <ele>926</ele>
        <time>2019-04-13T05:13:14Z</time>
      </trkpt>
      <trkpt lat="48.12548" lon="7.11296">
        <ele>926</ele>
        <time>2019-04-13T05:14:14Z</time>
      </trkpt>
      <trkpt lat="48.12549" lon="7.11333">
        <ele>925</ele>
        <time>2019-04-13T05:15:14Z</time>
      </trkpt>
      <trkpt lat="48.12547" lon="7.11373">
        <ele>927</ele>
        <time>2019-04-13T05:16:14Z</time>
      </trkpt>
      <trkpt lat="48.12546" lon="7.11408">
        <ele>928</ele>
        <time>2019-04-13T05:17:14Z</time>
      </trkpt>
      <trkpt lat="48.12547" lon="7.11432">
        <ele>929</ele>
        <time>2019-04-13T05:18:14Z</time>
      </trkpt>
      <trkpt lat="48.12552" lon="7.1146">
        <ele>927</ele>
        <time>2019-04-13T05:19:14Z</time>
      </trkpt>
      <trkpt lat="48.12554" lon="7.1148">
        <ele>927</ele>
        <time>2019-04-13T05:20:14Z</time>
      </trkpt>
      <trkpt lat="48.12556" lon="7.115">
        <ele>927</ele>
        <time>2019-04-13T05:21:14Z</time>
      </trkpt>
      <trkpt lat="48.12556" lon="7.11515">
        <ele>926</ele>
        <time>2019-04-13T05:22:14Z</time>
      </trkpt>
      <trkpt lat="48.12552" lon="7.11539">
        <ele>927</ele>
        <time>2019-04-13T05:23:14Z</time>
      </trkpt>
      <trkpt lat="48.12545" lon="7.11569">
        <ele>927</ele>
        <time>2019-04-13T05:24:14Z</time>
      </trkpt>
      <trkpt lat="48.12536" lon="7.11603">
        <ele>926</ele>
        <time>2019-04-13T05:25:14Z</time>
      </trkpt>
      <trkpt lat="48.12527" lon="7.11648">
        <ele>922</ele>
        <time>2019-04-13T05:26:14Z</time>
      </trkpt>
      <trkpt lat="48.12521" lon="7.11664">
        <ele>921</ele>
        <time>2019-04-13T05:27:14Z</time>
      </trkpt>
      <trkpt lat="48.12523" lon="7.11666">
        <ele>920</ele>
        <time>2019-04-13T05:28:14Z</time>
      </trkpt>
      <trkpt lat="48.12523" lon="7.11669">
        <ele>920</ele>
        <time>2019-04-13T05:29:14Z</time>
      </trkpt>
      <trkpt lat="48.12521" lon="7.11678">
        <ele>920</ele>
        <time>2019-04-13T05:30:14Z</time>
      </trkpt>
      <trkpt lat="48.12519" lon="7.11687">
        <ele>919</ele>
        <time>2019-04-13T05:31:14Z</time>
      </trkpt>
      <trkpt lat="48.12516" lon="7.11706">
        <ele>918</ele>
        <time>2019-04-13T05:32:14Z</time>
      </trkpt>
      <trkpt lat="48.12515" lon="7.11732">
        <ele>916</ele>
        <time>2019-04-13T05:33:14Z</time>
      </trkpt>
      <trkpt lat="48.12514" lon="7.11752">
        <ele>914</ele>
        <time>2019-04-13T05:34:14Z</time>
      </trkpt>
      <trkpt lat="48.12512" lon="7.11763">
        <ele>914</ele>
        <time>2019-04-13T05:35:14Z</time>
      </trkpt>
      <trkpt lat="48.12513" lon="7.11781">
        <ele>913</ele>
        <time>2019-04-13T05:36:14Z</time>
      </trkpt>
      <trkpt lat="48.12515" lon="7.11789">
        <ele>912</ele>
        <time>2019-04-13T05:37:14Z</time>
      </trkpt>
      <trkpt lat="48.12518" lon="7.11792">
        <ele>911</ele>
        <time>2019-04-13T05:38:14Z</time>
      </trkpt>
      <trkpt lat="48.12518" lon="7.11792">
        <ele>911</ele>
        <time>2019-04-13T05:39:14Z</time>
      </trkpt>
      <trkpt lat="48.12526" lon="7.11784">
        <ele>910</ele>
        <time>2019-04-13T05:40:14Z</time>
      </trkpt>
      <trkpt lat="48.12532" lon="7.11773">
        <ele>909</ele>
        <time>2019-04-13T05:41:14Z</time>
      </trkpt>
      <trkpt lat="48.1254" lon="7.11756">
        <ele>907</ele>
        <time>2019-04-13T05:42:14Z</time>
      </trkpt>
      <trkpt lat="48.12544" lon="7.11739">
        <ele>907</ele>
        <time>2019-04-13T05:43:14Z</time>
      </trkpt>
      <trkpt lat="48.12549" lon="7.11718">
        <ele>909</ele>
        <time>2019-04-13T05:44:14Z</time>
      </trkpt>
      <trkpt lat="48.12553" lon="7.11697">
        <ele>910</ele>
        <time>2019-04-13T05:45:14Z</time>
      </trkpt>
      <trkpt lat="48.12557" lon="7.11685">
        <ele>911</ele>
        <time>2019-04-13T05:46:14Z</time>
      </trkpt>
      <trkpt lat="48.12559" lon="7.11682">
        <ele>911</ele>
        <time>2019-04-13T05:47:14Z</time>
      </trkpt>
      <trkpt lat="48.12562" lon="7.11681">
        <ele>910</ele>
        <time>2019-04-13T05:48:14Z</time>
      </trkpt>
      <trkpt lat="48.12567" lon="7.11683">
        <ele>909</ele>
        <time>2019-04-13T05:49:14Z</time>
      </trkpt>
      <trkpt lat="48.12571" lon="7.11688">
        <ele>907</ele>
        <time>2019-04-13T05:50:14Z</time>
      </trkpt>
      <trkpt lat="48.12572" lon="7.11699">
        <ele>906</ele>
        <time>2019-04-13T05:51:14Z</time>
      </trkpt>
      <trkpt lat="48.12573" lon="7.11713">
        <ele>903</ele>
        <time>2019-04-13T05:52:14Z</time>
      </trkpt>
      <trkpt lat="48.12572" lon="7.11736">
        <ele>900</ele>
        <time>2019-04-13T05:53:14Z</time>
      </trkpt>
      <trkpt lat="48.12573" lon="7.11756">
        <ele>898</ele>
        <time>2019-04-13T05:54:14Z</time>
      </trkpt>
      <trkpt lat="48.12575" lon="7.11775">
        <ele>898</ele>
        <time>2019-04-13T05:55:14Z</time>
      </trkpt>
      <trkpt lat="48.12579" lon="7.1179">
        <ele>897</ele>
        <time>2019-04-13T05:56:14Z</time>
      </trkpt>
      <trkpt lat="48.1259" lon="7.1181">
        <ele>895</ele>
        <time>2019-04-13T05:57:14Z</time>
      </trkpt>
      <trkpt lat="48.12599" lon="7.11824">
        <ele>892</ele>
        <time>2019-04-13T05:58:14Z</time>
      </trkpt>
      <trkpt lat="48.12612" lon="7.11835">
        <ele>887</ele>
        <time>2019-04-13T05:59:14Z</time>
      </trkpt>
      <trkpt lat="48.1262" lon="7.1185">
        <ele>885</ele>
        <time>2019-04-13T06:00:14Z</time>
      </trkpt>
      <trkpt lat="48.12628" lon="7.11873">
        <ele>884</ele>
        <time>2019-04-13T06:01:14Z</time>
      </trkpt>
      <trkpt lat="48.12636" lon="7.11896">
        <ele>882</ele>
        <time>2019-04-13T06:02:14Z</time>
      </trkpt>
      <trkpt lat="48.12639" lon="7.11916">
        <ele>882</ele>
        <time>2019-04-13T06:03:14Z</time>
      </trkpt>
      <trkpt lat="48.12639" lon="7.1194">
        <ele>880</ele>
        <time>2019-04-13T06:04:14Z</time>
      </trkpt>
      <trkpt lat="48.12637" lon="7.11966">
        <ele>879</ele>
        <time>2019-04-13T06:05:14Z</time>
      </trkpt>
      <trkpt lat="48.12633" lon="7.11998">
        <ele>878</ele>
        <time>2019-04-13T06:06:14Z</time>
      </trkpt>
      <trkpt lat="48.12626" lon="7.12022">
        <ele>878</ele>
        <time>2019-04-13T06:07:14Z</time>
      </trkpt>
      <trkpt lat="48.12618" lon="7.1205">
        <ele>878</ele>
        <time>2019-04-13T06:08:14Z</time>
      </trkpt>
      <trkpt lat="48.12608" lon="7.12075">
        <ele>878</ele>
        <time>2019-04-13T06:09:14Z</time>
      </trkpt>
      <trkpt lat="48.126" lon="7.12097">
        <ele>878</ele>
        <time>2019-04-13T06:10:14Z</time>
      </trkpt>
      <trkpt lat="48.12594" lon="7.12119">
        <ele>877</ele>
        <time>2019-04-13T06:11:14Z</time>
      </trkpt>
      <trkpt lat="48.1259" lon="7.12134">
        <ele>876</ele>
        <time>2019-04-13T06:12:14Z</time>
      </trkpt>
      <trkpt lat="48.1259" lon="7.12145">
        <ele>875</ele>
        <time>2019-04-13T06:13:14Z</time>
      </trkpt>
      <trkpt lat="48.1259" lon="7.12145">
        <ele>875</ele>
        <time>2019-04-13T06:14:14Z</time>
      </trkpt>
      <trkpt lat="48.126" lon="7.12129">
        <ele>873</ele>
        <time>2019-04-13T06:15:14Z</time>
      </trkpt>
      <trkpt lat="48.12606" lon="7.12115">
        <ele>873</ele>
        <time>2019-04-13T06:16:14Z</time>
      </trkpt>
      <trkpt lat="48.1261" lon="7.12109">
        <ele>872</ele>
        <time>2019-04-13T06:17:14Z</time>
      </trkpt>
      <trkpt lat="48.1261" lon="7.12109">
        <ele>872</ele>
        <time>2019-04-13T06:18:14Z</time>
      </trkpt>
      <trkpt lat="48.12606" lon="7.12137">
        <ele>870</ele>
        <time>2019-04-13T06:19:14Z</time>
      </trkpt>
      <trkpt lat="48.12598" lon="7.12173">
        <ele>868</ele>
        <time>2019-04-13T06:20:14Z</time>
      </trkpt>
      <trkpt lat="48.12594" lon="7.12198">
        <ele>868</ele>
        <time>2019-04-13T06:21:14Z</time>
      </trkpt>
      <trkpt lat="48.12594" lon="7.12209">
        <ele>867</ele>
        <time>2019-04-13T06:22:14Z</time>
      </trkpt>
      <trkpt lat="48.12593" lon="7.12223">
        <ele>867</ele>
        <time>2019-04-13T06:23:14Z</time>
      </trkpt>
      <trkpt lat="48.12595" lon="7.12239">
        <ele>865</ele>
        <time>2019-04-13T06:24:14Z</time>
      </trkpt>
      <trkpt lat="48.12595" lon="7.12261">
        <ele>863</ele>
        <time>2019-04-13T06:25:14Z</time>
      </trkpt>
      <trkpt lat="48.12592" lon="7.12279">
        <ele>862</ele>
        <time>2019-04-13T06:26:14Z</time>
      </trkpt>
      <trkpt lat="48.12587" lon="7.12305">
        <ele>861</ele>
        <time>2019-04-13T06:27:14Z</time>
      </trkpt>
      <trkpt lat="48.1258" lon="7.12331">
        <ele>859</ele>
        <time>2019-04-13T06:28:14Z</time>
      </trkpt>
      <trkpt lat="48.12578" lon="7.12353">
        <ele>857</ele>
        <time>2019-04-13T06:29:14Z</time>
      </trkpt>
      <trkpt lat="48.12574" lon="7.12368">
        <ele>855</ele>
        <time>2019-04-13T06:30:14Z</time>
      </trkpt>
      <trkpt lat="48.12567" lon="7.12394">
        <ele>851</ele>
        <time>2019-04-13T06:31:14Z</time>
      </trkpt>
      <trkpt lat="48.12562" lon="7.12416">
        <ele>848</ele>
        <time>2019-04-13T06:32:14Z</time>
      </trkpt>
      <trkpt lat="48.12558" lon="7.12427">
        <ele>846</ele>
        <time>2019-04-13T06:33:14Z</time>
      </trkpt>
      <trkpt lat="48.1255" lon="7.12434">
        <ele>845</ele>
        <time>2019-04-13T06:34:14Z</time>
      </trkpt>
      <trkpt lat="48.12541" lon="7.12445">
        <ele>843</ele>
        <time>2019-04-13T06:35:14Z</time>
      </trkpt>
      <trkpt lat="48.12539" lon="7.12448">
        <ele>843</ele>
        <time>2019-04-13T06:36:14Z</time>
      </trkpt>
      <trkpt lat="48.12538" lon="7.12453">
        <ele>842</ele>
        <time>2019-04-13T06:37:14Z</time>
      </trkpt>
      <trkpt lat="48.12539" lon="7.12462">
        <ele>841</ele>
        <time>2019-04-13T06:38:14Z</time>
      </trkpt>
      <trkpt lat="48.12546" lon="7.12475">
        <ele>839</ele>
        <time>2019-04-13T06:39:14Z</time>
      </trkpt>
      <trkpt lat="48.12559" lon="7.12488">
        <ele>838</ele>
        <time>2019-04-13T06:40:14Z</time>
      </trkpt>
      <trkpt lat="48.1257" lon="7.12495">
        <ele>837</ele>
        <time>2019-04-13T06:41:14Z</time>
      </trkpt>
      <trkpt lat="48.12578" lon="7.12495">
        <ele>838</ele>
        <time>2019-04-13T06:42:14Z</time>
      </trkpt>
      <trkpt lat="48.12596" lon="7.12488">
        <ele>837</ele>
        <time>2019-04-13T06:43:14Z</time>
      </trkpt>
      <trkpt lat="48.12604" lon="7.12486">
        <ele>836</ele>
        <time>2019-04-13T06:44:14Z</time>
      </trkpt>
      <trkpt lat="48.12609" lon="7.12487">
        <ele>835</ele>
        <time>2019-04-13T06:45:14Z</time>
      </trkpt>
      <trkpt lat="48.12611" lon="7.1249">
        <ele>835</ele>
        <time>2019-04-13T06:46:14Z</time>
      </trkpt>
      <trkpt lat="48.12614" lon="7.12498">
        <ele>833</ele>
        <time>2019-04-13T06:47:14Z</time>
      </trkpt>
      <trkpt lat="48.12614" lon="7.12514">
        <ele>830</ele>
        <time>2019-04-13T06:48:14Z</time>
      </trkpt>
      <trkpt lat="48.12612" lon="7.12535">
        <ele>827</ele>
        <time>2019-04-13T06:49:14Z</time>
      </trkpt>
      <trkpt lat="48.12605" lon="7.12555">
        <ele>824</ele>
        <time>2019-04-13T06:50:14Z</time>
      </trkpt>
      <trkpt lat="48.12594" lon="7.12575">
        <ele>822</ele>
        <time>2019-04-13T06:51:14Z</time>
      </trkpt>
      <trkpt lat="48.12586" lon="7.12584">
        <ele>822</ele>
        <time>2019-04-13T06:52:14Z</time>
      </trkpt>
      <trkpt lat="48.12581" lon="7.12587">
        <ele>821</ele>
        <time>2019-04-13T06:53:14Z</time>
      </trkpt>
      <trkpt lat="48.12576" lon="7.12587">
        <ele>821</ele>
        <time>2019-04-13T06:54:14Z</time>
      </trkpt>
      <trkpt lat="48.12568" lon="7.12585">
        <ele>821</ele>
        <time>2019-04-13T06:55:14Z</time>
      </trkpt>
      <trkpt lat="48.12546" lon="7.12572">
        <ele>823</ele>
        <time>2019-04-13T06:56:14Z</time>
      </trkpt>
      <trkpt lat="48.12507" lon="7.12546">
        <ele>827</ele>
        <time>2019-04-13T06:57:14Z</time>
      </trkpt>
      <trkpt lat="48.12477" lon="7.12529">
        <ele>827</ele>
        <time>2019-04-13T06:58:14Z</time>
      </trkpt>
      <trkpt lat="48.12449" lon="7.12516">
        <ele>827</ele>
        <time>2019-04-13T06:59:14Z</time>
      </trkpt>
      <trkpt lat="48.12418" lon="7.125">
        <ele>826</ele>
        <time>2019-04-13T07:00:14Z</time>
      </trkpt>
      <trkpt lat="48.12384" lon="7.12483">
        <ele>824</ele>
        <time>2019-04-13T07:01:14Z</time>
      </trkpt>
      <trkpt lat="48.12362" lon="7.12472">
        <ele>823</ele>
        <time>2019-04-13T07:02:14Z</time>
      </trkpt>
      <trkpt lat="48.12352" lon="7.12472">
        <ele>822</ele>
        <time>2019-04-13T07:03:14Z</time>
      </trkpt>
      <trkpt lat="48.12345" lon="7.12474">
        <ele>822</ele>
        <time>2019-04-13T07:04:14Z</time>
      </trkpt>
      <trkpt lat="48.12338" lon="7.12473">
        <ele>821</ele>
        <time>2019-04-13T07:05:14Z</time>
      </trkpt>
      <trkpt lat="48.12317" lon="7.12453">
        <ele>821</ele>
        <time>2019-04-13T07:06:14Z</time>
      </trkpt>
      <trkpt lat="48.12303" lon="7.12441">
        <ele>821</ele>
        <time>2019-04-13T07:07:14Z</time>
      </trkpt>
      <trkpt lat="48.12299" lon="7.12442">
        <ele>821</ele>
        <time>2019-04-13T07:08:14Z</time>
      </trkpt>
      <trkpt lat="48.12295" lon="7.12442">
        <ele>820</ele>
        <time>2019-04-13T07:09:14Z</time>
      </trkpt>
      <trkpt lat="48.1229" lon="7.12438">
        <ele>820</ele>
        <time>2019-04-13T07:10:14Z</time>
      </trkpt>
      <trkpt lat="48.12281" lon="7.12429">
        <ele>820</ele>
        <time>2019-04-13T07:11:14Z</time>
      </trkpt>
      <trkpt lat="48.12263" lon="7.12407">
        <ele>820</ele>
        <time>2019-04-13T07:12:14Z</time>
      </trkpt>
      <trkpt lat="48.12251" lon="7.12389">
        <ele>820</ele>
        <time>2019-04-13T07:13:14Z</time>
      </trkpt>
      <trkpt lat="48.1224" lon="7.12368">
        <ele>819</ele>
        <time>2019-04-13T07:14:14Z</time>
      </trkpt>
      <trkpt lat="48.1223" lon="7.12348">
        <ele>818</ele>
        <time>2019-04-13T07:15:14Z</time>
      </trkpt>
      <trkpt lat="48.12223" lon="7.1233">
        <ele>817</ele>
        <time>2019-04-13T07:16:14Z</time>
      </trkpt>
      <trkpt lat="48.1222" lon="7.12327">
        <ele>817</ele>
        <time>2019-04-13T07:17:14Z</time>
      </trkpt>
      <trkpt lat="48.12217" lon="7.12327">
        <ele>816</ele>
        <time>2019-04-13T07:18:14Z</time>
      </trkpt>
      <trkpt lat="48.12216" lon="7.12329">
        <ele>816</ele>
        <time>2019-04-13T07:19:14Z</time>
      </trkpt>
      <trkpt lat="48.12215" lon="7.12334">
        <ele>815</ele>
        <time>2019-04-13T07:20:14Z</time>
      </trkpt>
      <trkpt lat="48.12214" lon="7.12345">
        <ele>815</ele>
        <time>2019-04-13T07:21:14Z</time>
      </trkpt>
      <trkpt lat="48.12212" lon="7.12378">
        <ele>813</ele>
        <time>2019-04-13T07:22:14Z</time>
      </trkpt>
      <trkpt lat="48.12207" lon="7.12413">
        <ele>811</ele>
        <time>2019-04-13T07:23:14Z</time>
      </trkpt>
      <trkpt lat="48.122" lon="7.12455">
        <ele>808</ele>
        <time>2019-04-13T07:24:14Z</time>
      </trkpt>
      <trkpt lat="48.12196" lon="7.12482">
        <ele>806</ele>
        <time>2019-04-13T07:25:14Z</time>
      </trkpt>
      <trkpt lat="48.12195" lon="7.12506">
        <ele>804</ele>
        <time>2019-04-13T07:26:14Z</time>
      </trkpt>
      <trkpt lat="48.12197" lon="7.12529">
        <ele>803</ele>
        <time>2019-04-13T07:27:14Z</time>
      </trkpt>
      <trkpt lat="48.12202" lon="7.1255">
        <ele>802</ele>
        <time>2019-04-13T07:28:14Z</time>
      </trkpt>
      <trkpt lat="48.12202" lon="7.1255">
        <ele>802</ele>
        <time>2019-04-13T07:29:14Z</time>
      </trkpt>
      <trkpt lat="48.12168" lon="7.12526">
        <ele>798</ele>
        <time>2019-04-13T07:30:14Z</time>
      </trkpt>
      <trkpt lat="48.12134" lon="7.12499">
        <ele>790</ele>
        <time>2019-04-13T07:31:14Z</time>
      </trkpt>
      <trkpt lat="48.12117" lon="7.12484">
        <ele>786</ele>
        <time>2019-04-13T07:32:14Z</time>
      </trkpt>
      <trkpt lat="48.12103" lon="7.12466">
        <ele>785</ele>
        <time>2019-04-13T07:33:14Z</time>
      </trkpt>
      <trkpt lat="48.12094" lon="7.12445">
        <ele>785</ele>
        <time>2019-04-13T07:34:14Z</time>
      </trkpt>
      <trkpt lat="48.12089" lon="7.12427">
        <ele>787</ele>
        <time>2019-04-13T07:35:14Z</time>
      </trkpt>
      <trkpt lat="48.12085" lon="7.12404">
        <ele>786</ele>
        <time>2019-04-13T07:36:14Z</time>
      </trkpt>
      <trkpt lat="48.12081" lon="7.12375">
        <ele>782</ele>
        <time>2019-04-13T07:37:14Z</time>
      </trkpt>
      <trkpt lat="48.12079" lon="7.12347">
        <ele>779</ele>
        <time>2019-04-13T07:38:14Z</time>
      </trkpt>
      <trkpt lat="48.12078" lon="7.1233">
        <ele>777</ele>
        <time>2019-04-13T07:39:14Z</time>
      </trkpt>
      <trkpt lat="48.12081" lon="7.12315">
        <ele>778</ele>
        <time>2019-04-13T07:40:14Z</time>
      </trkpt>
      <trkpt lat="48.12081" lon="7.12297">
        <ele>779</ele>
        <time>2019-04-13T07:41:14Z</time>
      </trkpt>
      <trkpt lat="48.12081" lon="7.1227">
        <ele>779</ele>
        <time>2019-04-13T07:42:14Z</time>
      </trkpt>
      <trkpt lat="48.1208" lon="7.12253">
        <ele>779</ele>
        <time>2019-04-13T07:43:14Z</time>
      </trkpt>
      <trkpt lat="48.12076" lon="7.12233">
        <ele>778</ele>
        <time>2019-04-13T07:44:14Z</time>
      </trkpt>
      <trkpt lat="48.1207" lon="7.12203">
        <ele>777</ele>
        <time>2019-04-13T07:45:14Z</time>
      </trkpt>
      <trkpt lat="48.12068" lon="7.12178">
        <ele>777</ele>
        <time>2019-04-13T07:46:14Z</time>
      </trkpt>
      <trkpt lat="48.12068" lon="7.1216">
        <ele>778</ele>
        <time>2019-04-13T07:47:14Z</time>
      </trkpt>
      <trkpt lat="48.12066" lon="7.12144">
        <ele>780</ele>
        <time>2019-04-13T07:48:14Z</time>
      </trkpt>
      <trkpt lat="48.12062" lon="7.12124">
        <ele>782</ele>
        <time>2019-04-13T07:49:14Z</time>
      </trkpt>
      <trkpt lat="48.12058" lon="7.12101">
        <ele>784</ele>
        <time>2019-04-13T07:50:14Z</time>
      </trkpt>
      <trkpt lat="48.12053" lon="7.12076">
        <ele>786</ele>
        <time>2019-04-13T07:51:14Z</time>
      </trkpt>
      <trkpt lat="48.12049" lon="7.12058">
        <ele>787</ele>
        <time>2019-04-13T07:52:14Z</time>
      </trkpt>
      <trkpt lat="48.12044" lon="7.12044">
        <ele>788</ele>
        <time>2019-04-13T07:53:14Z</time>
      </trkpt>
      <trkpt lat="48.12037" lon="7.12035">
        <ele>788</ele>
        <time>2019-04-13T07:54:14Z</time>
      </trkpt>
      <trkpt lat="48.1203" lon="7.12029">
        <ele>788</ele>
        <time>2019-04-13T07:55:14Z</time>
      </trkpt>
      <trkpt lat="48.12017" lon="7.12024">
        <ele>787</ele>
        <time>2019-04-13T07:56:14Z</time>
      </trkpt>
      <trkpt lat="48.12009" lon="7.12017">
        <ele>787</ele>
        <time>2019-04-13T07:57:14Z</time>
      </trkpt>
      <trkpt lat="48.12" lon="7.12003">
        <ele>788</ele>
        <time>2019-04-13T07:58:14Z</time>
      </trkpt>
      <trkpt lat="48.11991" lon="7.11985">
        <ele>790</ele>
        <time>2019-04-13T07:59:14Z</time>
      </trkpt>
      <trkpt lat="48.11981" lon="7.11966">
        <ele>791</ele>
        <time>2019-04-13T08:00:14Z</time>
      </trkpt>
      <trkpt lat="48.11972" lon="7.11947">
        <ele>793</ele>
        <time>2019-04-13T08:01:14Z</time>
      </trkpt>
      <trkpt lat="48.11963" lon="7.1193">
        <ele>794</ele>
        <time>2019-04-13T08:02:14Z</time>
      </trkpt>
      <trkpt lat="48.11958" lon="7.11913">
        <ele>796</ele>
        <time>2019-04-13T08:03:14Z</time>
      </trkpt>
      <trkpt lat="48.11955" lon="7.11899">
        <ele>797</ele>
        <time>2019-04-13T08:04:14Z</time>
      </trkpt>
      <trkpt lat="48.11949" lon="7.11871">
        <ele>801</ele>
        <time>2019-04-13T08:05:14Z</time>
      </trkpt>
      <trkpt lat="48.1194" lon="7.11847">
        <ele>802</ele>
        <time>2019-04-13T08:06:14Z</time>
      </trkpt>
      <trkpt lat="48.1193" lon="7.11825">
        <ele>804</ele>
        <time>2019-04-13T08:07:14Z</time>
      </trkpt>
      <trkpt lat="48.11919" lon="7.11805">
        <ele>805</ele>
        <time>2019-04-13T08:08:14Z</time>
      </trkpt>
      <trkpt lat="48.11908" lon="7.1179">
        <ele>807</ele>
        <time>2019-04-13T08:09:14Z</time>
      </trkpt>
      <trkpt lat="48.11893" lon="7.11776">
        <ele>809</ele>
        <time>2019-04-13T08:10:14Z</time>
      </trkpt>
      <trkpt lat="48.11872" lon="7.11765">
        <ele>810</ele>
        <time>2019-04-13T08:11:14Z</time>
      </trkpt>
      <trkpt lat="48.11847" lon="7.11761">
        <ele>809</ele>
        <time>2019-04-13T08:12:14Z</time>
      </trkpt>
      <trkpt lat="48.11821" lon="7.11759">
        <ele>807</ele>
        <time>2019-04-13T08:13:14Z</time>
      </trkpt>
      <trkpt lat="48.11802" lon="7.1176">
        <ele>804</ele>
        <time>2019-04-13T08:14:14Z</time>
      </trkpt>
      <trkpt lat="48.1179" lon="7.1176">
        <ele>802</ele>
        <time>2019-04-13T08:15:14Z</time>
      </trkpt>
      <trkpt lat="48.11771" lon="7.11756">
        <ele>801</ele>
        <time>2019-04-13T08:16:14Z</time>
      </trkpt>
      <trkpt lat="48.11749" lon="7.11748">
        <ele>799</ele>
        <time>2019-04-13T08:17:14Z</time>
      </trkpt>
      <trkpt lat="48.11732" lon="7.11739">
        <ele>798</ele>
        <time>2019-04-13T08:18:14Z</time>
      </trkpt>
      <trkpt lat="48.11725" lon="7.11735">
        <ele>797</ele>
        <time>2019-04-13T08:19:14Z</time>
      </trkpt>
      <trkpt lat="48.11725" lon="7.11735">
        <ele>797</ele>
        <time>2019-04-13T08:20:14Z</time>
      </trkpt>
      <trkpt lat="48.11729" lon="7.11743">
        <ele>796</ele>
        <time>2019-04-13T08:21:14Z</time>
      </trkpt>
      <trkpt lat="48.11738" lon="7.11754">
        <ele>796</ele>
        <time>2019-04-13T08:22:14Z</time>
      </trkpt>
      <trkpt lat="48.11749" lon="7.11768">
        <ele>795</ele>
        <time>2019-04-13T08:23:14Z</time>
      </trkpt>
      <trkpt lat="48.1176" lon="7.11783">
        <ele>793</ele>
        <time>2019-04-13T08:24:14Z</time>
      </trkpt>
      <trkpt lat="48.11772" lon="7.11795">
        <ele>792</ele>
        <time>2019-04-13T08:25:14Z</time>
      </trkpt>
      <trkpt lat="48.11787" lon="7.11805">
        <ele>791</ele>
        <time>2019-04-13T08:26:14Z</time>
      </trkpt>
      <trkpt lat="48.11797" lon="7.11808">
        <ele>791</ele>
        <time>2019-04-13T08:27:14Z</time>
      </trkpt>
      <trkpt lat="48.11807" lon="7.11809">
        <ele>792</ele>
        <time>2019-04-13T08:28:14Z</time>
      </trkpt>
      <trkpt lat="48.11819" lon="7.11814">
        <ele>791</ele>
        <time>2019-04-13T08:29:14Z</time>
      </trkpt>
      <trkpt lat="48.11824" lon="7.11818">
        <ele>791</ele>
        <time>2019-04-13T08:30:14Z</time>
      </trkpt>
      <trkpt lat="48.1183" lon="7.1183">
        <ele>788</ele>
        <time>2019-04-13T08:31:14Z</time>
      </trkpt>
      <trkpt lat="48.11835" lon="7.11846">
        <ele>784</ele>
        <time>2019-04-13T08:32:14Z</time>
      </trkpt>
      <trkpt lat="48.11842" lon="7.11861">
        <ele>781</ele>
        <time>2019-04-13T08:33:14Z</time>
      </trkpt>
      <trkpt lat="48.1185" lon="7.11873">
        <ele>780</ele>
        <time>2019-04-13T08:34:14Z</time>
      </trkpt>
      <trkpt lat="48.11856" lon="7.11884">
        <ele>778</ele>
        <time>2019-04-13T08:35:14Z</time>
      </trkpt>
      <trkpt lat="48.11859" lon="7.11896">
        <ele>776</ele>
        <time>2019-04-13T08:36:14Z</time>
      </trkpt>
      <trkpt lat="48.11862" lon="7.11917">
        <ele>772</ele>
        <time>2019-04-13T08:37:14Z</time>
      </trkpt>
      <trkpt lat="48.11858" lon="7.11928">
        <ele>769</ele>
        <time>2019-04-13T08:38:14Z</time>
      </trkpt>
      <trkpt lat="48.11851" lon="7.11931">
        <ele>767</ele>
        <time>2019-04-13T08:39:14Z</time>
      </trkpt>
      <trkpt lat="48.1184" lon="7.11934">
        <ele>763</ele>
        <time>2019-04-13T08:40:14Z</time>
      </trkpt>
      <trkpt lat="48.11831" lon="7.11939">
        <ele>760</ele>
        <time>2019-04-13T08:41:14Z</time>
      </trkpt>
      <trkpt lat="48.1183" lon="7.1195">
        <ele>758</ele>
        <time>2019-04-13T08:42:14Z</time>
      </trkpt>
      <trkpt lat="48.11835" lon="7.11967">
        <ele>756</ele>
        <time>2019-04-13T08:43:14Z</time>
      </trkpt>
      <trkpt lat="48.11862" lon="7.1202">
        <ele>756</ele>
        <time>2019-04-13T08:44:14Z</time>
      </trkpt>
      <trkpt lat="48.11883" lon="7.12059">
        <ele>754</ele>
        <time>2019-04-13T08:45:14Z</time>
      </trkpt>
      <trkpt lat="48.11895" lon="7.1212">
        <ele>745</ele>
        <time>2019-04-13T08:46:14Z</time>
      </trkpt>
      <trkpt lat="48.119" lon="7.12143">
        <ele>741</ele>
        <time>2019-04-13T08:47:14Z</time>
      </trkpt>
      <trkpt lat="48.11907" lon="7.12155">
        <ele>740</ele>
        <time>2019-04-13T08:48:14Z</time>
      </trkpt>
      <trkpt lat="48.11916" lon="7.12163">
        <ele>740</ele>
        <time>2019-04-13T08:49:14Z</time>
      </trkpt>
      <trkpt lat="48.1195" lon="7.12179">
        <ele>745</ele>
        <time>2019-04-13T08:50:14Z</time>
      </trkpt>
      <trkpt lat="48.11958" lon="7.12195">
        <ele>744</ele>
        <time>2019-04-13T08:51:14Z</time>
      </trkpt>
      <trkpt lat="48.11965" lon="7.1228">
        <ele>738</ele>
        <time>2019-04-13T08:52:14Z</time>
      </trkpt>
      <trkpt lat="48.11958" lon="7.12332">
        <ele>735</ele>
        <time>2019-04-13T08:53:14Z</time>
      </trkpt>
      <trkpt lat="48.11958" lon="7.12332">
        <ele>735</ele>
        <time>2019-04-13T08:54:14Z</time>
      </trkpt>
      <trkpt lat="48.11956" lon="7.12329">
        <ele>734</ele>
        <time>2019-04-13T08:55:14Z</time>
      </trkpt>
      <trkpt lat="48.11953" lon="7.12333">
        <ele>733</ele>
        <time>2019-04-13T08:56:14Z</time>
      </trkpt>
      <trkpt lat="48.11946" lon="7.12351">
        <ele>731</ele>
        <time>2019-04-13T08:57:14Z</time>
      </trkpt>
      <trkpt lat="48.11938" lon="7.12377">
        <ele>729</ele>
        <time>2019-04-13T08:58:14Z</time>
      </trkpt>
      <trkpt lat="48.1193" lon="7.12396">
        <ele>726</ele>
        <time>2019-04-13T08:59:14Z</time>
      </trkpt>
      <trkpt lat="48.11919" lon="7.12421">
        <ele>722</ele>
        <time>2019-04-13T09:00:14Z</time>
      </trkpt>
      <trkpt lat="48.11912" lon="7.12441">
        <ele>719</ele>
        <time>2019-04-13T09:01:14Z</time>
      </trkpt>
      <trkpt lat="48.11907" lon="7.12448">
        <ele>718</ele>
        <time>2019-04-13T09:02:14Z</time>
      </trkpt>
      <trkpt lat="48.11903" lon="7.12451">
        <ele>717</ele>
        <time>2019-04-13T09:03:14Z</time>
      </trkpt>
      <trkpt lat="48.11893" lon="7.12454">
        <ele>715</ele>
        <time>2019-04-13T09:04:14Z</time>
      </trkpt>
      <trkpt lat="48.11878" lon="7.12454">
        <ele>712</ele>
        <time>2019-04-13T09:05:14Z</time>
      </trkpt>
      <trkpt lat="48.11867" lon="7.12455">
        <ele>710</ele>
        <time>2019-04-13T09:06:14Z</time>
      </trkpt>
      <trkpt lat="48.11859" lon="7.12459">
        <ele>709</ele>
        <time>2019-04-13T09:07:14Z</time>
      </trkpt>
      <trkpt lat="48.1185" lon="7.12468">
        <ele>707</ele>
        <time>2019-04-13T09:08:14Z</time>
      </trkpt>
      <trkpt lat="48.11835" lon="7.12483">
        <ele>705</ele>
        <time>2019-04-13T09:09:14Z</time>
      </trkpt>
      <trkpt lat="48.11819" lon="7.12495">
        <ele>701</ele>
        <time>2019-04-13T09:10:14Z</time>
      </trkpt>
      <trkpt lat="48.11801" lon="7.12508">
        <ele>697</ele>
        <time>2019-04-13T09:11:14Z</time>
      </trkpt>
      <trkpt lat="48.11791" lon="7.12513">
        <ele>694</ele>
        <time>2019-04-13T09:12:14Z</time>
      </trkpt>
      <trkpt lat="48.11781" lon="7.12514">
        <ele>691</ele>
        <time>2019-04-13T09:13:14Z</time>
      </trkpt>
      <trkpt lat="48.11776" lon="7.12511">
        <ele>690</ele>
        <time>2019-04-13T09:14:14Z</time>
      </trkpt>
      <trkpt lat="48.11724" lon="7.12532">
        <ele>676</ele>
        <time>2019-04-13T09:15:14Z</time>
      </trkpt>
      <trkpt lat="48.11709" lon="7.12538">
        <ele>672</ele>
        <time>2019-04-13T09:16:14Z</time>
      </trkpt>
      <trkpt lat="48.11697" lon="7.12551">
        <ele>669</ele>
        <time>2019-04-13T09:17:14Z</time>
      </trkpt>
      <trkpt lat="48.11695" lon="7.12565">
        <ele>667</ele>
        <time>2019-04-13T09:18:14Z</time>
      </trkpt>
      <trkpt lat="48.11697" lon="7.12579">
        <ele>667</ele>
        <time>2019-04-13T09:19:14Z</time>
      </trkpt>
      <trkpt lat="48.11707" lon="7.1259">
        <ele>668</ele>
        <time>2019-04-13T09:20:14Z</time>
      </trkpt>
      <trkpt lat="48.11712" lon="7.126">
        <ele>669</ele>
        <time>2019-04-13T09:21:14Z</time>
      </trkpt>
      <trkpt lat="48.11713" lon="7.12608">
        <ele>668</ele>
        <time>2019-04-13T09:22:14Z</time>
      </trkpt>
      <trkpt lat="48.1171" lon="7.12619">
        <ele>666</ele>
        <time>2019-04-13T09:23:14Z</time>
      </trkpt>
      <trkpt lat="48.1171" lon="7.12619">
        <ele>666</ele>
        <time>2019-04-13T09:24:14Z</time>
      </trkpt>
      <trkpt lat="48.11709" lon="7.12619">
        <ele>666</ele>
        <time>2019-04-13T09:25:14Z</time>
      </trkpt>
      <trkpt lat="48.11698" lon="7.12609">
        <ele>665</ele>
        <time>2019-04-13T09:26:14Z</time>
      </trkpt>
      <trkpt lat="48.11694" lon="7.12608">
        <ele>664</ele>
        <time>2019-04-13T09:27:14Z</time>
      </trkpt>
      <trkpt lat="48.1169" lon="7.12608">
        <ele>663</ele>
        <time>2019-04-13T09:28:14Z</time>
      </trkpt>
      <trkpt lat="48.11682" lon="7.12611">
        <ele>661</ele>
        <time>2019-04-13T09:29:14Z</time>
      </trkpt>
      <trkpt lat="48.11665" lon="7.12622">
        <ele>657</ele>
        <time>2019-04-13T09:30:14Z</time>
      </trkpt>
      <trkpt lat="48.1165" lon="7.12635">
        <ele>657</ele>
        <time>2019-04-13T09:31:14Z</time>
      </trkpt>
      <trkpt lat="48.11636" lon="7.12641">
        <ele>656</ele>
        <time>2019-04-13T09:32:14Z</time>
      </trkpt>
      <trkpt lat="48.11624" lon="7.12646">
        <ele>656</ele>
        <time>2019-04-13T09:33:14Z</time>
      </trkpt>
      <trkpt lat="48.1162" lon="7.12649">
        <ele>656</ele>
        <time>2019-04-13T09:34:14Z</time>
      </trkpt>
      <trkpt lat="48.11612" lon="7.12654">
        <ele>656</ele>
        <time>2019-04-13T09:35:14Z</time>
      </trkpt>
      <trkpt lat="48.11593" lon="7.12663">
        <ele>655</ele>
        <time>2019-04-13T09:36:14Z</time>
      </trkpt>
      <trkpt lat="48.11577" lon="7.1267">
        <ele>655</ele>
        <time>2019-04-13T09:37:14Z</time>
      </trkpt>
      <trkpt lat="48.11561" lon="7.12688">
        <ele>655</ele>
        <time>2019-04-13T09:38:14Z</time>
      </trkpt>
      <trkpt lat="48.1155" lon="7.127">
        <ele>655</ele>
        <time>2019-04-13T09:39:14Z</time>
      </trkpt>
      <trkpt lat="48.11542" lon="7.12711">
        <ele>655</ele>
        <time>2019-04-13T09:40:14Z</time>
      </trkpt>
      <trkpt lat="48.11534" lon="7.12718">
        <ele>656</ele>
        <time>2019-04-13T09:41:14Z</time>
      </trkpt>
      <trkpt lat="48.11528" lon="7.12726">
        <ele>656</ele>
        <time>2019-04-13T09:42:14Z</time>
      </trkpt>
      <trkpt lat="48.11525" lon="7.12735">
        <ele>657</ele>
        <time>2019-04-13T09:43:14Z</time>
      </trkpt>
      <trkpt lat="48.11523" lon="7.12749">
        <ele>657</ele>
        <time>2019-04-13T09:44:14Z</time>
      </trkpt>
      <trkpt lat="48.11521" lon="7.12763">
        <ele>658</ele>
        <time>2019-04-13T09:45:14Z</time>
      </trkpt>
      <trkpt lat="48.11522" lon="7.12778">
        <ele>658</ele>
        <time>2019-04-13T09:46:14Z</time>
      </trkpt>
      <trkpt lat="48.11523" lon="7.12792">
        <ele>658</ele>
        <time>2019-04-13T09:47:14Z</time>
      </trkpt>
      <trkpt lat="48.11523" lon="7.12807">
        <ele>658</ele>
        <time>2019-04-13T09:48:14Z</time>
      </trkpt>
      <trkpt lat="48.11522" lon="7.12824">
        <ele>659</ele>
        <time>2019-04-13T09:49:14Z</time>
      </trkpt>
      <trkpt lat="48.11519" lon="7.12842">
        <ele>660</ele>
        <time>2019-04-13T09:50:14Z</time>
      </trkpt>
      <trkpt lat="48.11515" lon="7.12867">
        <ele>662</ele>
        <time>2019-04-13T09:51:14Z</time>
      </trkpt>
      <trkpt lat="48.11513" lon="7.12888">
        <ele>664</ele>
        <time>2019-04-13T09:52:14Z</time>
      </trkpt>
      <trkpt lat="48.11513" lon="7.12906">
        <ele>665</ele>
        <time>2019-04-13T09:53:14Z</time>
      </trkpt>
      <trkpt lat="48.11513" lon="7.12922">
        <ele>666</ele>
        <time>2019-04-13T09:54:14Z</time>
      </trkpt>
      <trkpt lat="48.11516" lon="7.12946">
        <ele>668</ele>
        <time>2019-04-13T09:55:14Z</time>
      </trkpt>
      <trkpt lat="48.11522" lon="7.1297">
        <ele>668</ele>
        <time>2019-04-13T09:56:14Z</time>
      </trkpt>
      <trkpt lat="48.11531" lon="7.12994">
        <ele>666</ele>
        <time>2019-04-13T09:57:14Z</time>
      </trkpt>
      <trkpt lat="48.1154" lon="7.13017">
        <ele>664</ele>
        <time>2019-04-13T09:58:14Z</time>
      </trkpt>
      <trkpt lat="48.11547" lon="7.13034">
        <ele>662</ele>
        <time>2019-04-13T09:59:14Z</time>
      </trkpt>
      <trkpt lat="48.11554" lon="7.13048">
        <ele>659</ele>
        <time>2019-04-13T10:00:14Z</time>
      </trkpt>
      <trkpt lat="48.11566" lon="7.13078">
        <ele>656</ele>
        <time>2019-04-13T10:01:14Z</time>
      </trkpt>
      <trkpt lat="48.11578" lon="7.13108">
        <ele>651</ele>
        <time>2019-04-13T10:02:14Z</time>
      </trkpt>
      <trkpt lat="48.11584" lon="7.13131">
        <ele>649</ele>
        <time>2019-04-13T10:03:14Z</time>
      </trkpt>
      <trkpt lat="48.11589" lon="7.13147">
        <ele>648</ele>
        <time>2019-04-13T10:04:14Z</time>
      </trkpt>
      <trkpt lat="48.11592" lon="7.13159">
        <ele>648</ele>
        <time>2019-04-13T10:05:14Z</time>
      </trkpt>
      <trkpt lat="48.11594" lon="7.13179">
        <ele>648</ele>
        <time>2019-04-13T10:06:14Z</time>
      </trkpt>
      <trkpt lat="48.11598" lon="7.13211">
        <ele>650</ele>
        <time>2019-04-13T10:07:14Z</time>
      </trkpt>
      <trkpt lat="48.11599" lon="7.13233">
        <ele>652</ele>
        <time>2019-04-13T10:08:14Z</time>
      </trkpt>
      <trkpt lat="48.11604" lon="7.13269">
        <ele>653</ele>
        <time>2019-04-13T10:09:14Z</time>
      </trkpt>
      <trkpt lat="48.11607" lon="7.13299">
        <ele>654</ele>
        <time>2019-04-13T10:10:14Z</time>
      </trkpt>
      <trkpt lat="48.11614" lon="7.13361">
        <ele>656</ele>
        <time>2019-04-13T10:11:14Z</time>
      </trkpt>
      <trkpt lat="48.1162" lon="7.13415">
        <ele>658</ele>
        <time>2019-04-13T10:12:14Z</time>
      </trkpt>
      <trkpt lat="48.11626" lon="7.13465">
        <ele>660</ele>
        <time>2019-04-13T10:13:14Z</time>
      </trkpt>
      <trkpt lat="48.11633" lon="7.13514">
        <ele>658</ele>
        <time>2019-04-13T10:14:14Z</time>
      </trkpt>
      <trkpt lat="48.11637" lon="7.1355">
        <ele>656</ele>
        <time>2019-04-13T10:15:14Z</time>
      </trkpt>
      <trkpt lat="48.11639" lon="7.13589">
        <ele>655</ele>
        <time>2019-04-13T10:16:14Z</time>
      </trkpt>
      <trkpt lat="48.1164" lon="7.13623">
        <ele>655</ele>
        <time>2019-04-13T10:17:14Z</time>
      </trkpt>
      <trkpt lat="48.11639" lon="7.13649">
        <ele>655</ele>
        <time>2019-04-13T10:18:14Z</time>
      </trkpt>
      <trkpt lat="48.11635" lon="7.13674">
        <ele>655</ele>
        <time>2019-04-13T10:19:14Z</time>
      </trkpt>
      <trkpt lat="48.11632" lon="7.1369">
        <ele>655</ele>
        <time>2019-04-13T10:20:14Z</time>
      </trkpt>
      <trkpt lat="48.11624" lon="7.13708">
        <ele>656</ele>
        <time>2019-04-13T10:21:14Z</time>
      </trkpt>
      <trkpt lat="48.11615" lon="7.13724">
        <ele>657</ele>
        <time>2019-04-13T10:22:14Z</time>
      </trkpt>
      <trkpt lat="48.11604" lon="7.13739">
        <ele>658</ele>
        <time>2019-04-13T10:23:14Z</time>
      </trkpt>
      <trkpt lat="48.11593" lon="7.13752">
        <ele>659</ele>
        <time>2019-04-13T10:24:14Z</time>
      </trkpt>
      <trkpt lat="48.11575" lon="7.13771">
        <ele>660</ele>
        <time>2019-04-13T10:25:14Z</time>
      </trkpt>
      <trkpt lat="48.11553" lon="7.13786">
        <ele>662</ele>
        <time>2019-04-13T10:26:14Z</time>
      </trkpt>
      <trkpt lat="48.11536" lon="7.13801">
        <ele>663</ele>
        <time>2019-04-13T10:27:14Z</time>
      </trkpt>
      <trkpt lat="48.11517" lon="7.13819">
        <ele>664</ele>
        <time>2019-04-13T10:28:14Z</time>
      </trkpt>
      <trkpt lat="48.115" lon="7.13834">
        <ele>664</ele>
        <time>2019-04-13T10:29:14Z</time>
      </trkpt>
      <trkpt lat="48.11492" lon="7.13848">
        <ele>664</ele>
        <time>2019-04-13T10:30:14Z</time>
      </trkpt>
      <trkpt lat="48.11484" lon="7.13864">
        <ele>664</ele>
        <time>2019-04-13T10:31:14Z</time>
      </trkpt>
      <trkpt lat="48.11479" lon="7.13878">
        <ele>664</ele>
        <time>2019-04-13T10:32:14Z</time>
      </trkpt>
      <trkpt lat="48.11475" lon="7.13893">
        <ele>663</ele>
        <time>2019-04-13T10:33:14Z</time>
      </trkpt>
      <trkpt lat="48.11471" lon="7.13907">
        <ele>661</ele>
        <time>2019-04-13T10:34:14Z</time>
      </trkpt>
      <trkpt lat="48.11466" lon="7.13914">
        <ele>661</ele>
        <time>2019-04-13T10:35:14Z</time>
      </trkpt>
      <trkpt lat="48.11461" lon="7.13918">
        <ele>661</ele>
        <time>2019-04-13T10:36:14Z</time>
      </trkpt>
      <trkpt lat="48.11457" lon="7.13919">
        <ele>662</ele>
        <time>2019-04-13T10:37:14Z</time>
      </trkpt>
      <trkpt lat="48.11448" lon="7.13922">
        <ele>663</ele>
        <time>2019-04-13T10:38:14Z</time>
      </trkpt>
      <trkpt lat="48.11436" lon="7.13927">
        <ele>664</ele>
        <time>2019-04-13T10:39:14Z</time>
      </trkpt>
      <trkpt lat="48.11421" lon="7.13937">
        <ele>664</ele>
        <time>2019-04-13T10:40:14Z</time>
      </trkpt>
      <trkpt lat="48.11411" lon="7.13947">
        <ele>665</ele>
        <time>2019-04-13T10:41:14Z</time>
      </trkpt>
      <trkpt lat="48.114" lon="7.13961">
        <ele>666</ele>
        <time>2019-04-13T10:42:14Z</time>
      </trkpt>
      <trkpt lat="48.1139" lon="7.13981">
        <ele>665</ele>
        <time>2019-04-13T10:43:14Z</time>
      </trkpt>
      <trkpt lat="48.11379" lon="7.14002">
        <ele>665</ele>
        <time>2019-04-13T10:44:14Z</time>
      </trkpt>
      <trkpt lat="48.11373" lon="7.14012">
        <ele>664</ele>
        <time>2019-04-13T10:45:14Z</time>
      </trkpt>
      <trkpt lat="48.11362" lon="7.14019">
        <ele>665</ele>
        <time>2019-04-13T10:46:14Z</time>
      </trkpt>
      <trkpt lat="48.11348" lon="7.14029">
        <ele>666</ele>
        <time>2019-04-13T10:47:14Z</time>
      </trkpt>
      <trkpt lat="48.11338" lon="7.14035">
        <ele>666</ele>
        <time>2019-04-13T10:48:14Z</time>
      </trkpt>
      <trkpt lat="48.11333" lon="7.14042">
        <ele>665</ele>
        <time>2019-04-13T10:49:14Z</time>
      </trkpt>
      <trkpt lat="48.1133" lon="7.1405">
        <ele>663</ele>
        <time>2019-04-13T10:50:14Z</time>
      </trkpt>
      <trkpt lat="48.11325" lon="7.14062">
        <ele>660</ele>
        <time>2019-04-13T10:51:14Z</time>
      </trkpt>
      <trkpt lat="48.11322" lon="7.14072">
        <ele>657</ele>
        <time>2019-04-13T10:52:14Z</time>
      </trkpt>
      <trkpt lat="48.11304" lon="7.14092">
        <ele>656</ele>
        <time>2019-04-13T10:53:14Z</time>
      </trkpt>
      <trkpt lat="48.11289" lon="7.14107">
        <ele>655</ele>
        <time>2019-04-13T10:54:14Z</time>
      </trkpt>
      <trkpt lat="48.1128" lon="7.14113">
        <ele>655</ele>
        <time>2019-04-13T10:55:14Z</time>
      </trkpt>
      <trkpt lat="48.11262" lon="7.1412">
        <ele>656</ele>
        <time>2019-04-13T10:56:14Z</time>
      </trkpt>
      <trkpt lat="48.11243" lon="7.14129">
        <ele>655</ele>
        <time>2019-04-13T10:57:14Z</time>
      </trkpt>
      <trkpt lat="48.11225" lon="7.14137">
        <ele>652</ele>
        <time>2019-04-13T10:58:14Z</time>
      </trkpt>
      <trkpt lat="48.11208" lon="7.14139">
        <ele>650</ele>
        <time>2019-04-13T10:59:14Z</time>
      </trkpt>
      <trkpt lat="48.11193" lon="7.14137">
        <ele>650</ele>
        <time>2019-04-13T11:00:14Z</time>
      </trkpt>
      <trkpt lat="48.11183" lon="7.14134">
        <ele>650</ele>
        <time>2019-04-13T11:01:14Z</time>
      </trkpt>
      <trkpt lat="48.11164" lon="7.14129">
        <ele>650</ele>
        <time>2019-04-13T11:02:14Z</time>
      </trkpt>
      <trkpt lat="48.11137" lon="7.14121">
        <ele>648</ele>
        <time>2019-04-13T11:03:14Z</time>
      </trkpt>
      <trkpt lat="48.11114" lon="7.14118">
        <ele>645</ele>
        <time>2019-04-13T11:04:14Z</time>
      </trkpt>
      <trkpt lat="48.11097" lon="7.14119">
        <ele>641</ele>
        <time>2019-04-13T11:05:14Z</time>
      </trkpt>
      <trkpt lat="48.11078" lon="7.14122">
        <ele>638</ele>
        <time>2019-04-13T11:06:14Z</time>
      </trkpt>
      <trkpt lat="48.11069" lon="7.14124">
        <ele>637</ele>
        <time>2019-04-13T11:07:14Z</time>
      </trkpt>
      <trkpt lat="48.11051" lon="7.14128">
        <ele>636</ele>
        <time>2019-04-13T11:08:14Z</time>
      </trkpt>
      <trkpt lat="48.11032" lon="7.14129">
        <ele>636</ele>
        <time>2019-04-13T11:09:14Z</time>
      </trkpt>
      <trkpt lat="48.11013" lon="7.14131">
        <ele>636</ele>
        <time>2019-04-13T11:10:14Z</time>
      </trkpt>
      <trkpt lat="48.11008" lon="7.14135">
        <ele>635</ele>
        <time>2019-04-13T11:11:14Z</time>
      </trkpt>
      <trkpt lat="48.11001" lon="7.14144">
        <ele>633</ele>
        <time>2019-04-13T11:12:14Z</time>
      </trkpt>
      <trkpt lat="48.10995" lon="7.14162">
        <ele>628</ele>
        <time>2019-04-13T11:13:14Z</time>
      </trkpt>
      <trkpt lat="48.10995" lon="7.14162">
        <ele>628</ele>
        <time>2019-04-13T11:14:14Z</time>
      </trkpt>
      <trkpt lat="48.10986" lon="7.14158">
        <ele>630</ele>
        <time>2019-04-13T11:15:14Z</time>
      </trkpt>
      <trkpt lat="48.10975" lon="7.14158">
        <ele>631</ele>
        <time>2019-04-13T11:16:14Z</time>
      </trkpt>
      <trkpt lat="48.10963" lon="7.14157">
        <ele>632</ele>
        <time>2019-04-13T11:17:14Z</time>
      </trkpt>
      <trkpt lat="48.10957" lon="7.14156">
        <ele>632</ele>
        <time>2019-04-13T11:18:14Z</time>
      </trkpt>
      <trkpt lat="48.1095" lon="7.14158">
        <ele>633</ele>
        <time>2019-04-13T11:19:14Z</time>
      </trkpt>
      <trkpt lat="48.1094" lon="7.14157">
        <ele>634</ele>
        <time>2019-04-13T11:20:14Z</time>
      </trkpt>
      <trkpt lat="48.1093" lon="7.14152">
        <ele>636</ele>
        <time>2019-04-13T11:21:14Z</time>
      </trkpt>
      <trkpt lat="48.10923" lon="7.14147">
        <ele>637</ele>
        <time>2019-04-13T11:22:14Z</time>
      </trkpt>
      <trkpt lat="48.10918" lon="7.14146">
        <ele>638</ele>
        <time>2019-04-13T11:23:14Z</time>
      </trkpt>
      <trkpt lat="48.10899" lon="7.14142">
        <ele>639</ele>
        <time>2019-04-13T11:24:14Z</time>
      </trkpt>
      <trkpt lat="48.10879" lon="7.14136">
        <ele>640</ele>
        <time>2019-04-13T11:25:14Z</time>
      </trkpt>
      <trkpt lat="48.10862" lon="7.1413">
        <ele>640</ele>
        <time>2019-04-13T11:26:14Z</time>
      </trkpt>
      <trkpt lat="48.10848" lon="7.1412">
        <ele>642</ele>
        <time>2019-04-13T11:27:14Z</time>
      </trkpt>
      <trkpt lat="48.10831" lon="7.14108">
        <ele>644</ele>
        <time>2019-04-13T11:28:14Z</time>
      </trkpt>
      <trkpt lat="48.10809" lon="7.1409">
        <ele>645</ele>
        <time>2019-04-13T11:29:14Z</time>
      </trkpt>
      <trkpt lat="48.10797" lon="7.14079">
        <ele>646</ele>
        <time>2019-04-13T11:30:14Z</time>
      </trkpt>
      <trkpt lat="48.1079" lon="7.14078">
        <ele>645</ele>
        <time>2019-04-13T11:31:14Z</time>
      </trkpt>
      <trkpt lat="48.10772" lon="7.14074">
        <ele>644</ele>
        <time>2019-04-13T11:32:14Z</time>
      </trkpt>
      <trkpt lat="48.1075" lon="7.14067">
        <ele>642</ele>
        <time>2019-04-13T11:33:14Z</time>
      </trkpt>
      <trkpt lat="48.10731" lon="7.14065">
        <ele>638</ele>
        <time>2019-04-13T11:34:14Z</time>
      </trkpt>
      <trkpt lat="48.10726" lon="7.14064">
        <ele>637</ele>
        <time>2019-04-13T11:35:14Z</time>
      </trkpt>
      <trkpt lat="48.10718" lon="7.14055">
        <ele>636</ele>
        <time>2019-04-13T11:36:14Z</time>
      </trkpt>
      <trkpt lat="48.10715" lon="7.14056">
        <ele>635</ele>
        <time>2019-04-13T11:37:14Z</time>
      </trkpt>
      <trkpt lat="48.10712" lon="7.14055">
        <ele>634</ele>
        <time>2019-04-13T11:38:14Z</time>
      </trkpt>
      <trkpt lat="48.10707" lon="7.14051">
        <ele>634</ele>
        <time>2019-04-13T11:39:14Z</time>
      </trkpt>
      <trkpt lat="48.10695" lon="7.14037">
        <ele>632</ele>
        <time>2019-04-13T11:40:14Z</time>
      </trkpt>
      <trkpt lat="48.10687" lon="7.14024">
        <ele>632</ele>
        <time>2019-04-13T11:41:14Z</time>
      </trkpt>
      <trkpt lat="48.10681" lon="7.14014">
        <ele>631</ele>
        <time>2019-04-13T11:42:14Z</time>
      </trkpt>
      <trkpt lat="48.10674" lon="7.13995">
        <ele>631</ele>
        <time>2019-04-13T11:43:14Z</time>
      </trkpt>
      <trkpt lat="48.10668" lon="7.13977">
        <ele>632</ele>
        <time>2019-04-13T11:44:14Z</time>
      </trkpt>
      <trkpt lat="48.10661" lon="7.1396">
        <ele>633</ele>
        <time>2019-04-13T11:45:14Z</time>
      </trkpt>
      <trkpt lat="48.10652" lon="7.13944">
        <ele>634</ele>
        <time>2019-04-13T11:46:14Z</time>
      </trkpt>
      <trkpt lat="48.10645" lon="7.1394">
        <ele>634</ele>
        <time>2019-04-13T11:47:14Z</time>
      </trkpt>
      <trkpt lat="48.10636" lon="7.13939">
        <ele>634</ele>
        <time>2019-04-13T11:48:14Z</time>
      </trkpt>
      <trkpt lat="48.1063" lon="7.13943">
        <ele>633</ele>
        <time>2019-04-13T11:49:14Z</time>
      </trkpt>
      <trkpt lat="48.10626" lon="7.1395">
        <ele>632</ele>
        <time>2019-04-13T11:50:14Z</time>
      </trkpt>
      <trkpt lat="48.10618" lon="7.13955">
        <ele>630</ele>
        <time>2019-04-13T11:51:14Z</time>
      </trkpt>
      <trkpt lat="48.10609" lon="7.13959">
        <ele>629</ele>
        <time>2019-04-13T11:52:14Z</time>
      </trkpt>
      <trkpt lat="48.10596" lon="7.13964">
        <ele>627</ele>
        <time>2019-04-13T11:53:14Z</time>
      </trkpt>
      <trkpt lat="48.10584" lon="7.13966">
        <ele>626</ele>
        <time>2019-04-13T11:54:14Z</time>
      </trkpt>
      <trkpt lat="48.10575" lon="7.13965">
        <ele>625</ele>
        <time>2019-04-13T11:55:14Z</time>
      </trkpt>
      <trkpt lat="48.10568" lon="7.13962">
        <ele>626</ele>
        <time>2019-04-13T11:56:14Z</time>
      </trkpt>
      <trkpt lat="48.10558" lon="7.13952">
        <ele>627</ele>
        <time>2019-04-13T11:57:14Z</time>
      </trkpt>
      <trkpt lat="48.10546" lon="7.13943">
        <ele>627</ele>
        <time>2019-04-13T11:58:14Z</time>
      </trkpt>
      <trkpt lat="48.10531" lon="7.13934">
        <ele>627</ele>
        <time>2019-04-13T11:59:14Z</time>
      </trkpt>
      <trkpt lat="48.10523" lon="7.13934">
        <ele>626</ele>
        <time>2019-04-13T12:00:14Z</time>
      </trkpt>
      <trkpt lat="48.10518" lon="7.13937">
        <ele>625</ele>
        <time>2019-04-13T12:01:14Z</time>
      </trkpt>
      <trkpt lat="48.1051" lon="7.13951">
        <ele>624</ele>
        <time>2019-04-13T12:02:14Z</time>
      </trkpt>
      <trkpt lat="48.1051" lon="7.13951">
        <ele>624</ele>
        <time>2019-04-13T12:03:14Z</time>
      </trkpt>
      <trkpt lat="48.10537" lon="7.1398">
        <ele>622</ele>
        <time>2019-04-13T12:04:14Z</time>
      </trkpt>
      <trkpt lat="48.10568" lon="7.14012">
        <ele>619</ele>
        <time>2019-04-13T12:05:14Z</time>
      </trkpt>
      <trkpt lat="48.10603" lon="7.1405">
        <ele>618</ele>
        <time>2019-04-13T12:06:14Z</time>
      </trkpt>
      <trkpt lat="48.10631" lon="7.14082">
        <ele>618</ele>
        <time>2019-04-13T12:07:14Z</time>
      </trkpt>
      <trkpt lat="48.10638" lon="7.14094">
        <ele>618</ele>
        <time>2019-04-13T12:08:14Z</time>
      </trkpt>
      <trkpt lat="48.10638" lon="7.14094">
        <ele>618</ele>
        <time>2019-04-13T12:09:14Z</time>
      </trkpt>
      <trkpt lat="48.10633" lon="7.14095">
        <ele>617</ele>
        <time>2019-04-13T12:10:14Z</time>
      </trkpt>
      <trkpt lat="48.10626" lon="7.14095">
        <ele>617</ele>
        <time>2019-04-13T12:11:14Z</time>
      </trkpt>
      <trkpt lat="48.10622" lon="7.14095">
        <ele>617</ele>
        <time>2019-04-13T12:12:14Z</time>
      </trkpt>
      <trkpt lat="48.10621" lon="7.14096">
        <ele>617</ele>
        <time>2019-04-13T12:13:14Z</time>
      </trkpt>
      <trkpt lat="48.10618" lon="7.14105">
        <ele>616</ele>
        <time>2019-04-13T12:14:14Z</time>
      </trkpt>
      <trkpt lat="48.10613" lon="7.14127">
        <ele>615</ele>
        <time>2019-04-13T12:15:14Z</time>
      </trkpt>
      <trkpt lat="48.10611" lon="7.14138">
        <ele>615</ele>
        <time>2019-04-13T12:16:14Z</time>
      </trkpt>
      <trkpt lat="48.10609" lon="7.14141">
        <ele>615</ele>
        <time>2019-04-13T12:17:14Z</time>
      </trkpt>
      <trkpt lat="48.10599" lon="7.14147">
        <ele>615</ele>
        <time>2019-04-13T12:18:14Z</time>
      </trkpt>
      <trkpt lat="48.10583" lon="7.14152">
        <ele>615</ele>
        <time>2019-04-13T12:19:14Z</time>
      </trkpt>
      <trkpt lat="48.10564" lon="7.14161">
        <ele>618</ele>
        <time>2019-04-13T12:20:14Z</time>
      </trkpt>
      <trkpt lat="48.10555" lon="7.14164">
        <ele>620</ele>
        <time>2019-04-13T12:21:14Z</time>
      </trkpt>
      <trkpt lat="48.10537" lon="7.14165">
        <ele>623</ele>
        <time>2019-04-13T12:22:14Z</time>
      </trkpt>
      <trkpt lat="48.10519" lon="7.14165">
        <ele>626</ele>
        <time>2019-04-13T12:23:14Z</time>
      </trkpt>
      <trkpt lat="48.10501" lon="7.14166">
        <ele>629</ele>
        <time>2019-04-13T12:24:14Z</time>
      </trkpt>
      <trkpt lat="48.10489" lon="7.14168">
        <ele>633</ele>
        <time>2019-04-13T12:25:14Z</time>
      </trkpt>
      <trkpt lat="48.10484" lon="7.14168">
        <ele>635</ele>
        <time>2019-04-13T12:26:14Z</time>
      </trkpt>
      <trkpt lat="48.10474" lon="7.14167">
        <ele>639</ele>
        <time>2019-04-13T12:27:14Z</time>
      </trkpt>
      <trkpt lat="48.10472" lon="7.14167">
        <ele>640</ele>
        <time>2019-04-13T12:28:14Z</time>
      </trkpt>
      <trkpt lat="48.10456" lon="7.14157">
        <ele>645</ele>
        <time>2019-04-13T12:29:14Z</time>
      </trkpt>
      <trkpt lat="48.10443" lon="7.14166">
        <ele>651</ele>
        <time>2019-04-13T12:30:14Z</time>
      </trkpt>
      <trkpt lat="48.10435" lon="7.14178">
        <ele>656</ele>
        <time>2019-04-13T12:31:14Z</time>
      </trkpt>
      <trkpt lat="48.1043" lon="7.14202">
        <ele>662</ele>
        <time>2019-04-13T12:32:14Z</time>
      </trkpt>
      <trkpt lat="48.10436" lon="7.14266">
        <ele>668</ele>
        <time>2019-04-13T12:33:14Z</time>
      </trkpt>
      <trkpt lat="48.10447" lon="7.14365">
        <ele>675</ele>
        <time>2019-04-13T12:34:14Z</time>
      </trkpt>
      <trkpt lat="48.10446" lon="7.14383">
        <ele>677</ele>
        <time>2019-04-13T12:35:14Z</time>
      </trkpt>
      <trkpt lat="48.10446" lon="7.14383">
        <ele>677</ele>
        <time>2019-04-13T12:36:14Z</time>
      </trkpt>
      <trkpt lat="48.10449" lon="7.14389">
        <ele>676</ele>
        <time>2019-04-13T12:37:14Z</time>
      </trkpt>
      <trkpt lat="48.10452" lon="7.14396">
        <ele>676</ele>
        <time>2019-04-13T12:38:14Z</time>
      </trkpt>
      <trkpt lat="48.10454" lon="7.14407">
        <ele>677</ele>
        <time>2019-04-13T12:39:14Z</time>
      </trkpt>
      <trkpt lat="48.10456" lon="7.14422">
        <ele>677</ele>
        <time>2019-04-13T12:40:14Z</time>
      </trkpt>
      <trkpt lat="48.10461" lon="7.14435">
        <ele>678</ele>
        <time>2019-04-13T12:41:14Z</time>
      </trkpt>
      <trkpt lat="48.10466" lon="7.14452">
        <ele>678</ele>
        <time>2019-04-13T12:42:14Z</time>
      </trkpt>
      <trkpt lat="48.1047" lon="7.14465">
        <ele>678</ele>
        <time>2019-04-13T12:43:14Z</time>
      </trkpt>
      <trkpt lat="48.10474" lon="7.14478">
        <ele>679</ele>
        <time>2019-04-13T12:44:14Z</time>
      </trkpt>
      <trkpt lat="48.10479" lon="7.14487">
        <ele>678</ele>
        <time>2019-04-13T12:45:14Z</time>
      </trkpt>
      <trkpt lat="48.1049" lon="7.14507">
        <ele>677</ele>
        <time>2019-04-13T12:46:14Z</time>
      </trkpt>
      <trkpt lat="48.10498" lon="7.14526">
        <ele>678</ele>
        <time>2019-04-13T12:47:14Z</time>
      </trkpt>
      <trkpt lat="48.10508" lon="7.14545">
        <ele>677</ele>
        <time>2019-04-13T12:48:14Z</time>
      </trkpt>
      <trkpt lat="48.10514" lon="7.14561">
        <ele>678</ele>
        <time>2019-04-13T12:49:14Z</time>
      </trkpt>
      <trkpt lat="48.10518" lon="7.14576">
        <ele>679</ele>
        <time>2019-04-13T12:50:14Z</time>
      </trkpt>
      <trkpt lat="48.10522" lon="7.14585">
        <ele>679</ele>
        <time>2019-04-13T12:51:14Z</time>
      </trkpt>
      <trkpt lat="48.10525" lon="7.14593">
        <ele>680</ele>
        <time>2019-04-13T12:52:14Z</time>
      </trkpt>
      <trkpt lat="48.10537" lon="7.14607">
        <ele>678</ele>
        <time>2019-04-13T12:53:14Z</time>
      </trkpt>
      <trkpt lat="48.10548" lon="7.14615">
        <ele>677</ele>
        <time>2019-04-13T12:54:14Z</time>
      </trkpt>
      <trkpt lat="48.10556" lon="7.14622">
        <ele>676</ele>
        <time>2019-04-13T12:55:14Z</time>
      </trkpt>
      <trkpt lat="48.10556" lon="7.14622">
        <ele>676</ele>
        <time>2019-04-13T12:56:14Z</time>
      </trkpt>
      <trkpt lat="48.10583" lon="7.14674">
        <ele>679</ele>
        <time>2019-04-13T12:57:14Z</time>
      </trkpt>
      <trkpt lat="48.10624" lon="7.1473">
        <ele>677</ele>
        <time>2019-04-13T12:58:14Z</time>
      </trkpt>
      <trkpt lat="48.1065" lon="7.14784">
        <ele>682</ele>
        <time>2019-04-13T12:59:14Z</time>
      </trkpt>
      <trkpt lat="48.10672" lon="7.14816">
        <ele>686</ele>
        <time>2019-04-13T13:00:14Z</time>
      </trkpt>
      <trkpt lat="48.10765" lon="7.14828">
        <ele>672</ele>
        <time>2019-04-13T13:01:14Z</time>
      </trkpt>
      <trkpt lat="48.10784" lon="7.14822">
        <ele>667</ele>
        <time>2019-04-13T13:02:14Z</time>
      </trkpt>
      <trkpt lat="48.10792" lon="7.1482">
        <ele>665</ele>
        <time>2019-04-13T13:03:14Z</time>
      </trkpt>
      <trkpt lat="48.10802" lon="7.14821">
        <ele>663</ele>
        <time>2019-04-13T13:04:14Z</time>
      </trkpt>
      <trkpt lat="48.1081" lon="7.14822">
        <ele>662</ele>
        <time>2019-04-13T13:05:14Z</time>
      </trkpt>
      <trkpt lat="48.10814" lon="7.14825">
        <ele>662</ele>
        <time>2019-04-13T13:06:14Z</time>
      </trkpt>
      <trkpt lat="48.10821" lon="7.14829">
        <ele>661</ele>
        <time>2019-04-13T13:07:14Z</time>
      </trkpt>
      <trkpt lat="48.1083" lon="7.14833">
        <ele>661</ele>
        <time>2019-04-13T13:08:14Z</time>
      </trkpt>
      <trkpt lat="48.1084" lon="7.14835">
        <ele>659</ele>
        <time>2019-04-13T13:09:14Z</time>
      </trkpt>
      <trkpt lat="48.1085" lon="7.14841">
        <ele>659</ele>
        <time>2019-04-13T13:10:14Z</time>
      </trkpt>
      <trkpt lat="48.1085" lon="7.14841">
        <ele>659</ele>
        <time>2019-04-13T13:11:14Z</time>
      </trkpt>
      <trkpt lat="48.10834" lon="7.14843">
        <ele>663</ele>
        <time>2019-04-13T13:12:14Z</time>
      </trkpt>
      <trkpt lat="48.1083" lon="7.14844">
        <ele>664</ele>
        <time>2019-04-13T13:13:14Z</time>
      </trkpt>
      <trkpt lat="48.10826" lon="7.14845">
        <ele>666</ele>
        <time>2019-04-13T13:14:14Z</time>
      </trkpt>
      <trkpt lat="48.10824" lon="7.14851">
        <ele>668</ele>
        <time>2019-04-13T13:15:14Z</time>
      </trkpt>
      <trkpt lat="48.10824" lon="7.14857">
        <ele>670</ele>
        <time>2019-04-13T13:16:14Z</time>
      </trkpt>
      <trkpt lat="48.10828" lon="7.14865">
        <ele>672</ele>
        <time>2019-04-13T13:17:14Z</time>
      </trkpt>
      <trkpt lat="48.10843" lon="7.14896">
        <ele>680</ele>
        <time>2019-04-13T13:18:14Z</time>
      </trkpt>
      <trkpt lat="48.1086" lon="7.14922">
        <ele>685</ele>
        <time>2019-04-13T13:19:14Z</time>
      </trkpt>
      <trkpt lat="48.10889" lon="7.14958">
        <ele>691</ele>
        <time>2019-04-13T13:20:14Z</time>
      </trkpt>
      <trkpt lat="48.10927" lon="7.14986">
        <ele>692</ele>
        <time>2019-04-13T13:21:14Z</time>
      </trkpt>
      <trkpt lat="48.10951" lon="7.15016">
        <ele>692</ele>
        <time>2019-04-13T13:22:14Z</time>
      </trkpt>
      <trkpt lat="48.10974" lon="7.15071">
        <ele>696</ele>
        <time>2019-04-13T13:23:14Z</time>
      </trkpt>
      <trkpt lat="48.10986" lon="7.15125">
        <ele>702</ele>
        <time>2019-04-13T13:24:14Z</time>
      </trkpt>
      <trkpt lat="48.10994" lon="7.15138">
        <ele>702</ele>
        <time>2019-04-13T13:25:14Z</time>
      </trkpt>
      <trkpt lat="48.10996" lon="7.15145">
        <ele>702</ele>
        <time>2019-04-13T13:26:14Z</time>
      </trkpt>
      <trkpt lat="48.11" lon="7.15163">
        <ele>704</ele>
        <time>2019-04-13T13:27:14Z</time>
      </trkpt>
      <trkpt lat="48.11003" lon="7.15176">
        <ele>706</ele>
        <time>2019-04-13T13:28:14Z</time>
      </trkpt>
      <trkpt lat="48.11006" lon="7.15184">
        <ele>707</ele>
        <time>2019-04-13T13:29:14Z</time>
      </trkpt>
      <trkpt lat="48.11012" lon="7.15191">
        <ele>707</ele>
        <time>2019-04-13T13:30:14Z</time>
      </trkpt>
      <trkpt lat="48.11027" lon="7.152">
        <ele>706</ele>
        <time>2019-04-13T13:31:14Z</time>
      </trkpt>
      <trkpt lat="48.11043" lon="7.15203">
        <ele>704</ele>
        <time>2019-04-13T13:32:14Z</time>
      </trkpt>
      <trkpt lat="48.1106" lon="7.15212">
        <ele>703</ele>
        <time>2019-04-13T13:33:14Z</time>
      </trkpt>
      <trkpt lat="48.11084" lon="7.15223">
        <ele>702</ele>
        <time>2019-04-13T13:34:14Z</time>
      </trkpt>
      <trkpt lat="48.11091" lon="7.15224">
        <ele>702</ele>
        <time>2019-04-13T13:35:14Z</time>
      </trkpt>
      <trkpt lat="48.11102" lon="7.1522">
        <ele>703</ele>
        <time>2019-04-13T13:36:14Z</time>
      </trkpt>
      <trkpt lat="48.11129" lon="7.15217">
        <ele>704</ele>
        <time>2019-04-13T13:37:14Z</time>
      </trkpt>
      <trkpt lat="48.11129" lon="7.15217">
        <ele>704</ele>
        <time>2019-04-13T13:38:14Z</time>
      </trkpt>
      <trkpt lat="48.11115" lon="7.15239">
        <ele>706</ele>
        <time>2019-04-13T13:39:14Z</time>
      </trkpt>
      <trkpt lat="48.11106" lon="7.15263">
        <ele>710</ele>
        <time>2019-04-13T13:40:14Z</time>
      </trkpt>
      <trkpt lat="48.11104" lon="7.15291">
        <ele>715</ele>
        <time>2019-04-13T13:41:14Z</time>
      </trkpt>
      <trkpt lat="48.11103" lon="7.15326">
        <ele>721</ele>
        <time>2019-04-13T13:42:14Z</time>
      </trkpt>
      <trkpt lat="48.11098" lon="7.15357">
        <ele>726</ele>
        <time>2019-04-13T13:43:14Z</time>
      </trkpt>
      <trkpt lat="48.11108" lon="7.1549">
        <ele>741</ele>
        <time>2019-04-13T13:44:14Z</time>
      </trkpt>
      <trkpt lat="48.11112" lon="7.15546">
        <ele>745</ele>
        <time>2019-04-13T13:45:14Z</time>
      </trkpt>
      <trkpt lat="48.11112" lon="7.15546">
        <ele>745</ele>
        <time>2019-04-13T13:46:14Z</time>
      </trkpt>
      <trkpt lat="48.11186" lon="7.15521">
        <ele>740</ele>
        <time>2019-04-13T13:47:14Z</time>
      </trkpt>
      <trkpt lat="48.11204" lon="7.15521">
        <ele>741</ele>
        <time>2019-04-13T13:48:14Z</time>
      </trkpt>
      <trkpt lat="48.11246" lon="7.15538">
        <ele>742</ele>
        <time>2019-04-13T13:49:14Z</time>
      </trkpt>
      <trkpt lat="48.11288" lon="7.15564">
        <ele>743</ele>
        <time>2019-04-13T13:50:14Z</time>
      </trkpt>
      <trkpt lat="48.11298" lon="7.1557">
        <ele>743</ele>
        <time>2019-04-13T13:51:14Z</time>
      </trkpt>
      <trkpt lat="48.11298" lon="7.1557">
        <ele>743</ele>
        <time>2019-04-13T13:52:14Z</time>
      </trkpt>
      <trkpt lat="48.11348" lon="7.15601">
        <ele>742</ele>
        <time>2019-04-13T13:53:14Z</time>
      </trkpt>
      <trkpt lat="48.11379" lon="7.15608">
        <ele>741</ele>
        <time>2019-04-13T13:54:14Z</time>
      </trkpt>
      <trkpt lat="48.11422" lon="7.15597">
        <ele>744</ele>
        <time>2019-04-13T13:55:14Z</time>
      </trkpt>
      <trkpt lat="48.11437" lon="7.15596">
        <ele>743</ele>
        <time>2019-04-13T13:56:14Z</time>
      </trkpt>
      <trkpt lat="48.11449" lon="7.15612">
        <ele>738</ele>
        <time>2019-04-13T13:57:14Z</time>
      </trkpt>
      <trkpt lat="48.11475" lon="7.15686">
        <ele>727</ele>
        <time>2019-04-13T13:58:14Z</time>
      </trkpt>
      <trkpt lat="48.11484" lon="7.15703">
        <ele>726</ele>
        <time>2019-04-13T13:59:14Z</time>
      </trkpt>
      <trkpt lat="48.11495" lon="7.15714">
        <ele>725</ele>
        <time>2019-04-13T14:00:14Z</time>
      </trkpt>
      <trkpt lat="48.11508" lon="7.15717">
        <ele>723</ele>
        <time>2019-04-13T14:01:14Z</time>
      </trkpt>
      <trkpt lat="48.11582" lon="7.15742">
        <ele>710</ele>
        <time>2019-04-13T14:02:14Z</time>
      </trkpt>
      <trkpt lat="48.11666" lon="7.15789">
        <ele>695</ele>
        <time>2019-04-13T14:03:14Z</time>
      </trkpt>
      <trkpt lat="48.11741" lon="7.15822">
        <ele>686</ele>
        <time>2019-04-13T14:04:14Z</time>
      </trkpt>
      <trkpt lat="48.11759" lon="7.15824">
        <ele>683</ele>
        <time>2019-04-13T14:05:14Z</time>
      </trkpt>
      <trkpt lat="48.1178" lon="7.15833">
        <ele>681</ele>
        <time>2019-04-13T14:06:14Z</time>
      </trkpt>
      <trkpt lat="48.11826" lon="7.15867">
        <ele>676</ele>
        <time>2019-04-13T14:07:14Z</time>
      </trkpt>
      <trkpt lat="48.11851" lon="7.15885">
        <ele>676</ele>
        <time>2019-04-13T14:08:14Z</time>
      </trkpt>
      <trkpt lat="48.11876" lon="7.15908">
        <ele>676</ele>
        <time>2019-04-13T14:09:14Z</time>
      </trkpt>
      <trkpt lat="48.11907" lon="7.15935">
        <ele>674</ele>
        <time>2019-04-13T14:10:14Z</time>
      </trkpt>
      <trkpt lat="48.11944" lon="7.15977">
        <ele>667</ele>
        <time>2019-04-13T14:11:14Z</time>
      </trkpt>
      <trkpt lat="48.11966" lon="7.15981">
        <ele>663</ele>
        <time>2019-04-13T14:12:14Z</time>
      </trkpt>
      <trkpt lat="48.11981" lon="7.15975">
        <ele>661</ele>
        <time>2019-04-13T14:13:14Z</time>
      </trkpt>
      <trkpt lat="48.12003" lon="7.15958">
        <ele>657</ele>
        <time>2019-04-13T14:14:14Z</time>
      </trkpt>
      <trkpt lat="48.12028" lon="7.15931">
        <ele>650</ele>
        <time>2019-04-13T14:15:14Z</time>
      </trkpt>
      <trkpt lat="48.12032" lon="7.15926">
        <ele>649</ele>
        <time>2019-04-13T14:16:14Z</time>
      </trkpt>
      <trkpt lat="48.12049" lon="7.15901">
        <ele>645</ele>
        <time>2019-04-13T14:17:14Z</time>
      </trkpt>
      <trkpt lat="48.12059" lon="7.15884">
        <ele>643</ele>
        <time>2019-04-13T14:18:14Z</time>
      </trkpt>
      <trkpt lat="48.12063" lon="7.15878">
        <ele>642</ele>
        <time>2019-04-13T14:19:14Z</time>
      </trkpt>
      <trkpt lat="48.12063" lon="7.15878">
        <ele>642</ele>
        <time>2019-04-13T14:20:14Z</time>
      </trkpt>
      <trkpt lat="48.12074" lon="7.15896">
        <ele>638</ele>
        <time>2019-04-13T14:21:14Z</time>
      </trkpt>
      <trkpt lat="48.1208" lon="7.15905">
        <ele>636</ele>
        <time>2019-04-13T14:22:14Z</time>
      </trkpt>
      <trkpt lat="48.12088" lon="7.15904">
        <ele>634</ele>
        <time>2019-04-13T14:23:14Z</time>
      </trkpt>
      <trkpt lat="48.12102" lon="7.15895">
        <ele>632</ele>
        <time>2019-04-13T14:24:14Z</time>
      </trkpt>
      <trkpt lat="48.12102" lon="7.15895">
        <ele>632</ele>
        <time>2019-04-13T14:25:14Z</time>
      </trkpt>
      <trkpt lat="48.12103" lon="7.15902">
        <ele>631</ele>
        <time>2019-04-13T14:26:14Z</time>
      </trkpt>
      <trkpt lat="48.12108" lon="7.15917">
        <ele>629</ele>
        <time>2019-04-13T14:27:14Z</time>
      </trkpt>
      <trkpt lat="48.12108" lon="7.15917">
        <ele>629</ele>
        <time>2019-04-13T14:28:14Z</time>
      </trkpt>
      <trkpt lat="48.12115" lon="7.15908">
        <ele>628</ele>
        <time>2019-04-13T14:29:14Z</time>
      </trkpt>
      <trkpt lat="48.12125" lon="7.15897">
        <ele>627</ele>
        <time>2019-04-13T14:30:14Z</time>
      </trkpt>
      <trkpt lat="48.12125" lon="7.15897">
        <ele>627</ele>
        <time>2019-04-13T14:31:14Z</time>
      </trkpt>
      <trkpt lat="48.1213" lon="7.15907">
        <ele>625</ele>
        <time>2019-04-13T14:32:14Z</time>
      </trkpt>
      <trkpt lat="48.12142" lon="7.15918">
        <ele>622</ele>
        <time>2019-04-13T14:33:14Z</time>
      </trkpt>
      <trkpt lat="48.12158" lon="7.15931">
        <ele>617</ele>
        <time>2019-04-13T14:34:14Z</time>
      </trkpt>
      <trkpt lat="48.12168" lon="7.15942">
        <ele>613</ele>
        <time>2019-04-13T14:35:14Z</time>
      </trkpt>
      <trkpt lat="48.12177" lon="7.1595">
        <ele>609</ele>
        <time>2019-04-13T14:36:14Z</time>
      </trkpt>
      <trkpt lat="48.1219" lon="7.15958">
        <ele>605</ele>
        <time>2019-04-13T14:37:14Z</time>
      </trkpt>
      <trkpt lat="48.12202" lon="7.15964">
        <ele>601</ele>
        <time>2019-04-13T14:38:14Z</time>
      </trkpt>
      <trkpt lat="48.1221" lon="7.15966">
        <ele>598</ele>
        <time>2019-04-13T14:39:14Z</time>
      </trkpt>
      <trkpt lat="48.12213" lon="7.15965">
        <ele>598</ele>
        <time>2019-04-13T14:40:14Z</time>
      </trkpt>
      <trkpt lat="48.12221" lon="7.15963">
        <ele>596</ele>
        <time>2019-04-13T14:41:14Z</time>
      </trkpt>
      <trkpt lat="48.12225" lon="7.15964">
        <ele>595</ele>
        <time>2019-04-13T14:42:14Z</time>
      </trkpt>
      <trkpt lat="48.12235" lon="7.1597">
        <ele>591</ele>
        <time>2019-04-13T14:43:14Z</time>
      </trkpt>
      <trkpt lat="48.12245" lon="7.15976">
        <ele>588</ele>
        <time>2019-04-13T14:44:14Z</time>
      </trkpt>
      <trkpt lat="48.12254" lon="7.15978">
        <ele>586</ele>
        <time>2019-04-13T14:45:14Z</time>
      </trkpt>
      <trkpt lat="48.12271" lon="7.1598">
        <ele>583</ele>
        <time>2019-04-13T14:46:14Z</time>
      </trkpt>
      <trkpt lat="48.12281" lon="7.15979">
        <ele>582</ele>
        <time>2019-04-13T14:47:14Z</time>
      </trkpt>
      <trkpt lat="48.12286" lon="7.15979">
        <ele>581</ele>
        <time>2019-04-13T14:48:14Z</time>
      </trkpt>
      <trkpt lat="48.12292" lon="7.15982">
        <ele>580</ele>
        <time>2019-04-13T14:49:14Z</time>
      </trkpt>
      <trkpt lat="48.12301" lon="7.15988">
        <ele>578</ele>
        <time>2019-04-13T14:50:14Z</time>
      </trkpt>
      <trkpt lat="48.12317" lon="7.15997">
        <ele>575</ele>
        <time>2019-04-13T14:51:14Z</time>
      </trkpt>
      <trkpt lat="48.12323" lon="7.15998">
        <ele>574</ele>
        <time>2019-04-13T14:52:14Z</time>
      </trkpt>
      <trkpt lat="48.12346" lon="7.15996">
        <ele>572</ele>
        <time>2019-04-13T14:53:14Z</time>
      </trkpt>
      <trkpt lat="48.12354" lon="7.15996">
        <ele>571</ele>
        <time>2019-04-13T14:54:14Z</time>
      </trkpt>
      <trkpt lat="48.12362" lon="7.15995">
        <ele>571</ele>
        <time>2019-04-13T14:55:14Z</time>
      </trkpt>
      <trkpt lat="48.12371" lon="7.15993">
        <ele>570</ele>
        <time>2019-04-13T14:56:14Z</time>
      </trkpt>
      <trkpt lat="48.12379" lon="7.15994">
        <ele>569</ele>
        <time>2019-04-13T14:57:14Z</time>
      </trkpt>
      <trkpt lat="48.12386" lon="7.15996">
        <ele>568</ele>
        <time>2019-04-13T14:58:14Z</time>
      </trkpt>
      <trkpt lat="48.12394" lon="7.15997">
        <ele>568</ele>
        <time>2019-04-13T14:59:14Z</time>
      </trkpt>
      <trkpt lat="48.12405" lon="7.15996">
        <ele>567</ele>
        <time>2019-04-13T15:00:14Z</time>
      </trkpt>
      <trkpt lat="48.12413" lon="7.15993">
        <ele>566</ele>
        <time>2019-04-13T15:01:14Z</time>
      </trkpt>
      <trkpt lat="48.1242" lon="7.15991">
        <ele>564</ele>
        <time>2019-04-13T15:02:14Z</time>
      </trkpt>
      <trkpt lat="48.12429" lon="7.15991">
        <ele>561</ele>
        <time>2019-04-13T15:03:14Z</time>
      </trkpt>
      <trkpt lat="48.1243" lon="7.15992">
        <ele>561</ele>
        <time>2019-04-13T15:04:14Z</time>
      </trkpt>
      <trkpt lat="48.12437" lon="7.15992">
        <ele>559</ele>
        <time>2019-04-13T15:05:14Z</time>
      </trkpt>
      <trkpt lat="48.12439" lon="7.15992">
        <ele>558</ele>
        <time>2019-04-13T15:06:14Z</time>
      </trkpt>
      <trkpt lat="48.12447" lon="7.15983">
        <ele>555</ele>
        <time>2019-04-13T15:07:14Z</time>
      </trkpt>
      <trkpt lat="48.12451" lon="7.15978">
        <ele>553</ele>
        <time>2019-04-13T15:08:14Z</time>
      </trkpt>
      <trkpt lat="48.12457" lon="7.15971">
        <ele>550</ele>
        <time>2019-04-13T15:09:14Z</time>
      </trkpt>
      <trkpt lat="48.12462" lon="7.15973">
        <ele>549</ele>
        <time>2019-04-13T15:10:14Z</time>
      </trkpt>
      <trkpt lat="48.1247" lon="7.15979">
        <ele>547</ele>
        <time>2019-04-13T15:11:14Z</time>
      </trkpt>
      <trkpt lat="48.12477" lon="7.15984">
        <ele>545</ele>
        <time>2019-04-13T15:12:14Z</time>
      </trkpt>
      <trkpt lat="48.12483" lon="7.15987">
        <ele>544</ele>
        <time>2019-04-13T15:13:14Z</time>
      </trkpt>
      <trkpt lat="48.12483" lon="7.15987">
        <ele>544</ele>
        <time>2019-04-13T15:14:14Z</time>
      </trkpt>
      <trkpt lat="48.12477" lon="7.15984">
        <ele>545</ele>
        <time>2019-04-13T15:15:14Z</time>
      </trkpt>
      <trkpt lat="48.1247" lon="7.15979">
        <ele>547</ele>
        <time>2019-04-13T15:16:14Z</time>
      </trkpt>
      <trkpt lat="48.12462" lon="7.15973">
        <ele>549</ele>
        <time>2019-04-13T15:17:14Z</time>
      </trkpt>
      <trkpt lat="48.12457" lon="7.15971">
        <ele>550</ele>
        <time>2019-04-13T15:18:14Z</time>
      </trkpt>
      <trkpt lat="48.12451" lon="7.15978">
        <ele>553</ele>
        <time>2019-04-13T15:19:14Z</time>
      </trkpt>
      <trkpt lat="48.12447" lon="7.15983">
        <ele>555</ele>
        <time>2019-04-13T15:20:14Z</time>
      </trkpt>
      <trkpt lat="48.12439" lon="7.15992">
        <ele>558</ele>
        <time>2019-04-13T15:21:14Z</time>
      </trkpt>
      <trkpt lat="48.12439" lon="7.15992">
        <ele>558</ele>
        <time>2019-04-13T15:22:14Z</time>
      </trkpt>
      <trkpt lat="48.12515" lon="7.16047">
        <ele>528</ele>
        <time>2019-04-13T15:23:14Z</time>
      </trkpt>
      <trkpt lat="48.12529" lon="7.16048">
        <ele>522</ele>
        <time>2019-04-13T15:24:14Z</time>
      </trkpt>
      <trkpt lat="48.12533" lon="7.16051">
        <ele>520</ele>
        <time>2019-04-13T15:25:14Z</time>
      </trkpt>
      <trkpt lat="48.12537" lon="7.1606">
        <ele>517</ele>
        <time>2019-04-13T15:26:14Z</time>
      </trkpt>
      <trkpt lat="48.12541" lon="7.16105">
        <ele>512</ele>
        <time>2019-04-13T15:27:14Z</time>
      </trkpt>
      <trkpt lat="48.12539" lon="7.16157">
        <ele>506</ele>
        <time>2019-04-13T15:28:14Z</time>
      </trkpt>
      <trkpt lat="48.12541" lon="7.16172">
        <ele>503</ele>
        <time>2019-04-13T15:29:14Z</time>
      </trkpt>
      <trkpt lat="48.12545" lon="7.16184">
        <ele>500</ele>
        <time>2019-04-13T15:30:14Z</time>
      </trkpt>
      <trkpt lat="48.1255" lon="7.1619">
        <ele>498</ele>
        <time>2019-04-13T15:31:14Z</time>
      </trkpt>
      <trkpt lat="48.12584" lon="7.16204">
        <ele>488</ele>
        <time>2019-04-13T15:32:14Z</time>
      </trkpt>
      <trkpt lat="48.12584" lon="7.16204">
        <ele>488</ele>
        <time>2019-04-13T15:33:14Z</time>
      </trkpt>
      <trkpt lat="48.1259" lon="7.16174">
        <ele>490</ele>
        <time>2019-04-13T15:34:14Z</time>
      </trkpt>
      <trkpt lat="48.12593" lon="7.16153">
        <ele>491</ele>
        <time>2019-04-13T15:35:14Z</time>
      </trkpt>
      <trkpt lat="48.12594" lon="7.16152">
        <ele>491</ele>
        <time>2019-04-13T15:36:14Z</time>
      </trkpt>
      <trkpt lat="48.12603" lon="7.16096">
        <ele>493</ele>
        <time>2019-04-13T15:37:14Z</time>
      </trkpt>
      <trkpt lat="48.12613" lon="7.1605">
        <ele>492</ele>
        <time>2019-04-13T15:38:14Z</time>
      </trkpt>
      <trkpt lat="48.12619" lon="7.16039">
        <ele>492</ele>
        <time>2019-04-13T15:39:14Z</time>
      </trkpt>
      <trkpt lat="48.12628" lon="7.16028">
        <ele>491</ele>
        <time>2019-04-13T15:40:14Z</time>
      </trkpt>
      <trkpt lat="48.12628" lon="7.16028">
        <ele>491</ele>
        <time>2019-04-13T15:41:14Z</time>
      </trkpt>
      <trkpt lat="48.12627" lon="7.1601">
        <ele>491</ele>
        <time>2019-04-13T15:42:14Z</time>
      </trkpt>
      <trkpt lat="48.12628" lon="7.15993">
        <ele>491</ele>
        <time>2019-04-13T15:43:14Z</time>
      </trkpt>
      <trkpt lat="48.12628" lon="7.15986">
        <ele>491</ele>
        <time>2019-04-13T15:44:14Z</time>
      </trkpt>
      <trkpt lat="48.12628" lon="7.15967">
        <ele>492</ele>
        <time>2019-04-13T15:45:14Z</time>
      </trkpt>
      <trkpt lat="48.12628" lon="7.15965">
        <ele>492</ele>
        <time>2019-04-13T15:46:14Z</time>
      </trkpt>
      <trkpt lat="48.12629" lon="7.15948">
        <ele>492</ele>
        <time>2019-04-13T15:47:14Z</time>
      </trkpt>
      <trkpt lat="48.12629" lon="7.15941">
        <ele>492</ele>
        <time>2019-04-13T15:48:14Z</time>
      </trkpt>
      <trkpt lat="48.1263" lon="7.15927">
        <ele>492</ele>
        <time>2019-04-13T15:49:14Z</time>
      </trkpt>
      <trkpt lat="48.12628" lon="7.15909">
        <ele>492</ele>
        <time>2019-04-13T15:50:14Z</time>
      </trkpt>
      <trkpt lat="48.12626" lon="7.15884">
        <ele>493</ele>
        <time>2019-04-13T15:51:14Z</time>
      </trkpt>
      <trkpt lat="48.12622" lon="7.15864">
        <ele>494</ele>
        <time>2019-04-13T15:52:14Z</time>
      </trkpt>
      <trkpt lat="48.12617" lon="7.15837">
        <ele>495</ele>
        <time>2019-04-13T15:53:14Z</time>
      </trkpt>
      <trkpt lat="48.12612" lon="7.1581">
        <ele>497</ele>
        <time>2019-04-13T15:54:14Z</time>
      </trkpt>
      <trkpt lat="48.12608" lon="7.15781">
        <ele>498</ele>
        <time>2019-04-13T15:55:14Z</time>
      </trkpt>
      <trkpt lat="48.12607" lon="7.1575">
        <ele>499</ele>
        <time>2019-04-13T15:56:14Z</time>
      </trkpt>
      <trkpt lat="48.12607" lon="7.15731">
        <ele>499</ele>
        <time>2019-04-13T15:57:14Z</time>
      </trkpt>
      <trkpt lat="48.12608" lon="7.15712">
        <ele>499</ele>
        <time>2019-04-13T15:58:14Z</time>
      </trkpt>
      <trkpt lat="48.12608" lon="7.15689">
        <ele>500</ele>
        <time>2019-04-13T15:59:14Z</time>
      </trkpt>
      <trkpt lat="48.12608" lon="7.15666">
        <ele>500</ele>
        <time>2019-04-13T16:00:14Z</time>
      </trkpt>
      <trkpt lat="48.12608" lon="7.15648">
        <ele>500</ele>
        <time>2019-04-13T16:01:14Z</time>
      </trkpt>
      <trkpt lat="48.12608" lon="7.15636">
        <ele>500</ele>
        <time>2019-04-13T16:02:14Z</time>
      </trkpt>
      <trkpt lat="48.12609" lon="7.15627">
        <ele>500</ele>
        <time>2019-04-13T16:03:14Z</time>
      </trkpt>
      <trkpt lat="48.1261" lon="7.1562">
        <ele>500</ele>
        <time>2019-04-13T16:04:14Z</time>
      </trkpt>
      <trkpt lat="48.1261" lon="7.1562">
        <ele>500</ele>
        <time>2019-04-13T16:05:14Z</time>
      </trkpt>
      <trkpt lat="48.12612" lon="7.15603">
        <ele>501</ele>
        <time>2019-04-13T16:06:14Z</time>
      </trkpt>
      <trkpt lat="48.12614" lon="7.15589">
        <ele>501</ele>
        <time>2019-04-13T16:07:14Z</time>
      </trkpt>
      <trkpt lat="48.12618" lon="7.15568">
        <ele>502</ele>
        <time>2019-04-13T16:08:14Z</time>
      </trkpt>
      <trkpt lat="48.12618" lon="7.1556">
        <ele>503</ele>
        <time>2019-04-13T16:09:14Z</time>
      </trkpt>
      <trkpt lat="48.12619" lon="7.15532">
        <ele>504</ele>
        <time>2019-04-13T16:10:14Z</time>
      </trkpt>
      <trkpt lat="48.12617" lon="7.15501">
        <ele>505</ele>
        <time>2019-04-13T16:11:14Z</time>
      </trkpt>
      <trkpt lat="48.12614" lon="7.15472">
        <ele>506</ele>
        <time>2019-04-13T16:12:14Z</time>
      </trkpt>
      <trkpt lat="48.12614" lon="7.15454">
        <ele>507</ele>
        <time>2019-04-13T16:13:14Z</time>
      </trkpt>
      <trkpt lat="48.12617" lon="7.15442">
        <ele>507</ele>
        <time>2019-04-13T16:14:14Z</time>
      </trkpt>
      <trkpt lat="48.12617" lon="7.15442">
        <ele>507</ele>
        <time>2019-04-13T16:15:14Z</time>
      </trkpt>
      <trkpt lat="48.12623" lon="7.1543">
        <ele>508</ele>
        <time>2019-04-13T16:16:14Z</time>
      </trkpt>
      <trkpt lat="48.12633" lon="7.15418">
        <ele>509</ele>
        <time>2019-04-13T16:17:14Z</time>
      </trkpt>
      <trkpt lat="48.1264" lon="7.15404">
        <ele>509</ele>
        <time>2019-04-13T16:18:14Z</time>
      </trkpt>
      <trkpt lat="48.1264" lon="7.15404">
        <ele>509</ele>
        <time>2019-04-13T16:19:14Z</time>
      </trkpt>
      <trkpt lat="48.12644" lon="7.15395">
        <ele>510</ele>
        <time>2019-04-13T16:20:14Z</time>
      </trkpt>
      <trkpt lat="48.12649" lon="7.15387">
        <ele>510</ele>
        <time>2019-04-13T16:21:14Z</time>
      </trkpt>
      <trkpt lat="48.12661" lon="7.15372">
        <ele>511</ele>
        <time>2019-04-13T16:22:14Z</time>
      </trkpt>
      <trkpt lat="48.12678" lon="7.15346">
        <ele>513</ele>
        <time>2019-04-13T16:23:14Z</time>
      </trkpt>
      <trkpt lat="48.12693" lon="7.15317">
        <ele>516</ele>
        <time>2019-04-13T16:24:14Z</time>
      </trkpt>
      <trkpt lat="48.12701" lon="7.153">
        <ele>517</ele>
        <time>2019-04-13T16:25:14Z</time>
      </trkpt>
      <trkpt lat="48.12705" lon="7.15287">
        <ele>518</ele>
        <time>2019-04-13T16:26:14Z</time>
      </trkpt>
      <trkpt lat="48.12705" lon="7.15287">
        <ele>518</ele>
        <time>2019-04-13T16:27:14Z</time>
      </trkpt>
      <trkpt lat="48.12716" lon="7.15297">
        <ele>519</ele>
        <time>2019-04-13T16:28:14Z</time>
      </trkpt>
      <trkpt lat="48.12722" lon="7.15305">
        <ele>520</ele>
        <time>2019-04-13T16:29:14Z</time>
      </trkpt>
      <trkpt lat="48.12724" lon="7.15316">
        <ele>521</ele>
        <time>2019-04-13T16:30:14Z</time>
      </trkpt>
      <trkpt lat="48.12721" lon="7.15329">
        <ele>520</ele>
        <time>2019-04-13T16:31:14Z</time>
      </trkpt>
      <trkpt lat="48.12721" lon="7.15329">
        <ele>520</ele>
        <time>2019-04-13T16:32:14Z</time>
      </trkpt>
      <trkpt lat="48.12723" lon="7.1535">
        <ele>521</ele>
        <time>2019-04-13T16:33:14Z</time>
      </trkpt>
      <trkpt lat="48.12723" lon="7.15373">
        <ele>521</ele>
        <time>2019-04-13T16:34:14Z</time>
      </trkpt>
      <trkpt lat="48.12724" lon="7.15389">
        <ele>521</ele>
        <time>2019-04-13T16:35:14Z</time>
      </trkpt>
      <trkpt lat="48.12729" lon="7.15408">
        <ele>522</ele>
        <time>2019-04-13T16:36:14Z</time>
      </trkpt>
      <trkpt lat="48.12735" lon="7.1542">
        <ele>523</ele>
        <time>2019-04-13T16:37:14Z</time>
      </trkpt>
      <trkpt lat="48.12744" lon="7.15431">
        <ele>524</ele>
        <time>2019-04-13T16:38:14Z</time>
      </trkpt>
      <trkpt lat="48.12752" lon="7.15435">
        <ele>526</ele>
        <time>2019-04-13T16:39:14Z</time>
      </trkpt>
      <trkpt lat="48.1276" lon="7.15435">
        <ele>528</ele>
        <time>2019-04-13T16:40:14Z</time>
      </trkpt>
      <trkpt lat="48.12767" lon="7.15435">
        <ele>529</ele>
        <time>2019-04-13T16:41:14Z</time>
      </trkpt>
      <trkpt lat="48.12778" lon="7.1543">
        <ele>532</ele>
        <time>2019-04-13T16:42:14Z</time>
      </trkpt>
      <trkpt lat="48.12786" lon="7.15419">
        <ele>535</ele>
        <time>2019-04-13T16:43:14Z</time>
      </trkpt>
      <trkpt lat="48.12788" lon="7.15409">
        <ele>535</ele>
        <time>2019-04-13T16:44:14Z</time>
      </trkpt>
      <trkpt lat="48.12789" lon="7.15393">
        <ele>535</ele>
        <time>2019-04-13T16:45:14Z</time>
      </trkpt>
      <trkpt lat="48.12791" lon="7.1537">
        <ele>535</ele>
        <time>2019-04-13T16:46:14Z</time>
      </trkpt>
      <trkpt lat="48.12792" lon="7.15367">
        <ele>535</ele>
        <time>2019-04-13T16:47:14Z</time>
      </trkpt>
      <trkpt lat="48.12793" lon="7.15366">
        <ele>535</ele>
        <time>2019-04-13T16:48:14Z</time>
      </trkpt>
      <trkpt lat="48.12795" lon="7.15365">
        <ele>536</ele>
        <time>2019-04-13T16:49:14Z</time>
      </trkpt>
      <trkpt lat="48.12797" lon="7.15364">
        <ele>536</ele>
        <time>2019-04-13T16:50:14Z</time>
      </trkpt>
      <trkpt lat="48.12802" lon="7.15363">
        <ele>537</ele>
        <time>2019-04-13T16:51:14Z</time>
      </trkpt>
      <trkpt lat="48.12808" lon="7.15361">
        <ele>539</ele>
        <time>2019-04-13T16:52:14Z</time>
      </trkpt>
      <trkpt lat="48.1282" lon="7.15357">
        <ele>541</ele>
        <time>2019-04-13T16:53:14Z</time>
      </trkpt>
      <trkpt lat="48.12831" lon="7.15348">
        <ele>544</ele>
        <time>2019-04-13T16:54:14Z</time>
      </trkpt>
      <trkpt lat="48.12847" lon="7.15331">
        <ele>547</ele>
        <time>2019-04-13T16:55:14Z</time>
      </trkpt>
      <trkpt lat="48.12866" lon="7.15315">
        <ele>551</ele>
        <time>2019-04-13T16:56:14Z</time>
      </trkpt>
      <trkpt lat="48.12879" lon="7.15305">
        <ele>554</ele>
        <time>2019-04-13T16:57:14Z</time>
      </trkpt>
      <trkpt lat="48.12886" lon="7.15303">
        <ele>555</ele>
        <time>2019-04-13T16:58:14Z</time>
      </trkpt>
      <trkpt lat="48.12901" lon="7.15301">
        <ele>558</ele>
        <time>2019-04-13T16:59:14Z</time>
      </trkpt>
      <trkpt lat="48.12901" lon="7.15301">
        <ele>558</ele>
        <time>2019-04-13T17:00:14Z</time>
      </trkpt>
      <trkpt lat="48.12923" lon="7.15315">
        <ele>565</ele>
        <time>2019-04-13T17:01:14Z</time>
      </trkpt>
      <trkpt lat="48.12935" lon="7.15324">
        <ele>569</ele>
        <time>2019-04-13T17:02:14Z</time>
      </trkpt>
      <trkpt lat="48.12952" lon="7.15341">
        <ele>576</ele>
        <time>2019-04-13T17:03:14Z</time>
      </trkpt>
      <trkpt lat="48.12964" lon="7.15352">
        <ele>580</ele>
        <time>2019-04-13T17:04:14Z</time>
      </trkpt>
      <trkpt lat="48.12986" lon="7.15378">
        <ele>589</ele>
        <time>2019-04-13T17:05:14Z</time>
      </trkpt>
      <trkpt lat="48.13037" lon="7.15422">
        <ele>611</ele>
        <time>2019-04-13T17:06:14Z</time>
      </trkpt>
      <trkpt lat="48.13037" lon="7.15422">
        <ele>611</ele>
        <time>2019-04-13T17:07:14Z</time>
      </trkpt>
      <trkpt lat="48.13038" lon="7.15415">
        <ele>611</ele>
        <time>2019-04-13T17:08:14Z</time>
      </trkpt>
      <trkpt lat="48.13043" lon="7.154">
        <ele>611</ele>
        <time>2019-04-13T17:09:14Z</time>
      </trkpt>
      <trkpt lat="48.13047" lon="7.15394">
        <ele>612</ele>
        <time>2019-04-13T17:10:14Z</time>
      </trkpt>
      <trkpt lat="48.13058" lon="7.15376">
        <ele>614</ele>
        <time>2019-04-13T17:11:14Z</time>
      </trkpt>
      <trkpt lat="48.13057" lon="7.15374">
        <ele>613</ele>
        <time>2019-04-13T17:12:14Z</time>
      </trkpt>
      <trkpt lat="48.13088" lon="7.15343">
        <ele>620</ele>
        <time>2019-04-13T17:13:14Z</time>
      </trkpt>
      <trkpt lat="48.13123" lon="7.15283">
        <ele>620</ele>
        <time>2019-04-13T17:14:14Z</time>
      </trkpt>
      <trkpt lat="48.1314" lon="7.15245">
        <ele>620</ele>
        <time>2019-04-13T17:15:14Z</time>
      </trkpt>
      <trkpt lat="48.13149" lon="7.15223">
        <ele>621</ele>
        <time>2019-04-13T17:16:14Z</time>
      </trkpt>
      <trkpt lat="48.13162" lon="7.15215">
        <ele>625</ele>
        <time>2019-04-13T17:17:14Z</time>
      </trkpt>
      <trkpt lat="48.13134" lon="7.15079">
        <ele>614</ele>
        <time>2019-04-13T17:18:14Z</time>
      </trkpt>
    </trkseg>
  </trk>
</gpx>